Darstellungsparameter: Aktuell verwendete Einstellungen:
Skalierung der Graphiken ... ?
xyx+y,   Skalierungsfaktor:      Skalierung: Modus: x, Faktor: 1
Darstellungszeitraum ... ?
Vom - - bis: - -   Zeitraum: 20.02.2016 - 19.08.2016
Min/Max/Avg-Anzeige ... ?
Zeige MMA aktuell
Zeige MMA Monat
Zeige MMA alles
Zeige --A aktuell
Zeige --A Monat
Zeige --A alles
Keine MMA-Anzeige
MMA:
Keine MMA-Graphiken
MMA-Basis: 20.02.2016 - 19.08.2016
Quicknavigation für Darstellung... ?
Tage:      1T, 2T, 3T, 5T -1T -2T -3T -5T +1T +2T +3T +5T
Wochen: 1W, 2W, 3W -1W -2W -3W +1W +2W +3W
Monate: 1M, 3M, 6M -1M -3M -6M +1M +3M +6M
Jahre:    1J, 3J, 5J, 10J -1J -3J -5J -10J +1J +3J +5J +10J
Nutze für die Darstellung ... ?
Originaldaten oder Mittelwerte auf ...
Stundenbasis Tagesbasis Wochenbasis
Monatsbasis Jahresbasis      Datenbasis: Original-Daten
Darstellen als:
Statistik (Auto) Statistik J:M      Darstellung:
Zur Graphik,    zurück zur Übersicht aller Sensoren.
 
Tabellarische Datenbersicht: ?
 
Sensor: Nr:Datum:Temp:Feuchte:Taupunkt:
Aussen-T/F 1 20-02-2016 00:00:00 -0.4 C 96 % -0.96 C
2 20-02-2016 00:05:00 -0.4 C 96 % -0.96 C
3 20-02-2016 00:10:00 -0.3 C 96 % -0.86 C
4 20-02-2016 00:15:00 -0.2 C 96 % -0.76 C
5 20-02-2016 00:20:00 -0.1 C 96 % -0.66 C
6 20-02-2016 00:25:00 0.2 C 96 % -0.36 C
7 20-02-2016 00:30:00 0.3 C 97 % -0.12 C
8 20-02-2016 00:35:00 0.4 C 96 % -0.16 C
9 20-02-2016 00:40:00 0.5 C 96 % -0.06 C
10 20-02-2016 00:45:00 0.6 C 97 % 0.18 C
11 20-02-2016 00:50:00 0.7 C 96 % 0.14 C
12 20-02-2016 00:55:00 0.8 C 96 % 0.24 C
13 20-02-2016 01:00:00 0.8 C 96 % 0.24 C
14 20-02-2016 01:05:00 0.8 C 96 % 0.24 C
15 20-02-2016 01:10:00 0.9 C 97 % 0.48 C
16 20-02-2016 01:15:00 1 C 97 % 0.58 C
17 20-02-2016 01:20:00 1.1 C 96 % 0.54 C
18 20-02-2016 01:25:00 1.2 C 96 % 0.63 C
19 20-02-2016 01:30:00 1.2 C 97 % 0.78 C
20 20-02-2016 01:35:00 1.3 C 97 % 0.88 C
21 20-02-2016 01:40:00 1.4 C 97 % 0.98 C
22 20-02-2016 01:45:00 1.5 C 96 % 0.93 C
23 20-02-2016 01:50:00 1.6 C 96 % 1.03 C
24 20-02-2016 01:55:00 1.6 C 97 % 1.18 C
25 20-02-2016 02:00:00 1.6 C 96 % 1.03 C
Sensor: Nr:Datum:Temp:Feuchte:Taupunkt:
Aussen-T/F 26 20-02-2016 02:05:00 1.8 C 96 % 1.23 C
27 20-02-2016 02:10:00 1.8 C 96 % 1.23 C
28 20-02-2016 02:15:00 1.8 C 96 % 1.23 C
29 20-02-2016 02:20:00 1.8 C 96 % 1.23 C
30 20-02-2016 02:25:00 1.8 C 96 % 1.23 C
31 20-02-2016 02:30:00 1.9 C 96 % 1.33 C
32 20-02-2016 02:35:00 1.9 C 96 % 1.33 C
33 20-02-2016 02:40:00 1.9 C 96 % 1.33 C
34 20-02-2016 02:45:00 2.1 C 96 % 1.53 C
35 20-02-2016 02:50:00 2.2 C 96 % 1.63 C
36 20-02-2016 02:55:00 2.2 C 96 % 1.63 C
37 20-02-2016 03:00:00 2.4 C 95 % 1.68 C
38 20-02-2016 03:05:00 2.6 C 95 % 1.88 C
39 20-02-2016 03:10:00 2.6 C 95 % 1.88 C
40 20-02-2016 03:15:00 2.7 C 94 % 1.83 C
41 20-02-2016 03:20:00 2.7 C 94 % 1.83 C
42 20-02-2016 03:25:00 2.8 C 94 % 1.93 C
43 20-02-2016 03:30:00 3.1 C 93 % 2.08 C
44 20-02-2016 03:35:00 3.2 C 92 % 2.03 C
45 20-02-2016 03:40:00 3.2 C 92 % 2.03 C
46 20-02-2016 03:45:00 3.2 C 91 % 1.88 C
47 20-02-2016 03:50:00 3.3 C 91 % 1.98 C
48 20-02-2016 03:55:00 3.4 C 91 % 2.07 C
49 20-02-2016 04:00:00 3.6 C 90 % 2.12 C
50 20-02-2016 04:05:00 3.6 C 90 % 2.12 C
Sensor: Nr:Datum:Temp:Feuchte:Taupunkt:
Aussen-T/F 51 20-02-2016 04:10:00 3.7 C 90 % 2.22 C
52 20-02-2016 04:15:00 3.8 C 89 % 2.16 C
53 20-02-2016 04:20:00 3.9 C 89 % 2.26 C
54 20-02-2016 04:25:00 4.1 C 88 % 2.3 C
55 20-02-2016 04:30:00 4.2 C 89 % 2.55 C
56 20-02-2016 04:35:00 4.2 C 89 % 2.55 C
57 20-02-2016 04:40:00 4.2 C 90 % 2.71 C
58 20-02-2016 04:45:00 4.3 C 90 % 2.81 C
59 20-02-2016 04:50:00 4.2 C 90 % 2.71 C
60 20-02-2016 04:55:00 4.2 C 90 % 2.71 C
61 20-02-2016 05:00:00 4.2 C 91 % 2.87 C
62 20-02-2016 05:05:00 4.2 C 91 % 2.87 C
63 20-02-2016 05:10:00 4.2 C 91 % 2.87 C
64 20-02-2016 05:15:00 4.2 C 91 % 2.87 C
65 20-02-2016 05:20:00 4.2 C 91 % 2.87 C
66 20-02-2016 05:25:00 4.2 C 91 % 2.87 C
67 20-02-2016 05:30:00 4.2 C 91 % 2.87 C
68 20-02-2016 05:35:00 4.2 C 91 % 2.87 C
69 20-02-2016 05:40:00 4.2 C 91 % 2.87 C
70 20-02-2016 05:45:00 4.2 C 92 % 3.02 C
71 20-02-2016 05:50:00 4.2 C 92 % 3.02 C
72 20-02-2016 05:55:00 4.2 C 92 % 3.02 C
73 20-02-2016 06:00:00 4.1 C 92 % 2.92 C
74 20-02-2016 06:05:00 4.2 C 92 % 3.02 C
75 20-02-2016 06:10:00 4.2 C 92 % 3.02 C
Sensor: Nr:Datum:Temp:Feuchte:Taupunkt:
Aussen-T/F 76 20-02-2016 06:15:00 4.2 C 92 % 3.02 C
77 20-02-2016 06:20:00 4.2 C 92 % 3.02 C
78 20-02-2016 06:25:00 4.2 C 92 % 3.02 C
79 20-02-2016 06:30:00 4.2 C 92 % 3.02 C
80 20-02-2016 06:35:00 4.3 C 92 % 3.12 C
81 20-02-2016 06:40:00 4.3 C 92 % 3.12 C
82 20-02-2016 06:45:00 4.3 C 92 % 3.12 C
83 20-02-2016 06:50:00 4.3 C 91 % 2.96 C
84 20-02-2016 06:55:00 4.3 C 92 % 3.12 C
85 20-02-2016 07:00:00 4.3 C 91 % 2.96 C
86 20-02-2016 07:05:00 4.3 C 92 % 3.12 C
87 20-02-2016 07:10:00 4.3 C 92 % 3.12 C
88 20-02-2016 07:15:00 4.3 C 92 % 3.12 C
89 20-02-2016 07:20:00 4.3 C 92 % 3.12 C
90 20-02-2016 07:25:00 4.2 C 92 % 3.02 C
91 20-02-2016 07:30:00 4.2 C 92 % 3.02 C
92 20-02-2016 07:35:00 4.2 C 92 % 3.02 C
93 20-02-2016 07:40:00 4.2 C 92 % 3.02 C
94 20-02-2016 07:45:00 4.2 C 92 % 3.02 C
95 20-02-2016 07:50:00 4.2 C 92 % 3.02 C
96 20-02-2016 07:55:00 4.3 C 92 % 3.12 C
97 20-02-2016 08:00:00 4.3 C 92 % 3.12 C
98 20-02-2016 08:05:00 4.4 C 92 % 3.22 C
99 20-02-2016 08:10:00 4.4 C 92 % 3.22 C
100 20-02-2016 08:15:00 4.4 C 92 % 3.22 C
Sensor: Nr:Datum:Temp:Feuchte:Taupunkt:
Aussen-T/F 101 20-02-2016 08:20:00 4.4 C 92 % 3.22 C
102 20-02-2016 08:25:00 4.4 C 92 % 3.22 C
103 20-02-2016 08:30:00 4.5 C 92 % 3.32 C
104 20-02-2016 08:35:00 4.5 C 92 % 3.32 C
105 20-02-2016 08:40:00 4.6 C 92 % 3.42 C
106 20-02-2016 08:45:00 4.6 C 92 % 3.42 C
107 20-02-2016 08:50:00 4.7 C 92 % 3.51 C
108 20-02-2016 08:55:00 4.8 C 91 % 3.46 C
109 20-02-2016 09:00:00 4.9 C 91 % 3.56 C
110 20-02-2016 09:05:00 5 C 90 % 3.5 C
111 20-02-2016 09:10:00 5.1 C 90 % 3.6 C
112 20-02-2016 09:15:00 5.2 C 90 % 3.7 C
113 20-02-2016 09:20:00 5.3 C 90 % 3.8 C
114 20-02-2016 09:25:00 5.3 C 90 % 3.8 C
115 20-02-2016 09:30:00 5.4 C 89 % 3.74 C
116 20-02-2016 09:35:00 5.4 C 89 % 3.74 C
117 20-02-2016 09:40:00 5.4 C 89 % 3.74 C
118 20-02-2016 09:45:00 5.5 C 89 % 3.84 C
119 20-02-2016 09:50:00 5.5 C 89 % 3.84 C
120 20-02-2016 09:55:00 5.6 C 89 % 3.93 C
121 20-02-2016 10:00:00 5.7 C 89 % 4.03 C
122 20-02-2016 10:05:00 5.7 C 89 % 4.03 C
123 20-02-2016 10:10:00 5.8 C 89 % 4.13 C
124 20-02-2016 10:15:00 5.8 C 89 % 4.13 C
125 20-02-2016 10:20:00 5.9 C 89 % 4.23 C
Sensor: Nr:Datum:Temp:Feuchte:Taupunkt:
Aussen-T/F 126 20-02-2016 10:25:00 5.9 C 89 % 4.23 C
127 20-02-2016 10:30:00 6 C 89 % 4.33 C
128 20-02-2016 10:35:00 6.1 C 89 % 4.43 C
129 20-02-2016 10:40:00 6.2 C 89 % 4.53 C
130 20-02-2016 10:45:00 6.2 C 89 % 4.53 C
131 20-02-2016 10:50:00 6.3 C 88 % 4.46 C
132 20-02-2016 10:55:00 6.4 C 88 % 4.56 C
133 20-02-2016 11:00:00 6.4 C 89 % 4.72 C
134 20-02-2016 11:05:00 6.5 C 89 % 4.82 C
135 20-02-2016 11:10:00 6.6 C 89 % 4.92 C
136 20-02-2016 11:15:00 6.6 C 89 % 4.92 C
137 20-02-2016 11:20:00 6.7 C 89 % 5.02 C
138 20-02-2016 11:25:00 6.7 C 89 % 5.02 C
139 20-02-2016 11:30:00 6.7 C 89 % 5.02 C
140 20-02-2016 11:35:00 6.8 C 89 % 5.12 C
141 20-02-2016 11:40:00 6.8 C 89 % 5.12 C
142 20-02-2016 11:45:00 6.8 C 89 % 5.12 C
143 20-02-2016 11:50:00 6.8 C 89 % 5.12 C
144 20-02-2016 11:55:00 6.8 C 89 % 5.12 C
145 20-02-2016 12:00:00 6.8 C 90 % 5.28 C
146 20-02-2016 12:05:00 6.9 C 89 % 5.22 C
147 20-02-2016 12:10:00 6.9 C 89 % 5.22 C
148 20-02-2016 12:15:00 7 C 89 % 5.31 C
149 20-02-2016 12:20:00 7.1 C 89 % 5.41 C
150 20-02-2016 12:25:00 7.1 C 89 % 5.41 C
Sensor: Nr:Datum:Temp:Feuchte:Taupunkt:
Aussen-T/F 151 20-02-2016 12:30:00 7.2 C 89 % 5.51 C
152 20-02-2016 12:35:00 7.3 C 89 % 5.61 C
153 20-02-2016 12:40:00 7.3 C 89 % 5.61 C
154 20-02-2016 12:45:00 7.5 C 89 % 5.81 C
155 20-02-2016 12:50:00 7.6 C 89 % 5.91 C
156 20-02-2016 12:55:00 7.7 C 89 % 6 C
157 20-02-2016 13:00:00 7.7 C 88 % 5.84 C
158 20-02-2016 13:05:00 7.8 C 88 % 5.94 C
159 20-02-2016 13:10:00 7.8 C 88 % 5.94 C
160 20-02-2016 13:15:00 7.8 C 88 % 5.94 C
161 20-02-2016 13:20:00 7.8 C 89 % 6.1 C
162 20-02-2016 13:25:00 7.9 C 89 % 6.2 C
163 20-02-2016 13:30:00 7.9 C 89 % 6.2 C
164 20-02-2016 13:35:00 8 C 89 % 6.3 C
165 20-02-2016 13:40:00 8.1 C 89 % 6.4 C
166 20-02-2016 13:45:00 8.1 C 89 % 6.4 C
167 20-02-2016 13:50:00 8.2 C 89 % 6.5 C
168 20-02-2016 13:55:00 8.2 C 89 % 6.5 C
169 20-02-2016 14:00:00 8.2 C 89 % 6.5 C
170 20-02-2016 14:05:00 8.2 C 89 % 6.5 C
171 20-02-2016 14:10:00 8.3 C 89 % 6.6 C
172 20-02-2016 14:15:00 8.3 C 89 % 6.6 C
173 20-02-2016 14:20:00 8.4 C 89 % 6.7 C
174 20-02-2016 14:25:00 8.4 C 89 % 6.7 C
175 20-02-2016 14:30:00 8.5 C 89 % 6.79 C
Sensor: Nr:Datum:Temp:Feuchte:Taupunkt:
Aussen-T/F 176 20-02-2016 14:35:00 8.5 C 89 % 6.79 C
177 20-02-2016 14:40:00 8.5 C 89 % 6.79 C
178 20-02-2016 14:45:00 8.6 C 89 % 6.89 C
179 20-02-2016 14:50:00 8.6 C 89 % 6.89 C
180 20-02-2016 14:55:00 8.6 C 89 % 6.89 C
181 20-02-2016 15:00:00 8.7 C 90 % 7.15 C
182 20-02-2016 15:05:00 8.7 C 90 % 7.15 C
183 20-02-2016 15:10:00 8.7 C 90 % 7.15 C
184 20-02-2016 15:15:00 8.8 C 90 % 7.25 C
185 20-02-2016 15:20:00 8.8 C 90 % 7.25 C
186 20-02-2016 15:25:00 8.9 C 90 % 7.35 C
187 20-02-2016 15:30:00 8.9 C 90 % 7.35 C
188 20-02-2016 15:35:00 8.9 C 90 % 7.35 C
189 20-02-2016 15:40:00 9.1 C 90 % 7.55 C
190 20-02-2016 15:45:00 9.1 C 90 % 7.55 C
191 20-02-2016 15:50:00 9.2 C 90 % 7.65 C
192 20-02-2016 15:55:00 9.2 C 90 % 7.65 C
193 20-02-2016 16:00:00 9.3 C 90 % 7.75 C
194 20-02-2016 16:05:00 9.3 C 90 % 7.75 C
195 20-02-2016 16:10:00 9.4 C 90 % 7.85 C
196 20-02-2016 16:15:00 9.3 C 90 % 7.75 C
197 20-02-2016 16:20:00 9.3 C 91 % 7.91 C
198 20-02-2016 16:25:00 9.2 C 91 % 7.81 C
199 20-02-2016 16:30:00 9.2 C 92 % 7.97 C
200 20-02-2016 16:35:00 9.1 C 92 % 7.87 C
Sensor: Nr:Datum:Temp:Feuchte:Taupunkt:
Aussen-T/F 201 20-02-2016 16:40:00 9 C 93 % 7.93 C
202 20-02-2016 16:45:00 8.9 C 93 % 7.83 C
203 20-02-2016 16:50:00 8.9 C 93 % 7.83 C
204 20-02-2016 16:55:00 8.8 C 93 % 7.73 C
205 20-02-2016 17:00:00 8.8 C 93 % 7.73 C
206 20-02-2016 17:05:00 8.8 C 94 % 7.89 C
207 20-02-2016 17:10:00 8.8 C 94 % 7.89 C
208 20-02-2016 17:15:00 8.8 C 94 % 7.89 C
209 20-02-2016 17:20:00 8.7 C 94 % 7.79 C
210 20-02-2016 17:25:00 8.7 C 94 % 7.79 C
211 20-02-2016 17:30:00 8.7 C 94 % 7.79 C
212 20-02-2016 17:35:00 8.6 C 94 % 7.69 C
213 20-02-2016 17:40:00 8.6 C 94 % 7.69 C
214 20-02-2016 17:45:00 8.6 C 94 % 7.69 C
215 20-02-2016 17:50:00 8.6 C 94 % 7.69 C
216 20-02-2016 17:55:00 8.6 C 95 % 7.85 C
217 20-02-2016 18:00:00 8.6 C 95 % 7.85 C
218 20-02-2016 18:05:00 8.6 C 95 % 7.85 C
219 20-02-2016 18:10:00 8.7 C 95 % 7.94 C
220 20-02-2016 18:15:00 8.7 C 95 % 7.94 C
221 20-02-2016 18:20:00 8.7 C 95 % 7.94 C
222 20-02-2016 18:25:00 8.7 C 95 % 7.94 C
223 20-02-2016 18:30:00 8.7 C 95 % 7.94 C
224 20-02-2016 18:35:00 8.7 C 95 % 7.94 C
225 20-02-2016 18:40:00 8.7 C 95 % 7.94 C
Sensor: Nr:Datum:Temp:Feuchte:Taupunkt:
Aussen-T/F 226 20-02-2016 18:45:00 8.8 C 96 % 8.2 C
227 20-02-2016 18:50:00 8.8 C 96 % 8.2 C
228 20-02-2016 18:55:00 8.8 C 96 % 8.2 C
229 20-02-2016 19:00:00 8.9 C 96 % 8.3 C
230 20-02-2016 19:05:00 8.9 C 96 % 8.3 C
231 20-02-2016 19:10:00 8.9 C 95 % 8.14 C
232 20-02-2016 19:15:00 8.9 C 95 % 8.14 C
233 20-02-2016 19:20:00 8.9 C 95 % 8.14 C
234 20-02-2016 19:25:00 8.9 C 95 % 8.14 C
235 20-02-2016 19:30:00 9 C 95 % 8.24 C
236 20-02-2016 19:35:00 9.1 C 95 % 8.34 C
237 20-02-2016 19:40:00 9.1 C 95 % 8.34 C
238 20-02-2016 19:45:00 9.1 C 95 % 8.34 C
239 20-02-2016 19:50:00 9.2 C 95 % 8.44 C
240 20-02-2016 19:55:00 9.2 C 95 % 8.44 C
241 20-02-2016 20:00:00 9.2 C 95 % 8.44 C
242 20-02-2016 20:05:00 9.2 C 95 % 8.44 C
243 20-02-2016 20:10:00 9.2 C 95 % 8.44 C
244 20-02-2016 20:15:00 9.3 C 95 % 8.54 C
245 20-02-2016 20:20:00 9.3 C 95 % 8.54 C
246 20-02-2016 20:25:00 9.3 C 95 % 8.54 C
247 20-02-2016 20:30:00 9.3 C 95 % 8.54 C
248 20-02-2016 20:35:00 9.4 C 95 % 8.64 C
249 20-02-2016 20:40:00 9.4 C 95 % 8.64 C
250 20-02-2016 20:45:00 9.5 C 95 % 8.74 C
Sensor: Nr:Datum:Temp:Feuchte:Taupunkt:
Aussen-T/F 251 20-02-2016 20:50:00 9.6 C 95 % 8.84 C
252 20-02-2016 20:55:00 9.7 C 95 % 8.94 C
253 20-02-2016 21:00:00 9.7 C 95 % 8.94 C
254 20-02-2016 21:05:00 9.7 C 95 % 8.94 C
255 20-02-2016 21:10:00 9.7 C 95 % 8.94 C
256 20-02-2016 21:15:00 9.8 C 94 % 8.88 C
257 20-02-2016 21:20:00 9.8 C 94 % 8.88 C
258 20-02-2016 21:25:00 9.9 C 94 % 8.98 C
259 20-02-2016 21:30:00 9.9 C 94 % 8.98 C
260 20-02-2016 21:35:00 10 C 94 % 9.08 C
261 20-02-2016 21:40:00 10.1 C 94 % 9.18 C
262 20-02-2016 21:45:00 10.2 C 93 % 9.12 C
263 20-02-2016 21:50:00 10.2 C 93 % 9.12 C
264 20-02-2016 21:55:00 10.3 C 93 % 9.22 C
265 20-02-2016 22:00:00 10.3 C 93 % 9.22 C
266 20-02-2016 22:05:00 10.4 C 93 % 9.32 C
267 20-02-2016 22:10:00 10.4 C 92 % 9.16 C
268 20-02-2016 22:15:00 10.4 C 92 % 9.16 C
269 20-02-2016 22:20:00 10.5 C 92 % 9.26 C
270 20-02-2016 22:25:00 10.6 C 92 % 9.36 C
271 20-02-2016 22:30:00 10.6 C 92 % 9.36 C
272 20-02-2016 22:35:00 10.6 C 92 % 9.36 C
273 20-02-2016 22:40:00 10.6 C 92 % 9.36 C
274 20-02-2016 22:45:00 10.6 C 92 % 9.36 C
275 20-02-2016 22:50:00 10.6 C 93 % 9.52 C
Sensor: Nr:Datum:Temp:Feuchte:Taupunkt:
Aussen-T/F 276 20-02-2016 22:55:00 10.6 C 93 % 9.52 C
277 20-02-2016 23:00:00 10.6 C 93 % 9.52 C
278 20-02-2016 23:05:00 10.7 C 93 % 9.62 C
279 20-02-2016 23:10:00 10.7 C 93 % 9.62 C
280 20-02-2016 23:15:00 10.7 C 93 % 9.62 C
281 20-02-2016 23:20:00 10.7 C 93 % 9.62 C
282 20-02-2016 23:25:00 10.7 C 93 % 9.62 C
283 20-02-2016 23:30:00 10.7 C 93 % 9.62 C
284 20-02-2016 23:35:00 10.8 C 93 % 9.71 C
285 20-02-2016 23:40:00 10.8 C 93 % 9.71 C
286 20-02-2016 23:45:00 10.8 C 93 % 9.71 C
287 20-02-2016 23:50:00 10.8 C 93 % 9.71 C
288 20-02-2016 23:55:00 10.8 C 93 % 9.71 C
289 21-02-2016 00:00:00 10.9 C 93 % 9.81 C
290 21-02-2016 00:05:00 10.9 C 93 % 9.81 C
291 21-02-2016 00:10:00 10.9 C 93 % 9.81 C
292 21-02-2016 00:15:00 10.9 C 93 % 9.81 C
293 21-02-2016 00:20:00 11 C 93 % 9.91 C
294 21-02-2016 00:25:00 11.1 C 93 % 10.01 C
295 21-02-2016 00:30:00 11.1 C 93 % 10.01 C
296 21-02-2016 00:35:00 11.1 C 93 % 10.01 C
297 21-02-2016 00:40:00 11.2 C 92 % 9.95 C
298 21-02-2016 00:45:00 11.2 C 92 % 9.95 C
299 21-02-2016 00:50:00 11.3 C 92 % 10.05 C
300 21-02-2016 00:55:00 11.3 C 92 % 10.05 C
Sensor: Nr:Datum:Temp:Feuchte:Taupunkt:
Aussen-T/F 301 21-02-2016 01:00:00 11.3 C 92 % 10.05 C
302 21-02-2016 01:05:00 11.4 C 92 % 10.15 C
303 21-02-2016 01:10:00 11.5 C 92 % 10.25 C
304 21-02-2016 01:15:00 11.5 C 92 % 10.25 C
305 21-02-2016 01:20:00 11.6 C 92 % 10.35 C
306 21-02-2016 01:25:00 11.6 C 92 % 10.35 C
307 21-02-2016 01:30:00 11.6 C 92 % 10.35 C
308 21-02-2016 01:35:00 11.6 C 92 % 10.35 C
309 21-02-2016 01:40:00 11.6 C 92 % 10.35 C
310 21-02-2016 01:45:00 11.6 C 93 % 10.51 C
311 21-02-2016 01:50:00 11.6 C 93 % 10.51 C
312 21-02-2016 01:55:00 11.5 C 93 % 10.41 C
313 21-02-2016 02:00:00 11.4 C 93 % 10.31 C
314 21-02-2016 02:05:00 11.4 C 94 % 10.47 C
315 21-02-2016 02:10:00 11.3 C 94 % 10.37 C
316 21-02-2016 02:15:00 11.3 C 94 % 10.37 C
317 21-02-2016 02:20:00 11.3 C 94 % 10.37 C
318 21-02-2016 02:25:00 11.3 C 94 % 10.37 C
319 21-02-2016 02:30:00 11.3 C 95 % 10.53 C
320 21-02-2016 02:35:00 11.3 C 95 % 10.53 C
321 21-02-2016 02:40:00 11.3 C 95 % 10.53 C
322 21-02-2016 02:45:00 11.3 C 95 % 10.53 C
323 21-02-2016 02:50:00 11.3 C 95 % 10.53 C
324 21-02-2016 02:55:00 11.3 C 95 % 10.53 C
325 21-02-2016 03:00:00 11.4 C 95 % 10.63 C
Sensor: Nr:Datum:Temp:Feuchte:Taupunkt:
Aussen-T/F 326 21-02-2016 03:05:00 11.4 C 95 % 10.63 C
327 21-02-2016 03:10:00 11.4 C 95 % 10.63 C
328 21-02-2016 03:15:00 11.4 C 95 % 10.63 C
329 21-02-2016 03:20:00 11.4 C 95 % 10.63 C
330 21-02-2016 03:25:00 11.4 C 95 % 10.63 C
331 21-02-2016 03:30:00 11.3 C 95 % 10.53 C
332 21-02-2016 03:35:00 11.3 C 95 % 10.53 C
333 21-02-2016 03:40:00 11.3 C 95 % 10.53 C
334 21-02-2016 03:45:00 11.3 C 95 % 10.53 C
335 21-02-2016 03:50:00 11.2 C 94 % 10.27 C
336 21-02-2016 03:55:00 11.2 C 94 % 10.27 C
337 21-02-2016 04:00:00 11.2 C 94 % 10.27 C
338 21-02-2016 04:05:00 11.2 C 93 % 10.11 C
339 21-02-2016 04:10:00 11.2 C 94 % 10.27 C
340 21-02-2016 04:15:00 11.1 C 93 % 10.01 C
341 21-02-2016 04:20:00 11.1 C 93 % 10.01 C
342 21-02-2016 04:25:00 11.1 C 93 % 10.01 C
343 21-02-2016 04:30:00 11.1 C 93 % 10.01 C
344 21-02-2016 04:35:00 11 C 93 % 9.91 C
345 21-02-2016 04:40:00 11.1 C 93 % 10.01 C
346 21-02-2016 04:45:00 11.1 C 92 % 9.85 C
347 21-02-2016 04:50:00 11.2 C 92 % 9.95 C
348 21-02-2016 04:55:00 11.2 C 91 % 9.79 C
349 21-02-2016 05:00:00 11.2 C 91 % 9.79 C
350 21-02-2016 05:05:00 11.2 C 91 % 9.79 C
Sensor: Nr:Datum:Temp:Feuchte:Taupunkt:
Aussen-T/F 351 21-02-2016 05:10:00 11.2 C 91 % 9.79 C
352 21-02-2016 05:15:00 11.2 C 91 % 9.79 C
353 21-02-2016 05:20:00 11.3 C 90 % 9.72 C
354 21-02-2016 05:25:00 11.3 C 90 % 9.72 C
355 21-02-2016 05:30:00 11.3 C 90 % 9.72 C
356 21-02-2016 05:35:00 11.3 C 91 % 9.89 C
357 21-02-2016 05:40:00 11.3 C 91 % 9.89 C
358 21-02-2016 05:45:00 11.2 C 91 % 9.79 C
359 21-02-2016 05:50:00 11.2 C 91 % 9.79 C
360 21-02-2016 05:55:00 11.2 C 91 % 9.79 C
361 21-02-2016 06:00:00 11.2 C 90 % 9.62 C
362 21-02-2016 06:05:00 11.2 C 90 % 9.62 C
363 21-02-2016 06:10:00 11.2 C 90 % 9.62 C
364 21-02-2016 06:15:00 11.2 C 90 % 9.62 C
365 21-02-2016 06:20:00 11.2 C 90 % 9.62 C
366 21-02-2016 06:25:00 11.2 C 90 % 9.62 C
367 21-02-2016 06:30:00 11.2 C 90 % 9.62 C
368 21-02-2016 06:35:00 11.3 C 90 % 9.72 C
369 21-02-2016 06:40:00 11.3 C 89 % 9.55 C
370 21-02-2016 06:45:00 11.3 C 89 % 9.55 C
371 21-02-2016 06:50:00 11.2 C 90 % 9.62 C
372 21-02-2016 06:55:00 11.2 C 90 % 9.62 C
373 21-02-2016 07:00:00 11.2 C 90 % 9.62 C
374 21-02-2016 07:05:00 11.2 C 90 % 9.62 C
375 21-02-2016 07:10:00 11.2 C 90 % 9.62 C
Sensor: Nr:Datum:Temp:Feuchte:Taupunkt:
Aussen-T/F 376 21-02-2016 07:15:00 11.2 C 89 % 9.46 C
377 21-02-2016 07:20:00 11.2 C 89 % 9.46 C
378 21-02-2016 07:25:00 11.2 C 89 % 9.46 C
379 21-02-2016 07:30:00 11.2 C 89 % 9.46 C
380 21-02-2016 07:35:00 11.2 C 89 % 9.46 C
381 21-02-2016 07:40:00 11.2 C 90 % 9.62 C
382 21-02-2016 07:45:00 11.2 C 90 % 9.62 C
383 21-02-2016 07:50:00 11.2 C 90 % 9.62 C
384 21-02-2016 07:55:00 11.2 C 90 % 9.62 C
385 21-02-2016 08:00:00 11.2 C 90 % 9.62 C
386 21-02-2016 08:05:00 11.2 C 90 % 9.62 C
387 21-02-2016 08:10:00 11.2 C 90 % 9.62 C
388 21-02-2016 08:15:00 11.2 C 90 % 9.62 C
389 21-02-2016 08:20:00 11.2 C 90 % 9.62 C
390 21-02-2016 08:25:00 11.3 C 90 % 9.72 C
391 21-02-2016 08:30:00 11.3 C 90 % 9.72 C
392 21-02-2016 08:35:00 11.3 C 90 % 9.72 C
393 21-02-2016 08:40:00 11.3 C 90 % 9.72 C
394 21-02-2016 08:45:00 11.3 C 90 % 9.72 C
395 21-02-2016 08:50:00 11.3 C 91 % 9.89 C
396 21-02-2016 08:55:00 11.3 C 90 % 9.72 C
397 21-02-2016 09:00:00 11.3 C 91 % 9.89 C
398 21-02-2016 09:05:00 11.4 C 91 % 9.98 C
399 21-02-2016 09:10:00 11.5 C 90 % 9.92 C
400 21-02-2016 09:15:00 11.6 C 90 % 10.02 C
Sensor: Nr:Datum:Temp:Feuchte:Taupunkt:
Aussen-T/F 401 21-02-2016 09:20:00 11.7 C 90 % 10.12 C
402 21-02-2016 09:25:00 11.7 C 89 % 9.95 C
403 21-02-2016 09:30:00 11.8 C 89 % 10.05 C
404 21-02-2016 09:35:00 11.8 C 89 % 10.05 C
405 21-02-2016 09:40:00 11.8 C 89 % 10.05 C
406 21-02-2016 09:45:00 11.8 C 90 % 10.21 C
407 21-02-2016 09:50:00 11.8 C 90 % 10.21 C
408 21-02-2016 09:55:00 11.9 C 90 % 10.31 C
409 21-02-2016 10:00:00 11.9 C 90 % 10.31 C
410 21-02-2016 10:05:00 12 C 89 % 10.25 C
411 21-02-2016 10:10:00 12.1 C 89 % 10.34 C
412 21-02-2016 10:15:00 12.2 C 89 % 10.44 C
413 21-02-2016 10:20:00 12.3 C 88 % 10.37 C
414 21-02-2016 10:25:00 12.3 C 88 % 10.37 C
415 21-02-2016 10:30:00 12.4 C 88 % 10.47 C
416 21-02-2016 10:35:00 12.5 C 88 % 10.57 C
417 21-02-2016 10:40:00 12.6 C 88 % 10.67 C
418 21-02-2016 10:45:00 12.6 C 87 % 10.5 C
419 21-02-2016 10:50:00 12.7 C 87 % 10.59 C
420 21-02-2016 10:55:00 12.7 C 87 % 10.59 C
421 21-02-2016 11:00:00 12.7 C 88 % 10.77 C
422 21-02-2016 11:05:00 12.6 C 88 % 10.67 C
423 21-02-2016 11:10:00 12.6 C 87 % 10.5 C
424 21-02-2016 11:15:00 12.7 C 88 % 10.77 C
425 21-02-2016 11:20:00 12.8 C 87 % 10.69 C
Sensor: Nr:Datum:Temp:Feuchte:Taupunkt:
Aussen-T/F 426 21-02-2016 11:25:00 12.8 C 87 % 10.69 C
427 21-02-2016 11:30:00 12.9 C 87 % 10.79 C
428 21-02-2016 11:35:00 13.1 C 86 % 10.81 C
429 21-02-2016 11:40:00 13.1 C 86 % 10.81 C
430 21-02-2016 11:45:00 13.1 C 86 % 10.81 C
431 21-02-2016 11:50:00 13.2 C 86 % 10.91 C
432 21-02-2016 11:55:00 13.3 C 85 % 10.83 C
433 21-02-2016 12:00:00 13.2 C 85 % 10.74 C
434 21-02-2016 12:05:00 13.3 C 86 % 11.01 C
435 21-02-2016 12:10:00 13.3 C 85 % 10.83 C
436 21-02-2016 12:15:00 13.3 C 85 % 10.83 C
437 21-02-2016 12:20:00 13.3 C 85 % 10.83 C
438 21-02-2016 12:25:00 13.2 C 84 % 10.56 C
439 21-02-2016 12:30:00 13.2 C 85 % 10.74 C
440 21-02-2016 12:35:00 13.2 C 84 % 10.56 C
441 21-02-2016 12:40:00 13.2 C 85 % 10.74 C
442 21-02-2016 12:45:00 13.3 C 84 % 10.66 C
443 21-02-2016 12:50:00 13.3 C 84 % 10.66 C
444 21-02-2016 12:55:00 13.5 C 84 % 10.85 C
445 21-02-2016 13:00:00 13.5 C 84 % 10.85 C
446 21-02-2016 13:05:00 13.5 C 83 % 10.67 C
447 21-02-2016 13:10:00 13.6 C 83 % 10.77 C
448 21-02-2016 13:15:00 13.5 C 83 % 10.67 C
449 21-02-2016 13:20:00 13.4 C 84 % 10.75 C
450 21-02-2016 13:25:00 13.4 C 83 % 10.57 C
Sensor: Nr:Datum:Temp:Feuchte:Taupunkt:
Aussen-T/F 451 21-02-2016 13:30:00 13.3 C 83 % 10.48 C
452 21-02-2016 13:35:00 13.3 C 84 % 10.66 C
453 21-02-2016 13:40:00 13.4 C 84 % 10.75 C
454 21-02-2016 13:45:00 13.4 C 84 % 10.75 C
455 21-02-2016 13:50:00 13.4 C 84 % 10.75 C
456 21-02-2016 13:55:00 13.4 C 84 % 10.75 C
457 21-02-2016 14:00:00 13.3 C 84 % 10.66 C
458 21-02-2016 14:05:00 13.2 C 84 % 10.56 C
459 21-02-2016 14:10:00 13.2 C 84 % 10.56 C
460 21-02-2016 14:15:00 13.2 C 84 % 10.56 C
461 21-02-2016 14:20:00 13.2 C 84 % 10.56 C
462 21-02-2016 14:25:00 13.2 C 84 % 10.56 C
463 21-02-2016 14:30:00 13.2 C 83 % 10.38 C
464 21-02-2016 14:35:00 13.2 C 83 % 10.38 C
465 21-02-2016 14:40:00 13.3 C 83 % 10.48 C
466 21-02-2016 14:45:00 13.3 C 83 % 10.48 C
467 21-02-2016 14:50:00 13.3 C 83 % 10.48 C
468 21-02-2016 14:55:00 13.3 C 83 % 10.48 C
469 21-02-2016 15:00:00 13.2 C 83 % 10.38 C
470 21-02-2016 15:05:00 13.2 C 83 % 10.38 C
471 21-02-2016 15:10:00 13.3 C 83 % 10.48 C
472 21-02-2016 15:15:00 13.3 C 82 % 10.3 C
473 21-02-2016 15:20:00 13.2 C 82 % 10.2 C
474 21-02-2016 15:25:00 13.2 C 83 % 10.38 C
475 21-02-2016 15:30:00 13.1 C 83 % 10.28 C
Sensor: Nr:Datum:Temp:Feuchte:Taupunkt:
Aussen-T/F 476 21-02-2016 15:35:00 13.1 C 83 % 10.28 C
477 21-02-2016 15:40:00 13 C 83 % 10.18 C
478 21-02-2016 15:45:00 13 C 84 % 10.36 C
479 21-02-2016 15:50:00 12.9 C 83 % 10.09 C
480 21-02-2016 15:55:00 12.9 C 84 % 10.26 C
481 21-02-2016 16:00:00 12.9 C 84 % 10.26 C
482 21-02-2016 16:05:00 12.8 C 83 % 9.99 C
483 21-02-2016 16:10:00 12.8 C 84 % 10.17 C
484 21-02-2016 16:15:00 12.7 C 84 % 10.07 C
485 21-02-2016 16:20:00 12.7 C 84 % 10.07 C
486 21-02-2016 16:25:00 12.7 C 84 % 10.07 C
487 21-02-2016 16:30:00 12.6 C 84 % 9.97 C
488 21-02-2016 16:35:00 12.6 C 84 % 9.97 C
489 21-02-2016 16:40:00 12.4 C 85 % 9.95 C
490 21-02-2016 16:45:00 12.4 C 85 % 9.95 C
491 21-02-2016 16:50:00 12.4 C 85 % 9.95 C
492 21-02-2016 16:55:00 12.3 C 85 % 9.85 C
493 21-02-2016 17:00:00 12.3 C 85 % 9.85 C
494 21-02-2016 17:05:00 12.2 C 86 % 9.93 C
495 21-02-2016 17:10:00 12.2 C 86 % 9.93 C
496 21-02-2016 17:15:00 12.1 C 86 % 9.83 C
497 21-02-2016 17:20:00 12.1 C 86 % 9.83 C
498 21-02-2016 17:25:00 12.1 C 86 % 9.83 C
499 21-02-2016 17:30:00 12.1 C 86 % 9.83 C
500 21-02-2016 17:35:00 12.1 C 86 % 9.83 C
Sensor: Nr:Datum:Temp:Feuchte:Taupunkt:
Aussen-T/F 501 21-02-2016 17:40:00 12 C 86 % 9.73 C
502 21-02-2016 17:45:00 11.9 C 86 % 9.64 C
503 21-02-2016 17:50:00 11.9 C 87 % 9.81 C
504 21-02-2016 17:55:00 11.9 C 87 % 9.81 C
505 21-02-2016 18:00:00 11.8 C 87 % 9.71 C
506 21-02-2016 18:05:00 11.8 C 87 % 9.71 C
507 21-02-2016 18:10:00 11.8 C 87 % 9.71 C
508 21-02-2016 18:15:00 11.8 C 87 % 9.71 C
509 21-02-2016 18:20:00 11.8 C 87 % 9.71 C
510 21-02-2016 18:25:00 11.8 C 87 % 9.71 C
511 21-02-2016 18:30:00 11.8 C 87 % 9.71 C
512 21-02-2016 18:35:00 11.8 C 87 % 9.71 C
513 21-02-2016 18:40:00 11.8 C 87 % 9.71 C
514 21-02-2016 18:45:00 11.7 C 87 % 9.61 C
515 21-02-2016 18:50:00 11.7 C 87 % 9.61 C
516 21-02-2016 18:55:00 11.6 C 87 % 9.51 C
517 21-02-2016 19:00:00 11.6 C 88 % 9.68 C
518 21-02-2016 19:05:00 11.6 C 87 % 9.51 C
519 21-02-2016 19:10:00 11.5 C 87 % 9.41 C
520 21-02-2016 19:15:00 11.6 C 87 % 9.51 C
521 21-02-2016 19:20:00 11.5 C 87 % 9.41 C
522 21-02-2016 19:25:00 11.6 C 87 % 9.51 C
523 21-02-2016 19:30:00 11.5 C 87 % 9.41 C
524 21-02-2016 19:35:00 11.5 C 87 % 9.41 C
525 21-02-2016 19:40:00 11.5 C 87 % 9.41 C
Sensor: Nr:Datum:Temp:Feuchte:Taupunkt:
Aussen-T/F 526 21-02-2016 19:45:00 11.5 C 87 % 9.41 C
527 21-02-2016 19:50:00 11.5 C 87 % 9.41 C
528 21-02-2016 19:55:00 11.5 C 87 % 9.41 C
529 21-02-2016 20:00:00 11.6 C 87 % 9.51 C
530 21-02-2016 20:05:00 11.5 C 87 % 9.41 C
531 21-02-2016 20:10:00 11.4 C 87 % 9.32 C
532 21-02-2016 20:15:00 11.4 C 87 % 9.32 C
533 21-02-2016 20:20:00 11.4 C 87 % 9.32 C
534 21-02-2016 20:25:00 11.4 C 87 % 9.32 C
535 21-02-2016 20:30:00 11.4 C 87 % 9.32 C
536 21-02-2016 20:35:00 11.4 C 87 % 9.32 C
537 21-02-2016 20:40:00 11.4 C 87 % 9.32 C
538 21-02-2016 20:45:00 11.3 C 87 % 9.22 C
539 21-02-2016 20:50:00 11.3 C 87 % 9.22 C
540 21-02-2016 20:55:00 11.3 C 87 % 9.22 C
541 21-02-2016 21:00:00 11.3 C 87 % 9.22 C
542 21-02-2016 21:05:00 11.3 C 87 % 9.22 C
543 21-02-2016 21:10:00 11.3 C 87 % 9.22 C
544 21-02-2016 21:15:00 11.3 C 87 % 9.22 C
545 21-02-2016 21:20:00 11.3 C 87 % 9.22 C
546 21-02-2016 21:25:00 11.3 C 87 % 9.22 C
547 21-02-2016 21:30:00 11.3 C 87 % 9.22 C
548 21-02-2016 21:35:00 11.3 C 87 % 9.22 C
549 21-02-2016 21:40:00 11.3 C 87 % 9.22 C
550 21-02-2016 21:45:00 11.3 C 86 % 9.05 C
Sensor: Nr:Datum:Temp:Feuchte:Taupunkt:
Aussen-T/F 551 21-02-2016 21:50:00 11.3 C 86 % 9.05 C
552 21-02-2016 21:55:00 11.3 C 86 % 9.05 C
553 21-02-2016 22:00:00 11.2 C 86 % 8.95 C
554 21-02-2016 22:05:00 11.2 C 86 % 8.95 C
555 21-02-2016 22:10:00 11.2 C 86 % 8.95 C
556 21-02-2016 22:15:00 11.1 C 86 % 8.85 C
557 21-02-2016 22:20:00 11.1 C 86 % 8.85 C
558 21-02-2016 22:25:00 11.1 C 85 % 8.68 C
559 21-02-2016 22:30:00 11.1 C 85 % 8.68 C
560 21-02-2016 22:35:00 11.1 C 85 % 8.68 C
561 21-02-2016 22:40:00 11.1 C 85 % 8.68 C
562 21-02-2016 22:45:00 11.1 C 85 % 8.68 C
563 21-02-2016 22:50:00 11.1 C 84 % 8.5 C
564 21-02-2016 22:55:00 11.1 C 84 % 8.5 C
565 21-02-2016 23:00:00 11.1 C 84 % 8.5 C
566 21-02-2016 23:05:00 11.1 C 85 % 8.68 C
567 21-02-2016 23:10:00 11.1 C 85 % 8.68 C
568 21-02-2016 23:15:00 11 C 85 % 8.58 C
569 21-02-2016 23:20:00 11 C 85 % 8.58 C
570 21-02-2016 23:25:00 10.9 C 85 % 8.48 C
571 21-02-2016 23:30:00 10.9 C 85 % 8.48 C
572 21-02-2016 23:35:00 10.9 C 84 % 8.31 C
573 21-02-2016 23:40:00 10.9 C 84 % 8.31 C
574 21-02-2016 23:45:00 10.9 C 84 % 8.31 C
575 21-02-2016 23:50:00 10.9 C 83 % 8.13 C
Sensor: Nr:Datum:Temp:Feuchte:Taupunkt:
Aussen-T/F 576 21-02-2016 23:55:00 11 C 83 % 8.23 C
577 22-02-2016 00:00:00 11 C 82 % 8.05 C
578 22-02-2016 00:05:00 11 C 82 % 8.05 C
579 22-02-2016 00:10:00 11 C 82 % 8.05 C
580 22-02-2016 00:15:00 11 C 82 % 8.05 C
581 22-02-2016 00:20:00 11 C 82 % 8.05 C
582 22-02-2016 00:25:00 11 C 82 % 8.05 C
583 22-02-2016 00:30:00 11 C 82 % 8.05 C
584 22-02-2016 00:35:00 11 C 82 % 8.05 C
585 22-02-2016 00:40:00 10.9 C 82 % 7.95 C
586 22-02-2016 00:45:00 10.9 C 82 % 7.95 C
587 22-02-2016 00:50:00 10.9 C 82 % 7.95 C
588 22-02-2016 00:55:00 10.9 C 82 % 7.95 C
589 22-02-2016 01:00:00 10.9 C 82 % 7.95 C
590 22-02-2016 01:05:00 10.9 C 81 % 7.77 C
591 22-02-2016 01:10:00 10.9 C 81 % 7.77 C
592 22-02-2016 01:15:00 10.8 C 81 % 7.67 C
593 22-02-2016 01:20:00 10.8 C 81 % 7.67 C
594 22-02-2016 01:25:00 10.8 C 81 % 7.67 C
595 22-02-2016 01:30:00 10.8 C 81 % 7.67 C
596 22-02-2016 01:35:00 10.8 C 81 % 7.67 C
597 22-02-2016 01:40:00 10.8 C 81 % 7.67 C
598 22-02-2016 01:45:00 10.8 C 81 % 7.67 C
599 22-02-2016 01:50:00 10.8 C 81 % 7.67 C
600 22-02-2016 01:55:00 10.7 C 81 % 7.58 C
Sensor: Nr:Datum:Temp:Feuchte:Taupunkt:
Aussen-T/F 601 22-02-2016 02:00:00 10.7 C 81 % 7.58 C
602 22-02-2016 02:05:00 10.7 C 81 % 7.58 C
603 22-02-2016 02:10:00 10.7 C 81 % 7.58 C
604 22-02-2016 02:15:00 10.7 C 81 % 7.58 C
605 22-02-2016 02:20:00 10.7 C 81 % 7.58 C
606 22-02-2016 02:25:00 10.7 C 81 % 7.58 C
607 22-02-2016 02:30:00 10.7 C 81 % 7.58 C
608 22-02-2016 02:35:00 10.6 C 81 % 7.48 C
609 22-02-2016 02:40:00 10.6 C 81 % 7.48 C
610 22-02-2016 02:45:00 10.5 C 81 % 7.38 C
611 22-02-2016 02:50:00 10.4 C 81 % 7.28 C
612 22-02-2016 02:55:00 10.4 C 82 % 7.46 C
613 22-02-2016 03:00:00 10.4 C 82 % 7.46 C
614 22-02-2016 03:05:00 10.4 C 82 % 7.46 C
615 22-02-2016 03:10:00 10.3 C 81 % 7.19 C
616 22-02-2016 03:15:00 10.3 C 82 % 7.37 C
617 22-02-2016 03:20:00 10.3 C 82 % 7.37 C
618 22-02-2016 03:25:00 10.3 C 81 % 7.19 C
619 22-02-2016 03:30:00 10.3 C 81 % 7.19 C
620 22-02-2016 03:35:00 10.3 C 81 % 7.19 C
621 22-02-2016 03:40:00 10.2 C 82 % 7.27 C
622 22-02-2016 03:45:00 10.2 C 82 % 7.27 C
623 22-02-2016 03:50:00 10.2 C 81 % 7.09 C
624 22-02-2016 03:55:00 10.2 C 82 % 7.27 C
625 22-02-2016 04:00:00 10.2 C 82 % 7.27 C
Sensor: Nr:Datum:Temp:Feuchte:Taupunkt:
Aussen-T/F 626 22-02-2016 04:05:00 10.3 C 81 % 7.19 C
627 22-02-2016 04:10:00 10.3 C 81 % 7.19 C
628 22-02-2016 04:15:00 10.3 C 81 % 7.19 C
629 22-02-2016 04:20:00 10.3 C 81 % 7.19 C
630 22-02-2016 04:25:00 10.3 C 81 % 7.19 C
631 22-02-2016 04:30:00 10.3 C 81 % 7.19 C
632 22-02-2016 04:35:00 10.2 C 81 % 7.09 C
633 22-02-2016 04:40:00 10.2 C 81 % 7.09 C
634 22-02-2016 04:45:00 10.3 C 81 % 7.19 C
635 22-02-2016 04:50:00 10.3 C 81 % 7.19 C
636 22-02-2016 04:55:00 10.4 C 81 % 7.28 C
637 22-02-2016 05:00:00 10.4 C 81 % 7.28 C
638 22-02-2016 05:05:00 10.3 C 81 % 7.19 C
639 22-02-2016 05:10:00 10.3 C 81 % 7.19 C
640 22-02-2016 05:15:00 10.3 C 81 % 7.19 C
641 22-02-2016 05:20:00 10.2 C 81 % 7.09 C
642 22-02-2016 05:25:00 10.3 C 81 % 7.19 C
643 22-02-2016 05:30:00 10.3 C 81 % 7.19 C
644 22-02-2016 05:35:00 10.3 C 81 % 7.19 C
645 22-02-2016 05:40:00 10.3 C 81 % 7.19 C
646 22-02-2016 05:45:00 10.3 C 81 % 7.19 C
647 22-02-2016 05:50:00 10.3 C 81 % 7.19 C
648 22-02-2016 05:55:00 10.2 C 81 % 7.09 C
649 22-02-2016 06:00:00 10.3 C 81 % 7.19 C
650 22-02-2016 06:05:00 10.3 C 81 % 7.19 C
Sensor: Nr:Datum:Temp:Feuchte:Taupunkt:
Aussen-T/F 651 22-02-2016 06:10:00 10.3 C 81 % 7.19 C
652 22-02-2016 06:15:00 10.3 C 81 % 7.19 C
653 22-02-2016 06:20:00 10.3 C 81 % 7.19 C
654 22-02-2016 06:25:00 10.2 C 81 % 7.09 C
655 22-02-2016 06:30:00 10.2 C 81 % 7.09 C
656 22-02-2016 06:35:00 10.2 C 81 % 7.09 C
657 22-02-2016 06:40:00 10.2 C 81 % 7.09 C
658 22-02-2016 06:45:00 10.2 C 81 % 7.09 C
659 22-02-2016 06:50:00 10.2 C 81 % 7.09 C
660 22-02-2016 06:55:00 10.2 C 81 % 7.09 C
661 22-02-2016 07:00:00 10.2 C 81 % 7.09 C
662 22-02-2016 07:05:00 10.2 C 81 % 7.09 C
663 22-02-2016 07:10:00 10.1 C 82 % 7.17 C
664 22-02-2016 07:15:00 10.1 C 82 % 7.17 C
665 22-02-2016 07:20:00 10.1 C 82 % 7.17 C
666 22-02-2016 07:25:00 10 C 82 % 7.07 C
667 22-02-2016 07:30:00 10.1 C 82 % 7.17 C
668 22-02-2016 07:35:00 10.1 C 82 % 7.17 C
669 22-02-2016 07:40:00 10 C 82 % 7.07 C
670 22-02-2016 07:45:00 9.9 C 82 % 6.98 C
671 22-02-2016 07:50:00 9.9 C 82 % 6.98 C
672 22-02-2016 07:55:00 9.9 C 83 % 7.15 C
673 22-02-2016 08:00:00 9.8 C 83 % 7.05 C
674 22-02-2016 08:05:00 9.8 C 83 % 7.05 C
675 22-02-2016 08:10:00 9.8 C 83 % 7.05 C
Sensor: Nr:Datum:Temp:Feuchte:Taupunkt:
Aussen-T/F 676 22-02-2016 08:15:00 9.7 C 83 % 6.96 C
677 22-02-2016 08:20:00 9.7 C 83 % 6.96 C
678 22-02-2016 08:25:00 9.7 C 83 % 6.96 C
679 22-02-2016 08:30:00 9.8 C 83 % 7.05 C
680 22-02-2016 08:35:00 9.8 C 83 % 7.05 C
681 22-02-2016 08:40:00 9.9 C 82 % 6.98 C
682 22-02-2016 08:45:00 10 C 82 % 7.07 C
683 22-02-2016 08:50:00 10.1 C 82 % 7.17 C
684 22-02-2016 08:55:00 10.1 C 82 % 7.17 C
685 22-02-2016 09:00:00 10.1 C 82 % 7.17 C
686 22-02-2016 09:05:00 10.1 C 82 % 7.17 C
687 22-02-2016 09:10:00 10.1 C 82 % 7.17 C
688 22-02-2016 09:15:00 10.1 C 82 % 7.17 C
689 22-02-2016 09:20:00 10 C 82 % 7.07 C
690 22-02-2016 09:25:00 9.9 C 83 % 7.15 C
691 22-02-2016 09:30:00 9.9 C 83 % 7.15 C
692 22-02-2016 09:35:00 9.9 C 83 % 7.15 C
693 22-02-2016 09:40:00 10 C 83 % 7.25 C
694 22-02-2016 09:45:00 10 C 83 % 7.25 C
695 22-02-2016 09:50:00 10.1 C 83 % 7.35 C
696 22-02-2016 09:55:00 10.1 C 83 % 7.35 C
697 22-02-2016 10:00:00 10.2 C 84 % 7.62 C
698 22-02-2016 10:05:00 10.2 C 83 % 7.45 C
699 22-02-2016 10:10:00 10.2 C 84 % 7.62 C
700 22-02-2016 10:15:00 10.3 C 84 % 7.72 C
Sensor: Nr:Datum:Temp:Feuchte:Taupunkt:
Aussen-T/F 701 22-02-2016 10:20:00 10.3 C 84 % 7.72 C
702 22-02-2016 10:25:00 10.2 C 84 % 7.62 C
703 22-02-2016 10:30:00 10.2 C 84 % 7.62 C
704 22-02-2016 10:35:00 10.2 C 84 % 7.62 C
705 22-02-2016 10:40:00 10.2 C 85 % 7.79 C
706 22-02-2016 10:45:00 10.2 C 84 % 7.62 C
707 22-02-2016 10:50:00 10.1 C 85 % 7.7 C
708 22-02-2016 10:55:00 10.2 C 85 % 7.79 C
709 22-02-2016 11:00:00 10.2 C 84 % 7.62 C
710 22-02-2016 11:05:00 10.3 C 85 % 7.89 C
711 22-02-2016 11:10:00 10.4 C 85 % 7.99 C
712 22-02-2016 11:15:00 10.4 C 84 % 7.82 C
713 22-02-2016 11:20:00 10.4 C 84 % 7.82 C
714 22-02-2016 11:25:00 10.6 C 84 % 8.01 C
715 22-02-2016 11:30:00 10.6 C 83 % 7.84 C
716 22-02-2016 11:35:00 10.7 C 83 % 7.93 C
717 22-02-2016 11:40:00 10.7 C 83 % 7.93 C
718 22-02-2016 11:45:00 10.7 C 83 % 7.93 C
719 22-02-2016 11:50:00 10.7 C 83 % 7.93 C
720 22-02-2016 11:55:00 10.8 C 83 % 8.03 C
721 22-02-2016 12:00:00 10.8 C 82 % 7.85 C
722 22-02-2016 12:05:00 10.8 C 82 % 7.85 C
723 22-02-2016 12:10:00 10.9 C 82 % 7.95 C
724 22-02-2016 12:15:00 10.9 C 82 % 7.95 C
725 22-02-2016 12:20:00 11 C 82 % 8.05 C
Sensor: Nr:Datum:Temp:Feuchte:Taupunkt:
Aussen-T/F 726 22-02-2016 12:25:00 11.1 C 82 % 8.15 C
727 22-02-2016 12:30:00 11.2 C 81 % 8.06 C
728 22-02-2016 12:35:00 11.2 C 81 % 8.06 C
729 22-02-2016 12:40:00 11.3 C 82 % 8.34 C
730 22-02-2016 12:45:00 11.3 C 82 % 8.34 C
731 22-02-2016 12:50:00 11.3 C 81 % 8.16 C
732 22-02-2016 12:55:00 11.3 C 82 % 8.34 C
733 22-02-2016 13:00:00 11.3 C 82 % 8.34 C
734 22-02-2016 13:05:00 11.3 C 82 % 8.34 C
735 22-02-2016 13:10:00 11.4 C 82 % 8.44 C
736 22-02-2016 13:15:00 11.4 C 82 % 8.44 C
737 22-02-2016 13:20:00 11.4 C 82 % 8.44 C
738 22-02-2016 13:25:00 11.4 C 82 % 8.44 C
739 22-02-2016 13:30:00 11.4 C 82 % 8.44 C
740 22-02-2016 13:35:00 11.4 C 82 % 8.44 C
741 22-02-2016 13:40:00 11.6 C 82 % 8.64 C
742 22-02-2016 13:45:00 11.8 C 81 % 8.65 C
743 22-02-2016 13:50:00 11.9 C 81 % 8.75 C
744 22-02-2016 13:55:00 11.9 C 81 % 8.75 C
745 22-02-2016 14:00:00 11.8 C 81 % 8.65 C
746 22-02-2016 14:05:00 11.8 C 82 % 8.83 C
747 22-02-2016 14:10:00 11.8 C 82 % 8.83 C
748 22-02-2016 14:15:00 11.8 C 82 % 8.83 C
749 22-02-2016 14:20:00 11.8 C 82 % 8.83 C
750 22-02-2016 14:25:00 11.7 C 83 % 8.91 C
Sensor: Nr:Datum:Temp:Feuchte:Taupunkt:
Aussen-T/F 751 22-02-2016 14:30:00 11.6 C 83 % 8.81 C
752 22-02-2016 14:35:00 11.6 C 84 % 8.99 C
753 22-02-2016 14:40:00 11.7 C 84 % 9.09 C
754 22-02-2016 14:45:00 11.7 C 83 % 8.91 C
755 22-02-2016 14:50:00 11.6 C 84 % 8.99 C
756 22-02-2016 14:55:00 11.6 C 84 % 8.99 C
757 22-02-2016 15:00:00 11.6 C 84 % 8.99 C
758 22-02-2016 15:05:00 11.4 C 84 % 8.8 C
759 22-02-2016 15:10:00 11.4 C 85 % 8.97 C
760 22-02-2016 15:15:00 11.3 C 85 % 8.87 C
761 22-02-2016 15:20:00 11.2 C 86 % 8.95 C
762 22-02-2016 15:25:00 11.3 C 86 % 9.05 C
763 22-02-2016 15:30:00 11.3 C 86 % 9.05 C
764 22-02-2016 15:35:00 11.2 C 86 % 8.95 C
765 22-02-2016 15:40:00 11.1 C 86 % 8.85 C
766 22-02-2016 15:45:00 11.1 C 87 % 9.02 C
767 22-02-2016 15:50:00 11 C 87 % 8.92 C
768 22-02-2016 15:55:00 10.9 C 87 % 8.82 C
769 22-02-2016 16:00:00 10.9 C 87 % 8.82 C
770 22-02-2016 16:05:00 10.8 C 88 % 8.89 C
771 22-02-2016 16:10:00 10.8 C 88 % 8.89 C
772 22-02-2016 16:15:00 10.8 C 88 % 8.89 C
773 22-02-2016 16:20:00 10.8 C 88 % 8.89 C
774 22-02-2016 16:25:00 10.8 C 87 % 8.73 C
775 22-02-2016 16:30:00 10.8 C 87 % 8.73 C
Sensor: Nr:Datum:Temp:Feuchte:Taupunkt:
Aussen-T/F 776 22-02-2016 16:35:00 10.8 C 87 % 8.73 C
777 22-02-2016 16:40:00 10.8 C 87 % 8.73 C
778 22-02-2016 16:45:00 10.8 C 87 % 8.73 C
779 22-02-2016 16:50:00 10.8 C 87 % 8.73 C
780 22-02-2016 16:55:00 10.8 C 87 % 8.73 C
781 22-02-2016 17:00:00 10.8 C 87 % 8.73 C
782 22-02-2016 17:05:00 10.7 C 87 % 8.63 C
783 22-02-2016 17:10:00 10.7 C 87 % 8.63 C
784 22-02-2016 17:15:00 10.7 C 87 % 8.63 C
785 22-02-2016 17:20:00 10.7 C 87 % 8.63 C
786 22-02-2016 17:25:00 10.6 C 87 % 8.53 C
787 22-02-2016 17:30:00 10.6 C 87 % 8.53 C
788 22-02-2016 17:35:00 10.6 C 88 % 8.7 C
789 22-02-2016 17:40:00 10.5 C 88 % 8.6 C
790 22-02-2016 17:45:00 10.4 C 88 % 8.5 C
791 22-02-2016 17:50:00 10.4 C 88 % 8.5 C
792 22-02-2016 17:55:00 10.4 C 88 % 8.5 C
793 22-02-2016 18:00:00 10.4 C 89 % 8.67 C
794 22-02-2016 18:05:00 10.3 C 89 % 8.57 C
795 22-02-2016 18:10:00 10.3 C 89 % 8.57 C
796 22-02-2016 18:15:00 10.3 C 89 % 8.57 C
797 22-02-2016 18:20:00 10.3 C 88 % 8.4 C
798 22-02-2016 18:25:00 10.3 C 88 % 8.4 C
799 22-02-2016 18:30:00 10.3 C 88 % 8.4 C
800 22-02-2016 18:35:00 10.3 C 88 % 8.4 C
Sensor: Nr:Datum:Temp:Feuchte:Taupunkt:
Aussen-T/F 801 22-02-2016 18:40:00 10.4 C 88 % 8.5 C
802 22-02-2016 18:45:00 10.4 C 87 % 8.33 C
803 22-02-2016 18:50:00 10.5 C 87 % 8.43 C
804 22-02-2016 18:55:00 10.6 C 87 % 8.53 C
805 22-02-2016 19:00:00 10.6 C 87 % 8.53 C
806 22-02-2016 19:05:00 10.6 C 87 % 8.53 C
807 22-02-2016 19:10:00 10.6 C 87 % 8.53 C
808 22-02-2016 19:15:00 10.6 C 87 % 8.53 C
809 22-02-2016 19:20:00 10.6 C 87 % 8.53 C
810 22-02-2016 19:25:00 10.6 C 87 % 8.53 C
811 22-02-2016 19:30:00 10.6 C 87 % 8.53 C
812 22-02-2016 19:35:00 10.6 C 87 % 8.53 C
813 22-02-2016 19:40:00 10.3 C 85 % 7.89 C
814 22-02-2016 19:45:00 9.6 C 86 % 7.38 C
815 22-02-2016 19:50:00 8.6 C 88 % 6.73 C
816 22-02-2016 19:55:00 7.8 C 90 % 6.27 C
817 22-02-2016 20:00:00 7.3 C 91 % 5.93 C
818 22-02-2016 20:05:00 6.9 C 92 % 5.69 C
819 22-02-2016 20:10:00 6.6 C 92 % 5.4 C
820 22-02-2016 20:15:00 6.4 C 93 % 5.35 C
821 22-02-2016 20:20:00 6.2 C 93 % 5.15 C
822 22-02-2016 20:25:00 6.1 C 93 % 5.06 C
823 22-02-2016 20:30:00 5.7 C 92 % 4.5 C
824 22-02-2016 20:35:00 5.5 C 93 % 4.46 C
825 22-02-2016 20:40:00 5.3 C 93 % 4.26 C
Sensor: Nr:Datum:Temp:Feuchte:Taupunkt:
Aussen-T/F 826 22-02-2016 20:45:00 5.2 C 93 % 4.16 C
827 22-02-2016 20:50:00 5.2 C 94 % 4.32 C
828 22-02-2016 20:55:00 5.2 C 94 % 4.32 C
829 22-02-2016 21:00:00 5.1 C 94 % 4.22 C
830 22-02-2016 21:05:00 5.1 C 94 % 4.22 C
831 22-02-2016 21:10:00 5.1 C 94 % 4.22 C
832 22-02-2016 21:15:00 5.1 C 94 % 4.22 C
833 22-02-2016 21:20:00 5 C 95 % 4.27 C
834 22-02-2016 21:25:00 4.9 C 95 % 4.17 C
835 22-02-2016 21:30:00 4.8 C 94 % 3.92 C
836 22-02-2016 21:35:00 4.7 C 94 % 3.82 C
837 22-02-2016 21:40:00 4.6 C 95 % 3.87 C
838 22-02-2016 21:45:00 4.4 C 95 % 3.67 C
839 22-02-2016 21:50:00 4.4 C 95 % 3.67 C
840 22-02-2016 21:55:00 4.3 C 95 % 3.57 C
841 22-02-2016 22:00:00 4.3 C 95 % 3.57 C
842 22-02-2016 22:05:00 4.3 C 95 % 3.57 C
843 22-02-2016 22:10:00 4.2 C 95 % 3.47 C
844 22-02-2016 22:15:00 4.1 C 95 % 3.37 C
845 22-02-2016 22:20:00 4.1 C 95 % 3.37 C
846 22-02-2016 22:25:00 4.1 C 95 % 3.37 C
847 22-02-2016 22:30:00 4 C 95 % 3.27 C
848 22-02-2016 22:35:00 4 C 95 % 3.27 C
849 22-02-2016 22:40:00 3.9 C 95 % 3.17 C
850 22-02-2016 22:45:00 3.9 C 95 % 3.17 C
Sensor: Nr:Datum:Temp:Feuchte:Taupunkt:
Aussen-T/F 851 22-02-2016 22:50:00 3.9 C 95 % 3.17 C
852 22-02-2016 22:55:00 3.9 C 95 % 3.17 C
853 22-02-2016 23:00:00 3.9 C 95 % 3.17 C
854 22-02-2016 23:05:00 3.8 C 95 % 3.07 C
855 22-02-2016 23:10:00 3.7 C 95 % 2.98 C
856 22-02-2016 23:15:00 3.6 C 95 % 2.88 C
857 22-02-2016 23:20:00 3.6 C 95 % 2.88 C
858 22-02-2016 23:25:00 3.5 C 95 % 2.78 C
859 22-02-2016 23:30:00 3.4 C 95 % 2.68 C
860 22-02-2016 23:35:00 3.3 C 95 % 2.58 C
861 22-02-2016 23:40:00 3.3 C 95 % 2.58 C
862 22-02-2016 23:45:00 3.2 C 95 % 2.48 C
863 22-02-2016 23:50:00 3.2 C 95 % 2.48 C
864 22-02-2016 23:55:00 3.1 C 94 % 2.23 C
865 23-02-2016 00:00:00 3 C 95 % 2.28 C
866 23-02-2016 00:05:00 2.9 C 95 % 2.18 C
867 23-02-2016 00:10:00 2.8 C 94 % 1.93 C
868 23-02-2016 00:15:00 2.8 C 95 % 2.08 C
869 23-02-2016 00:20:00 2.7 C 95 % 1.98 C
870 23-02-2016 00:25:00 2.7 C 95 % 1.98 C
871 23-02-2016 00:30:00 2.7 C 95 % 1.98 C
872 23-02-2016 00:35:00 2.6 C 95 % 1.88 C
873 23-02-2016 00:40:00 2.6 C 95 % 1.88 C
874 23-02-2016 00:45:00 2.5 C 95 % 1.78 C
875 23-02-2016 00:50:00 2.4 C 95 % 1.68 C
Sensor: Nr:Datum:Temp:Feuchte:Taupunkt:
Aussen-T/F 876 23-02-2016 00:55:00 2.3 C 95 % 1.58 C
877 23-02-2016 01:00:00 2.3 C 95 % 1.58 C
878 23-02-2016 01:05:00 2.1 C 94 % 1.24 C
879 23-02-2016 01:10:00 2 C 94 % 1.14 C
880 23-02-2016 01:15:00 1.9 C 95 % 1.19 C
881 23-02-2016 01:20:00 1.9 C 94 % 1.04 C
882 23-02-2016 01:25:00 1.8 C 94 % 0.94 C
883 23-02-2016 01:30:00 1.7 C 95 % 0.99 C
884 23-02-2016 01:35:00 1.6 C 95 % 0.89 C
885 23-02-2016 01:40:00 1.6 C 95 % 0.89 C
886 23-02-2016 01:45:00 1.6 C 95 % 0.89 C
887 23-02-2016 01:50:00 1.6 C 95 % 0.89 C
888 23-02-2016 01:55:00 1.6 C 95 % 0.89 C
889 23-02-2016 02:00:00 1.6 C 95 % 0.89 C
890 23-02-2016 02:05:00 1.6 C 95 % 0.89 C
891 23-02-2016 02:10:00 1.5 C 95 % 0.79 C
892 23-02-2016 02:15:00 1.5 C 95 % 0.79 C
893 23-02-2016 02:20:00 1.4 C 95 % 0.69 C
894 23-02-2016 02:25:00 1.4 C 95 % 0.69 C
895 23-02-2016 02:30:00 1.4 C 95 % 0.69 C
896 23-02-2016 02:35:00 1.4 C 95 % 0.69 C
897 23-02-2016 02:40:00 1.4 C 95 % 0.69 C
898 23-02-2016 02:45:00 1.4 C 95 % 0.69 C
899 23-02-2016 02:50:00 1.3 C 95 % 0.59 C
900 23-02-2016 02:55:00 1.3 C 95 % 0.59 C
Sensor: Nr:Datum:Temp:Feuchte:Taupunkt:
Aussen-T/F 901 23-02-2016 03:00:00 1.3 C 95 % 0.59 C
902 23-02-2016 03:05:00 1.3 C 95 % 0.59 C
903 23-02-2016 03:10:00 1.3 C 95 % 0.59 C
904 23-02-2016 03:15:00 1.3 C 95 % 0.59 C
905 23-02-2016 03:20:00 1.2 C 96 % 0.63 C
906 23-02-2016 03:25:00 1.2 C 96 % 0.63 C
907 23-02-2016 03:30:00 1.2 C 96 % 0.63 C
908 23-02-2016 03:35:00 1.2 C 95 % 0.49 C
909 23-02-2016 03:40:00 1.2 C 95 % 0.49 C
910 23-02-2016 03:45:00 1.2 C 96 % 0.63 C
911 23-02-2016 03:50:00 1.1 C 96 % 0.54 C
912 23-02-2016 03:55:00 1.1 C 96 % 0.54 C
913 23-02-2016 04:00:00 1.1 C 96 % 0.54 C
914 23-02-2016 04:05:00 1.1 C 96 % 0.54 C
915 23-02-2016 04:10:00 1.1 C 96 % 0.54 C
916 23-02-2016 04:15:00 1.1 C 96 % 0.54 C
917 23-02-2016 04:20:00 1.1 C 96 % 0.54 C
918 23-02-2016 04:25:00 1.1 C 96 % 0.54 C
919 23-02-2016 04:30:00 1.1 C 96 % 0.54 C
920 23-02-2016 04:35:00 1 C 96 % 0.44 C
921 23-02-2016 04:40:00 1 C 96 % 0.44 C
922 23-02-2016 04:45:00 1 C 96 % 0.44 C
923 23-02-2016 04:50:00 1 C 96 % 0.44 C
924 23-02-2016 04:55:00 1 C 96 % 0.44 C
925 23-02-2016 05:00:00 1 C 96 % 0.44 C
Sensor: Nr:Datum:Temp:Feuchte:Taupunkt:
Aussen-T/F 926 23-02-2016 05:05:00 1 C 96 % 0.44 C
927 23-02-2016 05:10:00 1 C 96 % 0.44 C
928 23-02-2016 05:15:00 1 C 96 % 0.44 C
929 23-02-2016 05:20:00 1 C 96 % 0.44 C
930 23-02-2016 05:25:00 1 C 96 % 0.44 C
931 23-02-2016 05:30:00 1 C 96 % 0.44 C
932 23-02-2016 05:35:00 1 C 96 % 0.44 C
933 23-02-2016 05:40:00 1 C 96 % 0.44 C
934 23-02-2016 05:45:00 1 C 96 % 0.44 C
935 23-02-2016 05:50:00 1 C 96 % 0.44 C
936 23-02-2016 05:55:00 1 C 96 % 0.44 C
937 23-02-2016 06:00:00 1 C 96 % 0.44 C
938 23-02-2016 06:05:00 1 C 96 % 0.44 C
939 23-02-2016 06:10:00 1 C 96 % 0.44 C
940 23-02-2016 06:15:00 1 C 96 % 0.44 C
941 23-02-2016 06:20:00 1 C 96 % 0.44 C
942 23-02-2016 06:25:00 1 C 96 % 0.44 C
943 23-02-2016 06:30:00 1 C 96 % 0.44 C
944 23-02-2016 06:35:00 0.9 C 96 % 0.34 C
945 23-02-2016 06:40:00 0.9 C 96 % 0.34 C
946 23-02-2016 06:45:00 0.9 C 96 % 0.34 C
947 23-02-2016 06:50:00 0.9 C 96 % 0.34 C
948 23-02-2016 06:55:00 1 C 96 % 0.44 C
949 23-02-2016 07:00:00 1 C 96 % 0.44 C
950 23-02-2016 07:05:00 1 C 96 % 0.44 C
Sensor: Nr:Datum:Temp:Feuchte:Taupunkt:
Aussen-T/F 951 23-02-2016 07:10:00 1 C 96 % 0.44 C
952 23-02-2016 07:15:00 1 C 96 % 0.44 C
953 23-02-2016 07:20:00 1 C 96 % 0.44 C
954 23-02-2016 07:25:00 1 C 96 % 0.44 C
955 23-02-2016 07:30:00 1 C 96 % 0.44 C
956 23-02-2016 07:35:00 1 C 96 % 0.44 C
957 23-02-2016 07:40:00 1 C 96 % 0.44 C
958 23-02-2016 07:45:00 1 C 96 % 0.44 C
959 23-02-2016 07:50:00 1 C 96 % 0.44 C
960 23-02-2016 07:55:00 1 C 96 % 0.44 C
961 23-02-2016 08:00:00 1.1 C 96 % 0.54 C
962 23-02-2016 08:05:00 1.1 C 96 % 0.54 C
963 23-02-2016 08:10:00 1.1 C 96 % 0.54 C
964 23-02-2016 08:15:00 1.1 C 96 % 0.54 C
965 23-02-2016 08:20:00 1.1 C 96 % 0.54 C
966 23-02-2016 08:25:00 1.1 C 96 % 0.54 C
967 23-02-2016 08:30:00 1.1 C 96 % 0.54 C
968 23-02-2016 08:35:00 1.2 C 96 % 0.63 C
969 23-02-2016 08:40:00 1.2 C 96 % 0.63 C
970 23-02-2016 08:45:00 1.2 C 96 % 0.63 C
971 23-02-2016 08:50:00 1.2 C 96 % 0.63 C
972 23-02-2016 08:55:00 1.2 C 96 % 0.63 C
973 23-02-2016 09:00:00 1.2 C 97 % 0.78 C
974 23-02-2016 09:05:00 1.3 C 97 % 0.88 C
975 23-02-2016 09:10:00 1.3 C 97 % 0.88 C
Sensor: Nr:Datum:Temp:Feuchte:Taupunkt:
Aussen-T/F 976 23-02-2016 09:15:00 1.3 C 97 % 0.88 C
977 23-02-2016 09:20:00 1.4 C 96 % 0.83 C
978 23-02-2016 09:25:00 1.4 C 96 % 0.83 C
979 23-02-2016 09:30:00 1.5 C 96 % 0.93 C
980 23-02-2016 09:35:00 1.6 C 96 % 1.03 C
981 23-02-2016 09:40:00 1.6 C 97 % 1.18 C
982 23-02-2016 09:45:00 1.6 C 97 % 1.18 C
983 23-02-2016 09:50:00 1.7 C 97 % 1.28 C
984 23-02-2016 09:55:00 1.7 C 97 % 1.28 C
985 23-02-2016 10:00:00 1.8 C 97 % 1.38 C
986 23-02-2016 10:05:00 1.8 C 97 % 1.38 C
987 23-02-2016 10:10:00 1.8 C 97 % 1.38 C
988 23-02-2016 10:15:00 1.8 C 97 % 1.38 C
989 23-02-2016 10:20:00 1.8 C 97 % 1.38 C
990 23-02-2016 10:25:00 1.8 C 97 % 1.38 C
991 23-02-2016 10:30:00 1.9 C 97 % 1.48 C
992 23-02-2016 10:35:00 1.9 C 97 % 1.48 C
993 23-02-2016 10:40:00 1.9 C 97 % 1.48 C
994 23-02-2016 10:45:00 2 C 97 % 1.58 C
995 23-02-2016 10:50:00 2 C 97 % 1.58 C
996 23-02-2016 10:55:00 2.1 C 97 % 1.67 C
997 23-02-2016 11:00:00 2.1 C 97 % 1.67 C
998 23-02-2016 11:05:00 2.2 C 97 % 1.77 C
999 23-02-2016 11:10:00 2.2 C 97 % 1.77 C
1000 23-02-2016 11:15:00 2.3 C 97 % 1.87 C
Sensor: Nr:Datum:Temp:Feuchte:Taupunkt:
Aussen-T/F 1001 23-02-2016 11:20:00 2.3 C 97 % 1.87 C
1002 23-02-2016 11:25:00 2.4 C 97 % 1.97 C
1003 23-02-2016 11:30:00 2.3 C 97 % 1.87 C
1004 23-02-2016 11:35:00 2.4 C 97 % 1.97 C
1005 23-02-2016 11:40:00 2.4 C 97 % 1.97 C
1006 23-02-2016 11:45:00 2.4 C 97 % 1.97 C
1007 23-02-2016 11:50:00 2.4 C 97 % 1.97 C
1008 23-02-2016 11:55:00 2.5 C 97 % 2.07 C
1009 23-02-2016 12:00:00 2.5 C 97 % 2.07 C
1010 23-02-2016 12:05:00 2.6 C 97 % 2.17 C
1011 23-02-2016 12:10:00 2.6 C 97 % 2.17 C
1012 23-02-2016 12:15:00 2.7 C 97 % 2.27 C
1013 23-02-2016 12:20:00 2.7 C 97 % 2.27 C
1014 23-02-2016 12:25:00 2.8 C 97 % 2.37 C
1015 23-02-2016 12:30:00 2.9 C 97 % 2.47 C
1016 23-02-2016 12:35:00 2.9 C 97 % 2.47 C
1017 23-02-2016 12:40:00 2.9 C 97 % 2.47 C
1018 23-02-2016 12:45:00 3 C 97 % 2.57 C
1019 23-02-2016 12:50:00 3.1 C 97 % 2.67 C
1020 23-02-2016 12:55:00 3.1 C 97 % 2.67 C
1021 23-02-2016 13:00:00 3.1 C 97 % 2.67 C
1022 23-02-2016 13:05:00 3.1 C 97 % 2.67 C
1023 23-02-2016 13:10:00 3.2 C 97 % 2.77 C
1024 23-02-2016 13:15:00 3.3 C 97 % 2.87 C
1025 23-02-2016 13:20:00 3.3 C 96 % 2.72 C
Sensor: Nr:Datum:Temp:Feuchte:Taupunkt:
Aussen-T/F 1026 23-02-2016 13:25:00 3.4 C 97 % 2.97 C
1027 23-02-2016 13:30:00 3.6 C 97 % 3.17 C
1028 23-02-2016 13:35:00 3.6 C 97 % 3.17 C
1029 23-02-2016 13:40:00 3.6 C 97 % 3.17 C
1030 23-02-2016 13:45:00 3.6 C 96 % 3.02 C
1031 23-02-2016 13:50:00 3.7 C 96 % 3.12 C
1032 23-02-2016 13:55:00 3.8 C 97 % 3.37 C
1033 23-02-2016 14:00:00 3.8 C 96 % 3.22 C
1034 23-02-2016 14:05:00 3.8 C 96 % 3.22 C
1035 23-02-2016 14:10:00 3.8 C 96 % 3.22 C
1036 23-02-2016 14:15:00 3.8 C 96 % 3.22 C
1037 23-02-2016 14:20:00 3.8 C 96 % 3.22 C
1038 23-02-2016 14:25:00 3.8 C 96 % 3.22 C
1039 23-02-2016 14:30:00 3.7 C 96 % 3.12 C
1040 23-02-2016 14:35:00 3.7 C 96 % 3.12 C
1041 23-02-2016 14:40:00 3.7 C 96 % 3.12 C
1042 23-02-2016 14:45:00 3.7 C 96 % 3.12 C
1043 23-02-2016 14:50:00 3.9 C 96 % 3.32 C
1044 23-02-2016 14:55:00 4.1 C 96 % 3.52 C
1045 23-02-2016 15:00:00 4.1 C 96 % 3.52 C
1046 23-02-2016 15:05:00 4.2 C 96 % 3.62 C
1047 23-02-2016 15:10:00 4.3 C 96 % 3.72 C
1048 23-02-2016 15:15:00 4.5 C 96 % 3.92 C
1049 23-02-2016 15:20:00 4.5 C 96 % 3.92 C
1050 23-02-2016 15:25:00 4.4 C 96 % 3.82 C
Sensor: Nr:Datum:Temp:Feuchte:Taupunkt:
Aussen-T/F 1051 23-02-2016 15:30:00 4.4 C 96 % 3.82 C
1052 23-02-2016 15:35:00 4.3 C 95 % 3.57 C
1053 23-02-2016 15:40:00 4.3 C 95 % 3.57 C
1054 23-02-2016 15:45:00 4.3 C 95 % 3.57 C
1055 23-02-2016 15:50:00 4.3 C 95 % 3.57 C
1056 23-02-2016 15:55:00 4.2 C 95 % 3.47 C
1057 23-02-2016 16:00:00 4.2 C 95 % 3.47 C
1058 23-02-2016 16:05:00 4.2 C 95 % 3.47 C
1059 23-02-2016 16:10:00 4 C 95 % 3.27 C
1060 23-02-2016 16:15:00 3.9 C 95 % 3.17 C
1061 23-02-2016 16:20:00 4 C 95 % 3.27 C
1062 23-02-2016 16:25:00 4.1 C 95 % 3.37 C
1063 23-02-2016 16:30:00 4.1 C 95 % 3.37 C
1064 23-02-2016 16:35:00 4.1 C 96 % 3.52 C
1065 23-02-2016 16:40:00 4.2 C 96 % 3.62 C
1066 23-02-2016 16:45:00 4.2 C 96 % 3.62 C
1067 23-02-2016 16:50:00 4.2 C 96 % 3.62 C
1068 23-02-2016 16:55:00 3.9 C 94 % 3.02 C
1069 23-02-2016 17:00:00 3.7 C 94 % 2.83 C
1070 23-02-2016 17:05:00 3.7 C 94 % 2.83 C
1071 23-02-2016 17:10:00 3.6 C 94 % 2.73 C
1072 23-02-2016 17:15:00 3.6 C 94 % 2.73 C
1073 23-02-2016 17:20:00 3.4 C 94 % 2.53 C
1074 23-02-2016 17:25:00 3.4 C 94 % 2.53 C
1075 23-02-2016 17:30:00 3.4 C 95 % 2.68 C
Sensor: Nr:Datum:Temp:Feuchte:Taupunkt:
Aussen-T/F 1076 23-02-2016 17:35:00 3.4 C 94 % 2.53 C
1077 23-02-2016 17:40:00 3.4 C 94 % 2.53 C
1078 23-02-2016 17:45:00 3.3 C 94 % 2.43 C
1079 23-02-2016 17:50:00 3.2 C 95 % 2.48 C
1080 23-02-2016 17:55:00 3.2 C 95 % 2.48 C
1081 23-02-2016 18:00:00 3.1 C 95 % 2.38 C
1082 23-02-2016 18:05:00 3.1 C 95 % 2.38 C
1083 23-02-2016 18:10:00 3.1 C 95 % 2.38 C
1084 23-02-2016 18:15:00 3 C 95 % 2.28 C
1085 23-02-2016 18:20:00 2.9 C 95 % 2.18 C
1086 23-02-2016 18:25:00 2.9 C 95 % 2.18 C
1087 23-02-2016 18:30:00 2.9 C 95 % 2.18 C
1088 23-02-2016 18:35:00 2.9 C 95 % 2.18 C
1089 23-02-2016 18:40:00 2.8 C 95 % 2.08 C
1090 23-02-2016 18:45:00 2.8 C 95 % 2.08 C
1091 23-02-2016 18:50:00 2.7 C 95 % 1.98 C
1092 23-02-2016 18:55:00 2.6 C 95 % 1.88 C
1093 23-02-2016 19:00:00 2.6 C 95 % 1.88 C
1094 23-02-2016 19:05:00 2.5 C 95 % 1.78 C
1095 23-02-2016 19:10:00 2.5 C 95 % 1.78 C
1096 23-02-2016 19:15:00 2.5 C 95 % 1.78 C
1097 23-02-2016 19:20:00 2.6 C 96 % 2.03 C
1098 23-02-2016 19:25:00 2.7 C 96 % 2.13 C
1099 23-02-2016 19:30:00 2.7 C 96 % 2.13 C
1100 23-02-2016 19:35:00 2.8 C 96 % 2.23 C
Sensor: Nr:Datum:Temp:Feuchte:Taupunkt:
Aussen-T/F 1101 23-02-2016 19:40:00 2.9 C 96 % 2.33 C
1102 23-02-2016 19:45:00 2.9 C 96 % 2.33 C
1103 23-02-2016 19:50:00 3 C 96 % 2.43 C
1104 23-02-2016 19:55:00 3 C 96 % 2.43 C
1105 23-02-2016 20:00:00 3 C 96 % 2.43 C
1106 23-02-2016 20:05:00 3 C 96 % 2.43 C
1107 23-02-2016 20:10:00 3.1 C 96 % 2.53 C
1108 23-02-2016 20:15:00 3.1 C 96 % 2.53 C
1109 23-02-2016 20:20:00 3.1 C 96 % 2.53 C
1110 23-02-2016 20:25:00 3.1 C 96 % 2.53 C
1111 23-02-2016 20:30:00 3.1 C 96 % 2.53 C
1112 23-02-2016 20:35:00 3.1 C 96 % 2.53 C
1113 23-02-2016 20:40:00 3.1 C 96 % 2.53 C
1114 23-02-2016 20:45:00 3 C 96 % 2.43 C
1115 23-02-2016 20:50:00 2.9 C 96 % 2.33 C
1116 23-02-2016 20:55:00 2.8 C 96 % 2.23 C
1117 23-02-2016 21:00:00 2.7 C 95 % 1.98 C
1118 23-02-2016 21:05:00 2.6 C 95 % 1.88 C
1119 23-02-2016 21:10:00 2.4 C 95 % 1.68 C
1120 23-02-2016 21:15:00 2.4 C 95 % 1.68 C
1121 23-02-2016 21:20:00 2.3 C 96 % 1.73 C
1122 23-02-2016 21:25:00 2.3 C 96 % 1.73 C
1123 23-02-2016 21:30:00 2.2 C 96 % 1.63 C
1124 23-02-2016 21:35:00 2.2 C 95 % 1.48 C
1125 23-02-2016 21:40:00 2.1 C 95 % 1.38 C
Sensor: Nr:Datum:Temp:Feuchte:Taupunkt:
Aussen-T/F 1126 23-02-2016 21:45:00 2 C 96 % 1.43 C
1127 23-02-2016 21:50:00 1.9 C 96 % 1.33 C
1128 23-02-2016 21:55:00 1.9 C 96 % 1.33 C
1129 23-02-2016 22:00:00 1.8 C 95 % 1.09 C
1130 23-02-2016 22:05:00 1.7 C 96 % 1.13 C
1131 23-02-2016 22:10:00 1.7 C 96 % 1.13 C
1132 23-02-2016 22:15:00 1.8 C 96 % 1.23 C
1133 23-02-2016 22:20:00 1.8 C 96 % 1.23 C
1134 23-02-2016 22:25:00 1.8 C 96 % 1.23 C
1135 23-02-2016 22:30:00 1.9 C 96 % 1.33 C
1136 23-02-2016 22:35:00 1.9 C 96 % 1.33 C
1137 23-02-2016 22:40:00 1.9 C 96 % 1.33 C
1138 23-02-2016 22:45:00 1.9 C 96 % 1.33 C
1139 23-02-2016 22:50:00 1.9 C 96 % 1.33 C
1140 23-02-2016 22:55:00 1.8 C 96 % 1.23 C
1141 23-02-2016 23:00:00 1.7 C 96 % 1.13 C
1142 23-02-2016 23:05:00 1.7 C 96 % 1.13 C
1143 23-02-2016 23:10:00 1.6 C 96 % 1.03 C
1144 23-02-2016 23:15:00 1.5 C 96 % 0.93 C
1145 23-02-2016 23:20:00 1.4 C 96 % 0.83 C
1146 23-02-2016 23:25:00 1.5 C 96 % 0.93 C
1147 23-02-2016 23:30:00 1.6 C 96 % 1.03 C
1148 23-02-2016 23:35:00 1.8 C 97 % 1.38 C
1149 23-02-2016 23:40:00 1.9 C 97 % 1.48 C
1150 23-02-2016 23:45:00 2 C 97 % 1.58 C
Sensor: Nr:Datum:Temp:Feuchte:Taupunkt:
Aussen-T/F 1151 23-02-2016 23:50:00 2.1 C 97 % 1.67 C
1152 23-02-2016 23:55:00 2 C 96 % 1.43 C
1153 24-02-2016 00:00:00 1.9 C 96 % 1.33 C
1154 24-02-2016 00:05:00 1.9 C 96 % 1.33 C
1155 24-02-2016 00:10:00 2 C 96 % 1.43 C
1156 24-02-2016 00:15:00 2.1 C 97 % 1.67 C
1157 24-02-2016 00:20:00 2.2 C 97 % 1.77 C
1158 24-02-2016 00:25:00 2.2 C 97 % 1.77 C
1159 24-02-2016 00:30:00 2.3 C 97 % 1.87 C
1160 24-02-2016 00:35:00 2.4 C 97 % 1.97 C
1161 24-02-2016 00:40:00 2.4 C 97 % 1.97 C
1162 24-02-2016 00:45:00 2.4 C 97 % 1.97 C
1163 24-02-2016 00:50:00 2.5 C 97 % 2.07 C
1164 24-02-2016 00:55:00 2.6 C 97 % 2.17 C
1165 24-02-2016 01:00:00 2.6 C 97 % 2.17 C
1166 24-02-2016 01:05:00 2.6 C 97 % 2.17 C
1167 24-02-2016 01:10:00 2.6 C 96 % 2.03 C
1168 24-02-2016 01:15:00 2.6 C 96 % 2.03 C
1169 24-02-2016 01:20:00 2.6 C 96 % 2.03 C
1170 24-02-2016 01:25:00 2.6 C 96 % 2.03 C
1171 24-02-2016 01:30:00 2.5 C 96 % 1.93 C
1172 24-02-2016 01:35:00 2.4 C 96 % 1.83 C
1173 24-02-2016 01:40:00 2.4 C 96 % 1.83 C
1174 24-02-2016 01:45:00 2.3 C 96 % 1.73 C
1175 24-02-2016 01:50:00 2.2 C 96 % 1.63 C
Sensor: Nr:Datum:Temp:Feuchte:Taupunkt:
Aussen-T/F 1176 24-02-2016 01:55:00 2.1 C 96 % 1.53 C
1177 24-02-2016 02:00:00 2 C 96 % 1.43 C
1178 24-02-2016 02:05:00 1.9 C 96 % 1.33 C
1179 24-02-2016 02:10:00 1.9 C 96 % 1.33 C
1180 24-02-2016 02:15:00 1.8 C 96 % 1.23 C
1181 24-02-2016 02:20:00 1.8 C 96 % 1.23 C
1182 24-02-2016 02:25:00 1.9 C 96 % 1.33 C
1183 24-02-2016 02:30:00 2 C 96 % 1.43 C
1184 24-02-2016 02:35:00 2 C 96 % 1.43 C
1185 24-02-2016 02:40:00 2 C 96 % 1.43 C
1186 24-02-2016 02:45:00 2 C 96 % 1.43 C
1187 24-02-2016 02:50:00 1.9 C 96 % 1.33 C
1188 24-02-2016 02:55:00 1.8 C 96 % 1.23 C
1189 24-02-2016 03:00:00 1.8 C 96 % 1.23 C
1190 24-02-2016 03:05:00 1.7 C 96 % 1.13 C
1191 24-02-2016 03:10:00 1.6 C 96 % 1.03 C
1192 24-02-2016 03:15:00 1.4 C 96 % 0.83 C
1193 24-02-2016 03:20:00 1.3 C 96 % 0.73 C
1194 24-02-2016 03:25:00 1.4 C 96 % 0.83 C
1195 24-02-2016 03:30:00 1.4 C 96 % 0.83 C
1196 24-02-2016 03:35:00 1.4 C 96 % 0.83 C
1197 24-02-2016 03:40:00 1.4 C 96 % 0.83 C
1198 24-02-2016 03:45:00 1.4 C 96 % 0.83 C
1199 24-02-2016 03:50:00 1.4 C 96 % 0.83 C
1200 24-02-2016 03:55:00 1.4 C 96 % 0.83 C
Sensor: Nr:Datum:Temp:Feuchte:Taupunkt:
Aussen-T/F 1201 24-02-2016 04:00:00 1.5 C 96 % 0.93 C
1202 24-02-2016 04:05:00 1.6 C 96 % 1.03 C
1203 24-02-2016 04:10:00 1.6 C 96 % 1.03 C
1204 24-02-2016 04:15:00 1.6 C 96 % 1.03 C
1205 24-02-2016 04:20:00 1.5 C 96 % 0.93 C
1206 24-02-2016 04:25:00 1.5 C 96 % 0.93 C
1207 24-02-2016 04:30:00 1.4 C 96 % 0.83 C
1208 24-02-2016 04:35:00 1.4 C 96 % 0.83 C
1209 24-02-2016 04:40:00 1.4 C 96 % 0.83 C
1210 24-02-2016 04:45:00 1.3 C 96 % 0.73 C
1211 24-02-2016 04:50:00 1.3 C 96 % 0.73 C
1212 24-02-2016 04:55:00 1.3 C 96 % 0.73 C
1213 24-02-2016 05:00:00 1.3 C 96 % 0.73 C
1214 24-02-2016 05:05:00 1.3 C 96 % 0.73 C
1215 24-02-2016 05:10:00 1.2 C 96 % 0.63 C
1216 24-02-2016 05:15:00 1.1 C 96 % 0.54 C
1217 24-02-2016 05:20:00 0.9 C 96 % 0.34 C
1218 24-02-2016 05:25:00 0.8 C 96 % 0.24 C
1219 24-02-2016 05:30:00 0.7 C 96 % 0.14 C
1220 24-02-2016 05:35:00 0.7 C 96 % 0.14 C
1221 24-02-2016 05:40:00 0.7 C 96 % 0.14 C
1222 24-02-2016 05:45:00 0.6 C 96 % 0.04 C
1223 24-02-2016 05:50:00 0.6 C 96 % 0.04 C
1224 24-02-2016 05:55:00 0.6 C 96 % 0.04 C
1225 24-02-2016 06:00:00 0.6 C 96 % 0.04 C
Sensor: Nr:Datum:Temp:Feuchte:Taupunkt:
Aussen-T/F 1226 24-02-2016 06:05:00 0.6 C 96 % 0.04 C
1227 24-02-2016 06:10:00 0.7 C 96 % 0.14 C
1228 24-02-2016 06:15:00 0.7 C 96 % 0.14 C
1229 24-02-2016 06:20:00 0.7 C 96 % 0.14 C
1230 24-02-2016 06:25:00 0.7 C 96 % 0.14 C
1231 24-02-2016 06:30:00 0.6 C 96 % 0.04 C
1232 24-02-2016 06:35:00 0.6 C 96 % 0.04 C
1233 24-02-2016 06:40:00 0.5 C 96 % -0.06 C
1234 24-02-2016 06:45:00 0.5 C 96 % -0.06 C
1235 24-02-2016 06:50:00 0.5 C 96 % -0.06 C
1236 24-02-2016 06:55:00 0.5 C 96 % -0.06 C
1237 24-02-2016 07:00:00 0.6 C 96 % 0.04 C
1238 24-02-2016 07:05:00 0.7 C 96 % 0.14 C
1239 24-02-2016 07:10:00 0.7 C 96 % 0.14 C
1240 24-02-2016 07:15:00 0.8 C 96 % 0.24 C
1241 24-02-2016 07:20:00 0.8 C 96 % 0.24 C
1242 24-02-2016 07:25:00 0.8 C 96 % 0.24 C
1243 24-02-2016 07:30:00 0.8 C 96 % 0.24 C
1244 24-02-2016 07:35:00 0.8 C 96 % 0.24 C
1245 24-02-2016 07:40:00 0.8 C 97 % 0.38 C
1246 24-02-2016 07:45:00 0.9 C 97 % 0.48 C
1247 24-02-2016 07:50:00 0.9 C 97 % 0.48 C
1248 24-02-2016 07:55:00 0.9 C 97 % 0.48 C
1249 24-02-2016 08:00:00 0.9 C 97 % 0.48 C
1250 24-02-2016 08:05:00 0.9 C 97 % 0.48 C
Sensor: Nr:Datum:Temp:Feuchte:Taupunkt:
Aussen-T/F 1251 24-02-2016 08:10:00 0.9 C 97 % 0.48 C
1252 24-02-2016 08:15:00 1 C 97 % 0.58 C
1253 24-02-2016 08:20:00 1 C 97 % 0.58 C
1254 24-02-2016 08:25:00 1.1 C 96 % 0.54 C
1255 24-02-2016 08:30:00 1.1 C 96 % 0.54 C
1256 24-02-2016 08:35:00 1.2 C 96 % 0.63 C
1257 24-02-2016 08:40:00 1.2 C 96 % 0.63 C
1258 24-02-2016 08:45:00 1.2 C 97 % 0.78 C
1259 24-02-2016 08:50:00 1.3 C 97 % 0.88 C
1260 24-02-2016 08:55:00 1.3 C 96 % 0.73 C
1261 24-02-2016 09:00:00 1.4 C 96 % 0.83 C
1262 24-02-2016 09:05:00 1.4 C 96 % 0.83 C
1263 24-02-2016 09:10:00 1.4 C 96 % 0.83 C
1264 24-02-2016 09:15:00 1.4 C 96 % 0.83 C
1265 24-02-2016 09:20:00 1.3 C 96 % 0.73 C
1266 24-02-2016 09:25:00 1.3 C 96 % 0.73 C
1267 24-02-2016 09:30:00 1.3 C 96 % 0.73 C
1268 24-02-2016 09:35:00 1.4 C 96 % 0.83 C
1269 24-02-2016 09:40:00 1.4 C 96 % 0.83 C
1270 24-02-2016 09:45:00 1.5 C 96 % 0.93 C
1271 24-02-2016 09:50:00 1.6 C 96 % 1.03 C
1272 24-02-2016 09:55:00 1.7 C 96 % 1.13 C
1273 24-02-2016 10:00:00 1.7 C 96 % 1.13 C
1274 24-02-2016 10:05:00 1.7 C 96 % 1.13 C
1275 24-02-2016 10:10:00 1.7 C 96 % 1.13 C
Sensor: Nr:Datum:Temp:Feuchte:Taupunkt:
Aussen-T/F 1276 24-02-2016 10:15:00 1.7 C 96 % 1.13 C
1277 24-02-2016 10:20:00 1.7 C 96 % 1.13 C
1278 24-02-2016 10:25:00 1.8 C 96 % 1.23 C
1279 24-02-2016 10:30:00 1.8 C 96 % 1.23 C
1280 24-02-2016 10:35:00 1.9 C 96 % 1.33 C
1281 24-02-2016 10:40:00 2.1 C 96 % 1.53 C
1282 24-02-2016 10:45:00 2.1 C 96 % 1.53 C
1283 24-02-2016 10:50:00 2.2 C 96 % 1.63 C
1284 24-02-2016 10:55:00 2.3 C 96 % 1.73 C
1285 24-02-2016 11:00:00 2.3 C 95 % 1.58 C
1286 24-02-2016 11:05:00 2.4 C 95 % 1.68 C
1287 24-02-2016 11:10:00 2.4 C 95 % 1.68 C
1288 24-02-2016 11:15:00 2.4 C 95 % 1.68 C
1289 24-02-2016 11:20:00 2.5 C 95 % 1.78 C
1290 24-02-2016 11:25:00 2.6 C 95 % 1.88 C
1291 24-02-2016 11:30:00 2.7 C 94 % 1.83 C
1292 24-02-2016 11:35:00 2.8 C 94 % 1.93 C
1293 24-02-2016 11:40:00 2.9 C 94 % 2.03 C
1294 24-02-2016 11:45:00 3.1 C 93 % 2.08 C
1295 24-02-2016 11:50:00 3.2 C 93 % 2.18 C
1296 24-02-2016 11:55:00 3.3 C 92 % 2.13 C
1297 24-02-2016 12:00:00 3.3 C 92 % 2.13 C
1298 24-02-2016 12:05:00 3.4 C 92 % 2.23 C
1299 24-02-2016 12:10:00 3.6 C 91 % 2.27 C
1300 24-02-2016 12:15:00 3.7 C 91 % 2.37 C
Sensor: Nr:Datum:Temp:Feuchte:Taupunkt:
Aussen-T/F 1301 24-02-2016 12:20:00 3.8 C 91 % 2.47 C
1302 24-02-2016 12:25:00 4 C 89 % 2.36 C
1303 24-02-2016 12:30:00 4.2 C 89 % 2.55 C
1304 24-02-2016 12:35:00 4.3 C 88 % 2.49 C
1305 24-02-2016 12:40:00 4.4 C 87 % 2.43 C
1306 24-02-2016 12:45:00 4.4 C 88 % 2.59 C
1307 24-02-2016 12:50:00 4.5 C 87 % 2.53 C
1308 24-02-2016 12:55:00 4.6 C 86 % 2.47 C
1309 24-02-2016 13:00:00 4.6 C 87 % 2.63 C
1310 24-02-2016 13:05:00 4.6 C 86 % 2.47 C
1311 24-02-2016 13:10:00 4.6 C 86 % 2.47 C
1312 24-02-2016 13:15:00 4.7 C 86 % 2.56 C
1313 24-02-2016 13:20:00 4.7 C 86 % 2.56 C
1314 24-02-2016 13:25:00 4.8 C 86 % 2.66 C
1315 24-02-2016 13:30:00 4.9 C 86 % 2.76 C
1316 24-02-2016 13:35:00 5 C 85 % 2.69 C
1317 24-02-2016 13:40:00 5 C 85 % 2.69 C
1318 24-02-2016 13:45:00 5 C 84 % 2.53 C
1319 24-02-2016 13:50:00 5.1 C 84 % 2.63 C
1320 24-02-2016 13:55:00 5.2 C 84 % 2.72 C
1321 24-02-2016 14:00:00 5.4 C 80 % 2.23 C
1322 24-02-2016 14:05:00 5.6 C 80 % 2.43 C
1323 24-02-2016 14:10:00 5.8 C 79 % 2.45 C
1324 24-02-2016 14:15:00 5.9 C 78 % 2.37 C
1325 24-02-2016 14:20:00 6 C 77 % 2.28 C
Sensor: Nr:Datum:Temp:Feuchte:Taupunkt:
Aussen-T/F 1326 24-02-2016 14:25:00 6 C 72 % 1.35 C
1327 24-02-2016 14:30:00 6 C 72 % 1.35 C
1328 24-02-2016 14:35:00 5.9 C 71 % 1.06 C
1329 24-02-2016 14:40:00 5.9 C 71 % 1.06 C
1330 24-02-2016 14:45:00 5.9 C 74 % 1.63 C
1331 24-02-2016 14:50:00 5.9 C 74 % 1.63 C
1332 24-02-2016 14:55:00 5.9 C 74 % 1.63 C
1333 24-02-2016 15:00:00 5.9 C 72 % 1.25 C
1334 24-02-2016 15:05:00 6 C 71 % 1.15 C
1335 24-02-2016 15:10:00 6 C 71 % 1.15 C
1336 24-02-2016 15:15:00 5.9 C 71 % 1.06 C
1337 24-02-2016 15:20:00 5.8 C 74 % 1.53 C
1338 24-02-2016 15:25:00 5.8 C 75 % 1.72 C
1339 24-02-2016 15:30:00 5.8 C 76 % 1.91 C
1340 24-02-2016 15:35:00 5.7 C 73 % 1.25 C
1341 24-02-2016 15:40:00 5.7 C 73 % 1.25 C
1342 24-02-2016 15:45:00 5.6 C 74 % 1.34 C
1343 24-02-2016 15:50:00 5.6 C 75 % 1.53 C
1344 24-02-2016 15:55:00 5.5 C 76 % 1.62 C
1345 24-02-2016 16:00:00 5.5 C 79 % 2.16 C
1346 24-02-2016 16:05:00 5.6 C 79 % 2.25 C
1347 24-02-2016 16:10:00 5.7 C 79 % 2.35 C
1348 24-02-2016 16:15:00 5.8 C 78 % 2.27 C
1349 24-02-2016 16:20:00 5.8 C 77 % 2.09 C
1350 24-02-2016 16:25:00 5.7 C 76 % 1.81 C
Sensor: Nr:Datum:Temp:Feuchte:Taupunkt:
Aussen-T/F 1351 24-02-2016 16:30:00 5.7 C 77 % 1.99 C
1352 24-02-2016 16:35:00 5.6 C 79 % 2.25 C
1353 24-02-2016 16:40:00 5.6 C 79 % 2.25 C
1354 24-02-2016 16:45:00 5.4 C 76 % 1.52 C
1355 24-02-2016 16:50:00 5.3 C 79 % 1.96 C
1356 24-02-2016 16:55:00 5.1 C 80 % 1.94 C
1357 24-02-2016 17:00:00 4.8 C 82 % 1.99 C
1358 24-02-2016 17:05:00 4.6 C 83 % 1.97 C
1359 24-02-2016 17:10:00 4.3 C 84 % 1.84 C
1360 24-02-2016 17:15:00 4.1 C 85 % 1.81 C
1361 24-02-2016 17:20:00 3.9 C 86 % 1.78 C
1362 24-02-2016 17:25:00 3.7 C 86 % 1.58 C
1363 24-02-2016 17:30:00 3.5 C 87 % 1.55 C
1364 24-02-2016 17:35:00 3.3 C 87 % 1.35 C
1365 24-02-2016 17:40:00 3.2 C 88 % 1.41 C
1366 24-02-2016 17:45:00 3.1 C 88 % 1.31 C
1367 24-02-2016 17:50:00 2.9 C 89 % 1.27 C
1368 24-02-2016 17:55:00 2.7 C 89 % 1.07 C
1369 24-02-2016 18:00:00 2.6 C 89 % 0.97 C
1370 24-02-2016 18:05:00 2.4 C 89 % 0.78 C
1371 24-02-2016 18:10:00 2.3 C 89 % 0.68 C
1372 24-02-2016 18:15:00 2.2 C 89 % 0.58 C
1373 24-02-2016 18:20:00 2.1 C 90 % 0.64 C
1374 24-02-2016 18:25:00 2.1 C 90 % 0.64 C
1375 24-02-2016 18:30:00 2 C 90 % 0.54 C
Sensor: Nr:Datum:Temp:Feuchte:Taupunkt:
Aussen-T/F 1376 24-02-2016 18:35:00 1.9 C 90 % 0.44 C
1377 24-02-2016 18:40:00 1.8 C 90 % 0.34 C
1378 24-02-2016 18:45:00 1.8 C 90 % 0.34 C
1379 24-02-2016 18:50:00 1.8 C 90 % 0.34 C
1380 24-02-2016 18:55:00 1.7 C 90 % 0.24 C
1381 24-02-2016 19:00:00 1.7 C 90 % 0.24 C
1382 24-02-2016 19:05:00 1.7 C 90 % 0.24 C
1383 24-02-2016 19:10:00 1.6 C 90 % 0.14 C
1384 24-02-2016 19:15:00 1.6 C 90 % 0.14 C
1385 24-02-2016 19:20:00 1.6 C 90 % 0.14 C
1386 24-02-2016 19:25:00 1.4 C 91 % 0.1 C
1387 24-02-2016 19:30:00 1.4 C 91 % 0.1 C
1388 24-02-2016 19:35:00 1.3 C 91 % 0 C
1389 24-02-2016 19:40:00 1.3 C 91 % 0 C
1390 24-02-2016 19:45:00 1.2 C 91 % -0.1 C
1391 24-02-2016 19:50:00 1.2 C 91 % -0.1 C
1392 24-02-2016 19:55:00 1.1 C 91 % -0.2 C
1393 24-02-2016 20:00:00 1.1 C 92 % -0.05 C
1394 24-02-2016 20:05:00 0.9 C 91 % -0.4 C
1395 24-02-2016 20:10:00 0.8 C 91 % -0.5 C
1396 24-02-2016 20:15:00 0.7 C 91 % -0.6 C
1397 24-02-2016 20:20:00 0.7 C 91 % -0.6 C
1398 24-02-2016 20:25:00 0.7 C 92 % -0.45 C
1399 24-02-2016 20:30:00 0.7 C 92 % -0.45 C
1400 24-02-2016 20:35:00 0.7 C 92 % -0.45 C
Sensor: Nr:Datum:Temp:Feuchte:Taupunkt:
Aussen-T/F 1401 24-02-2016 20:40:00 0.7 C 92 % -0.45 C
1402 24-02-2016 20:45:00 0.6 C 92 % -0.55 C
1403 24-02-2016 20:50:00 0.5 C 92 % -0.65 C
1404 24-02-2016 20:55:00 0.4 C 92 % -0.74 C
1405 24-02-2016 21:00:00 0.4 C 92 % -0.74 C
1406 24-02-2016 21:05:00 0.3 C 92 % -0.84 C
1407 24-02-2016 21:10:00 0.2 C 92 % -0.94 C
1408 24-02-2016 21:15:00 0.1 C 92 % -1.04 C
1409 24-02-2016 21:20:00 0 C 92 % -1.14 C
1410 24-02-2016 21:25:00 0 C 93 % -0.99 C
1411 24-02-2016 21:30:00 0 C 93 % -0.99 C
1412 24-02-2016 21:35:00 0 C 93 % -0.99 C
1413 24-02-2016 21:40:00 -0.1 C 93 % -1.09 C
1414 24-02-2016 21:45:00 -0.1 C 93 % -1.09 C
1415 24-02-2016 21:50:00 -0.1 C 93 % -1.09 C
1416 24-02-2016 21:55:00 -0.2 C 92 % -1.34 C
1417 24-02-2016 22:00:00 -0.3 C 92 % -1.44 C
1418 24-02-2016 22:05:00 -0.3 C 93 % -1.29 C
1419 24-02-2016 22:10:00 -0.3 C 93 % -1.29 C
1420 24-02-2016 22:15:00 -0.3 C 93 % -1.29 C
1421 24-02-2016 22:20:00 -0.3 C 93 % -1.29 C
1422 24-02-2016 22:25:00 -0.4 C 93 % -1.39 C
1423 24-02-2016 22:30:00 -0.5 C 93 % -1.49 C
1424 24-02-2016 22:35:00 -0.5 C 93 % -1.49 C
1425 24-02-2016 22:40:00 -0.6 C 93 % -1.59 C
Sensor: Nr:Datum:Temp:Feuchte:Taupunkt:
Aussen-T/F 1426 24-02-2016 22:45:00 -0.7 C 93 % -1.69 C
1427 24-02-2016 22:50:00 -0.7 C 93 % -1.69 C
1428 24-02-2016 22:55:00 -0.7 C 93 % -1.69 C
1429 24-02-2016 23:00:00 -0.7 C 93 % -1.69 C
1430 24-02-2016 23:05:00 -0.8 C 93 % -1.79 C
1431 24-02-2016 23:10:00 -0.7 C 94 % -1.54 C
1432 24-02-2016 23:15:00 -0.7 C 93 % -1.69 C
1433 24-02-2016 23:20:00 -0.7 C 94 % -1.54 C
1434 24-02-2016 23:25:00 -0.8 C 94 % -1.64 C
1435 24-02-2016 23:30:00 -0.8 C 93 % -1.79 C
1436 24-02-2016 23:35:00 -0.8 C 93 % -1.79 C
1437 24-02-2016 23:40:00 -0.8 C 93 % -1.79 C
1438 24-02-2016 23:45:00 -0.8 C 94 % -1.64 C
1439 24-02-2016 23:50:00 -0.8 C 94 % -1.64 C
1440 24-02-2016 23:55:00 -0.8 C 94 % -1.64 C
1441 25-02-2016 00:00:00 -0.8 C 94 % -1.64 C
1442 25-02-2016 00:05:00 -0.8 C 94 % -1.64 C
1443 25-02-2016 00:10:00 -0.8 C 94 % -1.64 C
1444 25-02-2016 00:15:00 -0.8 C 94 % -1.64 C
1445 25-02-2016 00:20:00 -0.9 C 94 % -1.74 C
1446 25-02-2016 00:25:00 -0.9 C 94 % -1.74 C
1447 25-02-2016 00:30:00 -0.9 C 94 % -1.74 C
1448 25-02-2016 00:35:00 -0.9 C 94 % -1.74 C
1449 25-02-2016 00:40:00 -1.1 C 94 % -1.94 C
1450 25-02-2016 00:45:00 -1.1 C 94 % -1.94 C
Sensor: Nr:Datum:Temp:Feuchte:Taupunkt:
Aussen-T/F 1451 25-02-2016 00:50:00 -1.1 C 94 % -1.94 C
1452 25-02-2016 00:55:00 -1.1 C 94 % -1.94 C
1453 25-02-2016 01:00:00 -1.2 C 94 % -2.04 C
1454 25-02-2016 01:05:00 -1.2 C 94 % -2.04 C
1455 25-02-2016 01:10:00 -1.2 C 94 % -2.04 C
1456 25-02-2016 01:15:00 -1.2 C 94 % -2.04 C
1457 25-02-2016 01:20:00 -1.2 C 94 % -2.04 C
1458 25-02-2016 01:25:00 -1.2 C 95 % -1.9 C
1459 25-02-2016 01:30:00 -1.2 C 95 % -1.9 C
1460 25-02-2016 01:35:00 -1.2 C 95 % -1.9 C
1461 25-02-2016 01:40:00 -1.3 C 95 % -2 C
1462 25-02-2016 01:45:00 -1.3 C 95 % -2 C
1463 25-02-2016 01:50:00 -1.3 C 95 % -2 C
1464 25-02-2016 01:55:00 -1.4 C 95 % -2.1 C
1465 25-02-2016 02:00:00 -1.4 C 95 % -2.1 C
1466 25-02-2016 02:05:00 -1.4 C 95 % -2.1 C
1467 25-02-2016 02:10:00 -1.4 C 95 % -2.1 C
1468 25-02-2016 02:15:00 -1.3 C 95 % -2 C
1469 25-02-2016 02:20:00 -1.3 C 95 % -2 C
1470 25-02-2016 02:25:00 -1.3 C 95 % -2 C
1471 25-02-2016 02:30:00 -1.4 C 95 % -2.1 C
1472 25-02-2016 02:35:00 -1.4 C 95 % -2.1 C
1473 25-02-2016 02:40:00 -1.5 C 95 % -2.19 C
1474 25-02-2016 02:45:00 -1.6 C 95 % -2.29 C
1475 25-02-2016 02:50:00 -1.7 C 95 % -2.39 C
Sensor: Nr:Datum:Temp:Feuchte:Taupunkt:
Aussen-T/F 1476 25-02-2016 02:55:00 -1.7 C 95 % -2.39 C
1477 25-02-2016 03:00:00 -1.7 C 95 % -2.39 C
1478 25-02-2016 03:05:00 -1.7 C 95 % -2.39 C
1479 25-02-2016 03:10:00 -1.7 C 95 % -2.39 C
1480 25-02-2016 03:15:00 -1.7 C 95 % -2.39 C
1481 25-02-2016 03:20:00 -1.7 C 95 % -2.39 C
1482 25-02-2016 03:25:00 -1.7 C 95 % -2.39 C
1483 25-02-2016 03:30:00 -1.7 C 95 % -2.39 C
1484 25-02-2016 03:35:00 -1.8 C 95 % -2.49 C
1485 25-02-2016 03:40:00 -1.8 C 95 % -2.49 C
1486 25-02-2016 03:45:00 -1.8 C 95 % -2.49 C
1487 25-02-2016 03:50:00 -1.8 C 95 % -2.49 C
1488 25-02-2016 03:55:00 -1.8 C 95 % -2.49 C
1489 25-02-2016 04:00:00 -1.7 C 95 % -2.39 C
1490 25-02-2016 04:05:00 -1.7 C 95 % -2.39 C
1491 25-02-2016 04:10:00 -1.7 C 96 % -2.25 C
1492 25-02-2016 04:15:00 -1.6 C 96 % -2.15 C
1493 25-02-2016 04:20:00 -1.6 C 96 % -2.15 C
1494 25-02-2016 04:25:00 -1.5 C 96 % -2.05 C
1495 25-02-2016 04:30:00 -1.5 C 96 % -2.05 C
1496 25-02-2016 04:35:00 -1.5 C 96 % -2.05 C
1497 25-02-2016 04:40:00 -1.5 C 96 % -2.05 C
1498 25-02-2016 04:45:00 -1.6 C 96 % -2.15 C
1499 25-02-2016 04:50:00 -1.6 C 96 % -2.15 C
1500 25-02-2016 04:55:00 -1.6 C 96 % -2.15 C
Sensor: Nr:Datum:Temp:Feuchte:Taupunkt:
Aussen-T/F 1501 25-02-2016 05:00:00 -1.7 C 96 % -2.25 C
1502 25-02-2016 05:05:00 -1.7 C 96 % -2.25 C
1503 25-02-2016 05:10:00 -1.8 C 96 % -2.35 C
1504 25-02-2016 05:15:00 -1.8 C 96 % -2.35 C
1505 25-02-2016 05:20:00 -1.8 C 96 % -2.35 C
1506 25-02-2016 05:25:00 -1.8 C 96 % -2.35 C
1507 25-02-2016 05:30:00 -1.8 C 96 % -2.35 C
1508 25-02-2016 05:35:00 -1.8 C 96 % -2.35 C
1509 25-02-2016 05:40:00 -1.8 C 96 % -2.35 C
1510 25-02-2016 05:45:00 -1.9 C 96 % -2.45 C
1511 25-02-2016 05:50:00 -1.9 C 96 % -2.45 C
1512 25-02-2016 05:55:00 -1.9 C 96 % -2.45 C
1513 25-02-2016 06:00:00 -2 C 96 % -2.55 C
1514 25-02-2016 06:05:00 -2 C 96 % -2.55 C
1515 25-02-2016 06:10:00 -2 C 96 % -2.55 C
1516 25-02-2016 06:15:00 -1.9 C 96 % -2.45 C
1517 25-02-2016 06:20:00 -2 C 96 % -2.55 C
1518 25-02-2016 06:25:00 -1.9 C 96 % -2.45 C
1519 25-02-2016 06:30:00 -1.9 C 96 % -2.45 C
1520 25-02-2016 06:35:00 -2 C 96 % -2.55 C
1521 25-02-2016 06:40:00 -2 C 96 % -2.55 C
1522 25-02-2016 06:45:00 -2 C 96 % -2.55 C
1523 25-02-2016 06:50:00 -2.1 C 96 % -2.65 C
1524 25-02-2016 06:55:00 -2.1 C 96 % -2.65 C
1525 25-02-2016 07:00:00 -2.2 C 96 % -2.75 C
Sensor: Nr:Datum:Temp:Feuchte:Taupunkt:
Aussen-T/F 1526 25-02-2016 07:05:00 -2.2 C 96 % -2.75 C
1527 25-02-2016 07:10:00 -2.2 C 96 % -2.75 C
1528 25-02-2016 07:15:00 -2.2 C 96 % -2.75 C
1529 25-02-2016 07:20:00 -2.3 C 96 % -2.85 C
1530 25-02-2016 07:25:00 -2.3 C 96 % -2.85 C
1531 25-02-2016 07:30:00 -2.2 C 96 % -2.75 C
1532 25-02-2016 07:35:00 -2.2 C 96 % -2.75 C
1533 25-02-2016 07:40:00 -2.3 C 96 % -2.85 C
1534 25-02-2016 07:45:00 -2.3 C 96 % -2.85 C
1535 25-02-2016 07:50:00 -2.2 C 96 % -2.75 C
1536 25-02-2016 07:55:00 -2.2 C 96 % -2.75 C
1537 25-02-2016 08:00:00 -2.2 C 96 % -2.75 C
1538 25-02-2016 08:05:00 -2.2 C 96 % -2.75 C
1539 25-02-2016 08:10:00 -2.2 C 96 % -2.75 C
1540 25-02-2016 08:15:00 -2.2 C 96 % -2.75 C
1541 25-02-2016 08:20:00 -2.2 C 96 % -2.75 C
1542 25-02-2016 08:25:00 -2.2 C 96 % -2.75 C
1543 25-02-2016 08:30:00 -2.2 C 96 % -2.75 C
1544 25-02-2016 08:35:00 -2.2 C 96 % -2.75 C
1545 25-02-2016 08:40:00 -2.1 C 96 % -2.65 C
1546 25-02-2016 08:45:00 -2.1 C 96 % -2.65 C
1547 25-02-2016 08:50:00 -2.1 C 96 % -2.65 C
1548 25-02-2016 08:55:00 -2 C 96 % -2.55 C
1549 25-02-2016 09:00:00 -1.9 C 96 % -2.45 C
1550 25-02-2016 09:05:00 -1.9 C 96 % -2.45 C
Sensor: Nr:Datum:Temp:Feuchte:Taupunkt:
Aussen-T/F 1551 25-02-2016 09:10:00 -1.9 C 97 % -2.31 C
1552 25-02-2016 09:15:00 -1.9 C 96 % -2.45 C
1553 25-02-2016 09:20:00 -1.9 C 96 % -2.45 C
1554 25-02-2016 09:25:00 -1.9 C 96 % -2.45 C
1555 25-02-2016 09:30:00 -1.9 C 96 % -2.45 C
1556 25-02-2016 09:35:00 -1.8 C 97 % -2.21 C
1557 25-02-2016 09:40:00 -1.8 C 97 % -2.21 C
1558 25-02-2016 09:45:00 -1.8 C 97 % -2.21 C
1559 25-02-2016 09:50:00 -1.8 C 97 % -2.21 C
1560 25-02-2016 09:55:00 -1.8 C 97 % -2.21 C
1561 25-02-2016 10:00:00 -1.7 C 97 % -2.11 C
1562 25-02-2016 10:05:00 -1.7 C 97 % -2.11 C
1563 25-02-2016 10:10:00 -1.7 C 97 % -2.11 C
1564 25-02-2016 10:15:00 -1.7 C 97 % -2.11 C
1565 25-02-2016 10:20:00 -1.7 C 97 % -2.11 C
1566 25-02-2016 10:25:00 -1.6 C 97 % -2.01 C
1567 25-02-2016 10:30:00 -1.6 C 97 % -2.01 C
1568 25-02-2016 10:35:00 -1.5 C 97 % -1.91 C
1569 25-02-2016 10:40:00 -1.4 C 97 % -1.81 C
1570 25-02-2016 10:45:00 -1.3 C 97 % -1.71 C
1571 25-02-2016 10:50:00 -1.2 C 97 % -1.61 C
1572 25-02-2016 10:55:00 -1.1 C 97 % -1.51 C
1573 25-02-2016 11:00:00 -1.1 C 97 % -1.51 C
1574 25-02-2016 11:05:00 -1 C 97 % -1.41 C
1575 25-02-2016 11:10:00 -1 C 97 % -1.41 C
Sensor: Nr:Datum:Temp:Feuchte:Taupunkt:
Aussen-T/F 1576 25-02-2016 11:15:00 -0.9 C 97 % -1.32 C
1577 25-02-2016 11:20:00 -0.7 C 97 % -1.12 C
1578 25-02-2016 11:25:00 -0.6 C 97 % -1.02 C
1579 25-02-2016 11:30:00 -0.7 C 97 % -1.12 C
1580 25-02-2016 11:35:00 -0.6 C 97 % -1.02 C
1581 25-02-2016 11:40:00 -0.6 C 97 % -1.02 C
1582 25-02-2016 11:45:00 -0.5 C 97 % -0.92 C
1583 25-02-2016 11:50:00 -0.4 C 97 % -0.82 C
1584 25-02-2016 11:55:00 -0.4 C 97 % -0.82 C
1585 25-02-2016 12:00:00 -0.3 C 97 % -0.72 C
1586 25-02-2016 12:05:00 -0.3 C 97 % -0.72 C
1587 25-02-2016 12:10:00 -0.2 C 97 % -0.62 C
1588 25-02-2016 12:15:00 -0.1 C 97 % -0.52 C
1589 25-02-2016 12:20:00 0.1 C 97 % -0.32 C
1590 25-02-2016 12:25:00 0.3 C 97 % -0.12 C
1591 25-02-2016 12:30:00 0.4 C 97 % -0.02 C
1592 25-02-2016 12:35:00 0.7 C 97 % 0.28 C
1593 25-02-2016 12:40:00 0.9 C 97 % 0.48 C
1594 25-02-2016 12:45:00 1.1 C 97 % 0.68 C
1595 25-02-2016 12:50:00 1.3 C 97 % 0.88 C
1596 25-02-2016 12:55:00 1.5 C 97 % 1.08 C
1597 25-02-2016 13:00:00 1.7 C 97 % 1.28 C
1598 25-02-2016 13:05:00 1.8 C 97 % 1.38 C
1599 25-02-2016 13:10:00 1.9 C 97 % 1.48 C
1600 25-02-2016 13:15:00 2.1 C 97 % 1.67 C
Sensor: Nr:Datum:Temp:Feuchte:Taupunkt:
Aussen-T/F 1601 25-02-2016 13:20:00 2.3 C 97 % 1.87 C
1602 25-02-2016 13:25:00 2.7 C 97 % 2.27 C
1603 25-02-2016 13:30:00 2.9 C 97 % 2.47 C
1604 25-02-2016 13:35:00 3.2 C 97 % 2.77 C
1605 25-02-2016 13:40:00 3.3 C 96 % 2.72 C
1606 25-02-2016 13:45:00 3.4 C 96 % 2.82 C
1607 25-02-2016 13:50:00 3.4 C 95 % 2.68 C
1608 25-02-2016 13:55:00 3.5 C 95 % 2.78 C
1609 25-02-2016 14:00:00 3.5 C 94 % 2.63 C
1610 25-02-2016 14:05:00 3.6 C 93 % 2.58 C
1611 25-02-2016 14:10:00 3.7 C 93 % 2.68 C
1612 25-02-2016 14:15:00 3.8 C 92 % 2.62 C
1613 25-02-2016 14:20:00 4 C 85 % 1.71 C
1614 25-02-2016 14:25:00 4.4 C 79 % 1.09 C
1615 25-02-2016 14:30:00 4.6 C 77 % 0.92 C
1616 25-02-2016 14:35:00 4.8 C 74 % 0.57 C
1617 25-02-2016 14:40:00 4.9 C 74 % 0.67 C
1618 25-02-2016 14:45:00 5 C 73 % 0.57 C
1619 25-02-2016 14:50:00 5.2 C 71 % 0.38 C
1620 25-02-2016 14:55:00 5.2 C 69 % -0.01 C
1621 25-02-2016 15:00:00 5.1 C 69 % -0.11 C
1622 25-02-2016 15:05:00 4.9 C 71 % 0.09 C
1623 25-02-2016 15:10:00 4.9 C 72 % 0.29 C
1624 25-02-2016 15:15:00 4.9 C 70 % -0.1 C
1625 25-02-2016 15:20:00 5 C 73 % 0.57 C
Sensor: Nr:Datum:Temp:Feuchte:Taupunkt:
Aussen-T/F 1626 25-02-2016 15:25:00 5.2 C 73 % 0.77 C
1627 25-02-2016 15:30:00 5.3 C 70 % 0.28 C
1628 25-02-2016 15:35:00 5.4 C 69 % 0.18 C
1629 25-02-2016 15:40:00 5.5 C 68 % 0.08 C
1630 25-02-2016 15:45:00 5.5 C 68 % 0.08 C
1631 25-02-2016 15:50:00 5.6 C 67 % -0.03 C
1632 25-02-2016 15:55:00 5.5 C 66 % -0.33 C
1633 25-02-2016 16:00:00 5.3 C 69 % 0.09 C
1634 25-02-2016 16:05:00 5.3 C 70 % 0.28 C
1635 25-02-2016 16:10:00 5.2 C 73 % 0.77 C
1636 25-02-2016 16:15:00 5.1 C 69 % -0.11 C
1637 25-02-2016 16:20:00 5 C 69 % -0.2 C
1638 25-02-2016 16:25:00 5.1 C 69 % -0.11 C
1639 25-02-2016 16:30:00 5.2 C 70 % 0.19 C
1640 25-02-2016 16:35:00 5.3 C 68 % -0.12 C
1641 25-02-2016 16:40:00 5.3 C 68 % -0.12 C
1642 25-02-2016 16:45:00 5.2 C 70 % 0.19 C
1643 25-02-2016 16:50:00 5.3 C 70 % 0.28 C
1644 25-02-2016 16:55:00 5.2 C 70 % 0.19 C
1645 25-02-2016 17:00:00 5.2 C 68 % -0.21 C
1646 25-02-2016 17:05:00 5.2 C 71 % 0.38 C
1647 25-02-2016 17:10:00 4.9 C 67 % -0.7 C
1648 25-02-2016 17:15:00 4.8 C 69 % -0.39 C
1649 25-02-2016 17:20:00 4.7 C 68 % -0.69 C
1650 25-02-2016 17:25:00 4.7 C 69 % -0.49 C
Sensor: Nr:Datum:Temp:Feuchte:Taupunkt:
Aussen-T/F 1651 25-02-2016 17:30:00 4.7 C 69 % -0.49 C
1652 25-02-2016 17:35:00 4.7 C 70 % -0.29 C
1653 25-02-2016 17:40:00 4.7 C 70 % -0.29 C
1654 25-02-2016 17:45:00 4.6 C 73 % 0.19 C
1655 25-02-2016 17:50:00 4.4 C 73 % 0 C
1656 25-02-2016 17:55:00 4.3 C 75 % 0.27 C
1657 25-02-2016 18:00:00 4.1 C 77 % 0.44 C
1658 25-02-2016 18:05:00 3.8 C 78 % 0.33 C
1659 25-02-2016 18:10:00 3.4 C 79 % 0.11 C
1660 25-02-2016 18:15:00 3.1 C 81 % 0.16 C
1661 25-02-2016 18:20:00 2.8 C 83 % 0.21 C
1662 25-02-2016 18:25:00 2.6 C 84 % 0.18 C
1663 25-02-2016 18:30:00 2.4 C 85 % 0.14 C
1664 25-02-2016 18:35:00 2.2 C 85 % -0.05 C
1665 25-02-2016 18:40:00 2.1 C 86 % 0.01 C
1666 25-02-2016 18:45:00 1.9 C 87 % -0.03 C
1667 25-02-2016 18:50:00 1.8 C 87 % -0.13 C
1668 25-02-2016 18:55:00 1.8 C 88 % 0.03 C
1669 25-02-2016 19:00:00 1.8 C 88 % 0.03 C
1670 25-02-2016 19:05:00 1.8 C 89 % 0.19 C
1671 25-02-2016 19:10:00 1.9 C 89 % 0.28 C
1672 25-02-2016 19:15:00 1.9 C 89 % 0.28 C
1673 25-02-2016 19:20:00 2 C 89 % 0.38 C
1674 25-02-2016 19:25:00 2.2 C 88 % 0.42 C
1675 25-02-2016 19:30:00 2.4 C 87 % 0.46 C
Sensor: Nr:Datum:Temp:Feuchte:Taupunkt:
Aussen-T/F 1676 25-02-2016 19:35:00 2.7 C 86 % 0.6 C
1677 25-02-2016 19:40:00 2.9 C 85 % 0.63 C
1678 25-02-2016 19:45:00 2.9 C 86 % 0.8 C
1679 25-02-2016 19:50:00 2.9 C 86 % 0.8 C
1680 25-02-2016 19:55:00 2.8 C 87 % 0.86 C
1681 25-02-2016 20:00:00 2.8 C 87 % 0.86 C
1682 25-02-2016 20:05:00 2.7 C 88 % 0.92 C
1683 25-02-2016 20:10:00 2.6 C 88 % 0.82 C
1684 25-02-2016 20:15:00 2.5 C 89 % 0.88 C
1685 25-02-2016 20:20:00 2.4 C 89 % 0.78 C
1686 25-02-2016 20:25:00 2.3 C 89 % 0.68 C
1687 25-02-2016 20:30:00 2.3 C 90 % 0.83 C
1688 25-02-2016 20:35:00 2.3 C 90 % 0.83 C
1689 25-02-2016 20:40:00 2.2 C 90 % 0.73 C
1690 25-02-2016 20:45:00 2.2 C 90 % 0.73 C
1691 25-02-2016 20:50:00 2.2 C 90 % 0.73 C
1692 25-02-2016 20:55:00 2.2 C 90 % 0.73 C
1693 25-02-2016 21:00:00 2.2 C 90 % 0.73 C
1694 25-02-2016 21:05:00 2.2 C 90 % 0.73 C
1695 25-02-2016 21:10:00 2.1 C 90 % 0.64 C
1696 25-02-2016 21:15:00 2.1 C 91 % 0.79 C
1697 25-02-2016 21:20:00 1.9 C 91 % 0.59 C
1698 25-02-2016 21:25:00 1.9 C 91 % 0.59 C
1699 25-02-2016 21:30:00 1.9 C 91 % 0.59 C
1700 25-02-2016 21:35:00 1.9 C 91 % 0.59 C
Sensor: Nr:Datum:Temp:Feuchte:Taupunkt:
Aussen-T/F 1701 25-02-2016 21:40:00 1.9 C 91 % 0.59 C
1702 25-02-2016 21:45:00 1.9 C 91 % 0.59 C
1703 25-02-2016 21:50:00 1.8 C 91 % 0.49 C
1704 25-02-2016 21:55:00 1.8 C 91 % 0.49 C
1705 25-02-2016 22:00:00 1.8 C 91 % 0.49 C
1706 25-02-2016 22:05:00 1.7 C 92 % 0.54 C
1707 25-02-2016 22:10:00 1.7 C 92 % 0.54 C
1708 25-02-2016 22:15:00 1.7 C 92 % 0.54 C
1709 25-02-2016 22:20:00 1.7 C 92 % 0.54 C
1710 25-02-2016 22:25:00 1.7 C 92 % 0.54 C
1711 25-02-2016 22:30:00 1.7 C 92 % 0.54 C
1712 25-02-2016 22:35:00 1.7 C 92 % 0.54 C
1713 25-02-2016 22:40:00 1.6 C 92 % 0.44 C
1714 25-02-2016 22:45:00 1.6 C 93 % 0.59 C
1715 25-02-2016 22:50:00 1.6 C 93 % 0.59 C
1716 25-02-2016 22:55:00 1.6 C 93 % 0.59 C
1717 25-02-2016 23:00:00 1.6 C 93 % 0.59 C
1718 25-02-2016 23:05:00 1.6 C 93 % 0.59 C
1719 25-02-2016 23:10:00 1.6 C 93 % 0.59 C
1720 25-02-2016 23:15:00 1.6 C 93 % 0.59 C
1721 25-02-2016 23:20:00 1.5 C 93 % 0.49 C
1722 25-02-2016 23:25:00 1.5 C 93 % 0.49 C
1723 25-02-2016 23:30:00 1.5 C 93 % 0.49 C
1724 25-02-2016 23:35:00 1.4 C 92 % 0.25 C
1725 25-02-2016 23:40:00 1.4 C 92 % 0.25 C
Sensor: Nr:Datum:Temp:Feuchte:Taupunkt:
Aussen-T/F 1726 25-02-2016 23:45:00 1.3 C 92 % 0.15 C
1727 25-02-2016 23:50:00 1.3 C 92 % 0.15 C
1728 25-02-2016 23:55:00 1.2 C 92 % 0.05 C
1729 26-02-2016 00:00:00 1.3 C 92 % 0.15 C
1730 26-02-2016 00:05:00 1.3 C 93 % 0.3 C
1731 26-02-2016 00:10:00 1.3 C 93 % 0.3 C
1732 26-02-2016 00:15:00 1.4 C 93 % 0.4 C
1733 26-02-2016 00:20:00 1.4 C 93 % 0.4 C
1734 26-02-2016 00:25:00 1.4 C 93 % 0.4 C
1735 26-02-2016 00:30:00 1.4 C 92 % 0.25 C
1736 26-02-2016 00:35:00 1.4 C 92 % 0.25 C
1737 26-02-2016 00:40:00 1.4 C 92 % 0.25 C
1738 26-02-2016 00:45:00 1.5 C 92 % 0.35 C
1739 26-02-2016 00:50:00 1.5 C 92 % 0.35 C
1740 26-02-2016 00:55:00 1.5 C 92 % 0.35 C
1741 26-02-2016 01:00:00 1.5 C 92 % 0.35 C
1742 26-02-2016 01:05:00 1.5 C 92 % 0.35 C
1743 26-02-2016 01:10:00 1.4 C 92 % 0.25 C
1744 26-02-2016 01:15:00 1.4 C 92 % 0.25 C
1745 26-02-2016 01:20:00 1.3 C 92 % 0.15 C
1746 26-02-2016 01:25:00 1.3 C 92 % 0.15 C
1747 26-02-2016 01:30:00 1.3 C 92 % 0.15 C
1748 26-02-2016 01:35:00 1.2 C 92 % 0.05 C
1749 26-02-2016 01:40:00 1.2 C 92 % 0.05 C
1750 26-02-2016 01:45:00 1.2 C 92 % 0.05 C
Sensor: Nr:Datum:Temp:Feuchte:Taupunkt:
Aussen-T/F 1751 26-02-2016 01:50:00 1.1 C 92 % -0.05 C
1752 26-02-2016 01:55:00 1.1 C 92 % -0.05 C
1753 26-02-2016 02:00:00 1.1 C 93 % 0.1 C
1754 26-02-2016 02:05:00 1.1 C 93 % 0.1 C
1755 26-02-2016 02:10:00 1.1 C 93 % 0.1 C
1756 26-02-2016 02:15:00 1.1 C 92 % -0.05 C
1757 26-02-2016 02:20:00 1.1 C 93 % 0.1 C
1758 26-02-2016 02:25:00 1.1 C 92 % -0.05 C
1759 26-02-2016 02:30:00 1.1 C 92 % -0.05 C
1760 26-02-2016 02:35:00 1.1 C 92 % -0.05 C
1761 26-02-2016 02:40:00 1.1 C 93 % 0.1 C
1762 26-02-2016 02:45:00 1.2 C 93 % 0.2 C
1763 26-02-2016 02:50:00 1.2 C 93 % 0.2 C
1764 26-02-2016 02:55:00 1.2 C 93 % 0.2 C
1765 26-02-2016 03:00:00 1.2 C 93 % 0.2 C
1766 26-02-2016 03:05:00 1.2 C 93 % 0.2 C
1767 26-02-2016 03:10:00 1.2 C 93 % 0.2 C
1768 26-02-2016 03:15:00 1.3 C 93 % 0.3 C
1769 26-02-2016 03:20:00 1.3 C 93 % 0.3 C
1770 26-02-2016 03:25:00 1.3 C 93 % 0.3 C
1771 26-02-2016 03:30:00 1.3 C 93 % 0.3 C
1772 26-02-2016 03:35:00 1.3 C 93 % 0.3 C
1773 26-02-2016 03:40:00 1.3 C 93 % 0.3 C
1774 26-02-2016 03:45:00 1.3 C 93 % 0.3 C
1775 26-02-2016 03:50:00 1.3 C 93 % 0.3 C
Sensor: Nr:Datum:Temp:Feuchte:Taupunkt:
Aussen-T/F 1776 26-02-2016 03:55:00 1.3 C 93 % 0.3 C
1777 26-02-2016 04:00:00 1.4 C 93 % 0.4 C
1778 26-02-2016 04:05:00 1.4 C 93 % 0.4 C
1779 26-02-2016 04:10:00 1.4 C 93 % 0.4 C
1780 26-02-2016 04:15:00 1.4 C 93 % 0.4 C
1781 26-02-2016 04:20:00 1.3 C 93 % 0.3 C
1782 26-02-2016 04:25:00 1.3 C 93 % 0.3 C
1783 26-02-2016 04:30:00 1.2 C 93 % 0.2 C
1784 26-02-2016 04:35:00 1.2 C 93 % 0.2 C
1785 26-02-2016 04:40:00 1.1 C 93 % 0.1 C
1786 26-02-2016 04:45:00 0.9 C 93 % -0.1 C
1787 26-02-2016 04:50:00 0.8 C 93 % -0.2 C
1788 26-02-2016 04:55:00 0.7 C 93 % -0.3 C
1789 26-02-2016 05:00:00 0.7 C 93 % -0.3 C
1790 26-02-2016 05:05:00 0.6 C 93 % -0.4 C
1791 26-02-2016 05:10:00 0.5 C 93 % -0.5 C
1792 26-02-2016 05:15:00 0.4 C 93 % -0.6 C
1793 26-02-2016 05:20:00 0.3 C 93 % -0.7 C
1794 26-02-2016 05:25:00 0.2 C 93 % -0.79 C
1795 26-02-2016 05:30:00 0.2 C 93 % -0.79 C
1796 26-02-2016 05:35:00 0.1 C 93 % -0.89 C
1797 26-02-2016 05:40:00 0.1 C 93 % -0.89 C
1798 26-02-2016 05:45:00 0 C 93 % -0.99 C
1799 26-02-2016 05:50:00 -0.1 C 93 % -1.09 C
1800 26-02-2016 05:55:00 -0.1 C 93 % -1.09 C
Sensor: Nr:Datum:Temp:Feuchte:Taupunkt:
Aussen-T/F 1801 26-02-2016 06:00:00 -0.1 C 93 % -1.09 C
1802 26-02-2016 06:05:00 -0.1 C 94 % -0.95 C
1803 26-02-2016 06:10:00 0 C 94 % -0.85 C
1804 26-02-2016 06:15:00 0.1 C 94 % -0.75 C
1805 26-02-2016 06:20:00 0.1 C 94 % -0.75 C
1806 26-02-2016 06:25:00 0.1 C 94 % -0.75 C
1807 26-02-2016 06:30:00 0.1 C 94 % -0.75 C
1808 26-02-2016 06:35:00 0.2 C 94 % -0.65 C
1809 26-02-2016 06:40:00 0.2 C 94 % -0.65 C
1810 26-02-2016 06:45:00 0.2 C 94 % -0.65 C
1811 26-02-2016 06:50:00 0.2 C 94 % -0.65 C
1812 26-02-2016 06:55:00 0.2 C 94 % -0.65 C
1813 26-02-2016 07:00:00 0.2 C 94 % -0.65 C
1814 26-02-2016 07:05:00 0.2 C 94 % -0.65 C
1815 26-02-2016 07:10:00 0.2 C 94 % -0.65 C
1816 26-02-2016 07:15:00 0.2 C 94 % -0.65 C
1817 26-02-2016 07:20:00 0.2 C 94 % -0.65 C
1818 26-02-2016 07:25:00 0.2 C 94 % -0.65 C
1819 26-02-2016 07:30:00 0.2 C 94 % -0.65 C
1820 26-02-2016 07:35:00 0.2 C 94 % -0.65 C
1821 26-02-2016 07:40:00 0.2 C 94 % -0.65 C
1822 26-02-2016 07:45:00 0.2 C 94 % -0.65 C
1823 26-02-2016 07:50:00 0.2 C 94 % -0.65 C
1824 26-02-2016 07:55:00 0.2 C 95 % -0.5 C
1825 26-02-2016 08:00:00 0.3 C 95 % -0.4 C
Sensor: Nr:Datum:Temp:Feuchte:Taupunkt:
Aussen-T/F 1826 26-02-2016 08:05:00 0.3 C 95 % -0.4 C
1827 26-02-2016 08:10:00 0.4 C 95 % -0.31 C
1828 26-02-2016 08:15:00 0.5 C 95 % -0.21 C
1829 26-02-2016 08:20:00 0.6 C 95 % -0.11 C
1830 26-02-2016 08:25:00 0.6 C 95 % -0.11 C
1831 26-02-2016 08:30:00 0.7 C 95 % -0.01 C
1832 26-02-2016 08:35:00 0.8 C 95 % 0.09 C
1833 26-02-2016 08:40:00 0.8 C 95 % 0.09 C
1834 26-02-2016 08:45:00 0.8 C 95 % 0.09 C
1835 26-02-2016 08:50:00 0.9 C 95 % 0.19 C
1836 26-02-2016 08:55:00 0.9 C 95 % 0.19 C
1837 26-02-2016 09:00:00 1 C 95 % 0.29 C
1838 26-02-2016 09:05:00 1.1 C 94 % 0.24 C
1839 26-02-2016 09:10:00 1.2 C 94 % 0.34 C
1840 26-02-2016 09:15:00 1.2 C 94 % 0.34 C
1841 26-02-2016 09:20:00 1.3 C 94 % 0.44 C
1842 26-02-2016 09:25:00 1.3 C 94 % 0.44 C
1843 26-02-2016 09:30:00 1.4 C 94 % 0.54 C
1844 26-02-2016 09:35:00 1.6 C 94 % 0.74 C
1845 26-02-2016 09:40:00 1.6 C 94 % 0.74 C
1846 26-02-2016 09:45:00 1.7 C 93 % 0.69 C
1847 26-02-2016 09:50:00 1.8 C 93 % 0.79 C
1848 26-02-2016 09:55:00 1.9 C 93 % 0.89 C
1849 26-02-2016 10:00:00 2 C 92 % 0.84 C
1850 26-02-2016 10:05:00 2.1 C 92 % 0.94 C
Sensor: Nr:Datum:Temp:Feuchte:Taupunkt:
Aussen-T/F 1851 26-02-2016 10:10:00 2.3 C 91 % 0.99 C
1852 26-02-2016 10:15:00 2.4 C 91 % 1.08 C
1853 26-02-2016 10:20:00 2.5 C 90 % 1.03 C
1854 26-02-2016 10:25:00 2.6 C 90 % 1.13 C
1855 26-02-2016 10:30:00 2.7 C 90 % 1.23 C
1856 26-02-2016 10:35:00 2.8 C 89 % 1.17 C
1857 26-02-2016 10:40:00 2.9 C 88 % 1.11 C
1858 26-02-2016 10:45:00 3.1 C 87 % 1.15 C
1859 26-02-2016 10:50:00 3.2 C 86 % 1.09 C
1860 26-02-2016 10:55:00 3.3 C 85 % 1.03 C
1861 26-02-2016 11:00:00 3.4 C 85 % 1.12 C
1862 26-02-2016 11:05:00 3.6 C 85 % 1.32 C
1863 26-02-2016 11:10:00 3.7 C 83 % 1.09 C
1864 26-02-2016 11:15:00 3.8 C 83 % 1.19 C
1865 26-02-2016 11:20:00 3.9 C 82 % 1.12 C
1866 26-02-2016 11:25:00 4.1 C 83 % 1.48 C
1867 26-02-2016 11:30:00 4.3 C 82 % 1.51 C
1868 26-02-2016 11:35:00 4.4 C 80 % 1.26 C
1869 26-02-2016 11:40:00 4.4 C 79 % 1.09 C
1870 26-02-2016 11:45:00 4.4 C 78 % 0.91 C
1871 26-02-2016 11:50:00 4.4 C 76 % 0.55 C
1872 26-02-2016 11:55:00 4.4 C 77 % 0.73 C
1873 26-02-2016 12:00:00 4.4 C 75 % 0.37 C
1874 26-02-2016 12:05:00 4.4 C 75 % 0.37 C
1875 26-02-2016 12:10:00 4.5 C 75 % 0.46 C
Sensor: Nr:Datum:Temp:Feuchte:Taupunkt:
Aussen-T/F 1876 26-02-2016 12:15:00 4.6 C 75 % 0.56 C
1877 26-02-2016 12:20:00 4.6 C 75 % 0.56 C
1878 26-02-2016 12:25:00 4.6 C 77 % 0.92 C
1879 26-02-2016 12:30:00 4.7 C 77 % 1.02 C
1880 26-02-2016 12:35:00 4.7 C 77 % 1.02 C
1881 26-02-2016 12:40:00 4.7 C 76 % 0.84 C
1882 26-02-2016 12:45:00 4.6 C 77 % 0.92 C
1883 26-02-2016 12:50:00 4.6 C 76 % 0.74 C
1884 26-02-2016 12:55:00 4.6 C 78 % 1.1 C
1885 26-02-2016 13:00:00 4.6 C 76 % 0.74 C
1886 26-02-2016 13:05:00 4.7 C 77 % 1.02 C
1887 26-02-2016 13:10:00 4.7 C 77 % 1.02 C
1888 26-02-2016 13:15:00 4.7 C 76 % 0.84 C
1889 26-02-2016 13:20:00 4.7 C 77 % 1.02 C
1890 26-02-2016 13:25:00 4.7 C 76 % 0.84 C
1891 26-02-2016 13:30:00 4.7 C 77 % 1.02 C
1892 26-02-2016 13:35:00 4.8 C 76 % 0.94 C
1893 26-02-2016 13:40:00 4.8 C 76 % 0.94 C
1894 26-02-2016 13:45:00 4.9 C 76 % 1.03 C
1895 26-02-2016 13:50:00 4.9 C 76 % 1.03 C
1896 26-02-2016 13:55:00 4.9 C 75 % 0.85 C
1897 26-02-2016 14:00:00 4.9 C 75 % 0.85 C
1898 26-02-2016 14:05:00 4.9 C 75 % 0.85 C
1899 26-02-2016 14:10:00 5 C 75 % 0.95 C
1900 26-02-2016 14:15:00 5 C 75 % 0.95 C
Sensor: Nr:Datum:Temp:Feuchte:Taupunkt:
Aussen-T/F 1901 26-02-2016 14:20:00 5 C 75 % 0.95 C
1902 26-02-2016 14:25:00 5 C 74 % 0.76 C
1903 26-02-2016 14:30:00 5.1 C 72 % 0.48 C
1904 26-02-2016 14:35:00 5.1 C 74 % 0.86 C
1905 26-02-2016 14:40:00 5.1 C 74 % 0.86 C
1906 26-02-2016 14:45:00 5.1 C 73 % 0.67 C
1907 26-02-2016 14:50:00 5.1 C 73 % 0.67 C
1908 26-02-2016 14:55:00 5.1 C 73 % 0.67 C
1909 26-02-2016 15:00:00 5.1 C 73 % 0.67 C
1910 26-02-2016 15:05:00 5.1 C 73 % 0.67 C
1911 26-02-2016 15:10:00 5.1 C 72 % 0.48 C
1912 26-02-2016 15:15:00 5.2 C 72 % 0.58 C
1913 26-02-2016 15:20:00 5.2 C 69 % -0.01 C
1914 26-02-2016 15:25:00 5.2 C 68 % -0.21 C
1915 26-02-2016 15:30:00 5.2 C 68 % -0.21 C
1916 26-02-2016 15:35:00 5.2 C 68 % -0.21 C
1917 26-02-2016 15:40:00 5.2 C 68 % -0.21 C
1918 26-02-2016 15:45:00 5.2 C 68 % -0.21 C
1919 26-02-2016 15:50:00 5.2 C 68 % -0.21 C
1920 26-02-2016 15:55:00 5.2 C 70 % 0.19 C
1921 26-02-2016 16:00:00 5.1 C 72 % 0.48 C
1922 26-02-2016 16:05:00 5.1 C 72 % 0.48 C
1923 26-02-2016 16:10:00 5 C 72 % 0.38 C
1924 26-02-2016 16:15:00 4.9 C 73 % 0.48 C
1925 26-02-2016 16:20:00 4.9 C 74 % 0.67 C
Sensor: Nr:Datum:Temp:Feuchte:Taupunkt:
Aussen-T/F 1926 26-02-2016 16:25:00 4.8 C 73 % 0.38 C
1927 26-02-2016 16:30:00 4.8 C 73 % 0.38 C
1928 26-02-2016 16:35:00 4.7 C 73 % 0.28 C
1929 26-02-2016 16:40:00 4.7 C 74 % 0.47 C
1930 26-02-2016 16:45:00 4.7 C 76 % 0.84 C
1931 26-02-2016 16:50:00 4.7 C 76 % 0.84 C
1932 26-02-2016 16:55:00 4.6 C 75 % 0.56 C
1933 26-02-2016 17:00:00 4.6 C 73 % 0.19 C
1934 26-02-2016 17:05:00 4.6 C 74 % 0.38 C
1935 26-02-2016 17:10:00 4.6 C 74 % 0.38 C
1936 26-02-2016 17:15:00 4.6 C 74 % 0.38 C
1937 26-02-2016 17:20:00 4.5 C 75 % 0.46 C
1938 26-02-2016 17:25:00 4.5 C 74 % 0.28 C
1939 26-02-2016 17:30:00 4.4 C 77 % 0.73 C
1940 26-02-2016 17:35:00 4.4 C 76 % 0.55 C
1941 26-02-2016 17:40:00 4.3 C 76 % 0.45 C
1942 26-02-2016 17:45:00 4.2 C 74 % -0.01 C
1943 26-02-2016 17:50:00 4.2 C 73 % -0.2 C
1944 26-02-2016 17:55:00 4.1 C 75 % 0.08 C
1945 26-02-2016 18:00:00 4.1 C 77 % 0.44 C
1946 26-02-2016 18:05:00 3.9 C 75 % -0.12 C
1947 26-02-2016 18:10:00 3.8 C 76 % -0.03 C
1948 26-02-2016 18:15:00 3.8 C 77 % 0.15 C
1949 26-02-2016 18:20:00 3.7 C 78 % 0.23 C
1950 26-02-2016 18:25:00 3.6 C 79 % 0.31 C
Sensor: Nr:Datum:Temp:Feuchte:Taupunkt:
Aussen-T/F 1951 26-02-2016 18:30:00 3.4 C 80 % 0.29 C
1952 26-02-2016 18:35:00 3.2 C 79 % -0.08 C
1953 26-02-2016 18:40:00 3 C 80 % -0.1 C
1954 26-02-2016 18:45:00 2.8 C 80 % -0.3 C
1955 26-02-2016 18:50:00 2.6 C 80 % -0.49 C
1956 26-02-2016 18:55:00 2.3 C 81 % -0.62 C
1957 26-02-2016 19:00:00 2.1 C 81 % -0.81 C
1958 26-02-2016 19:05:00 1.9 C 82 % -0.84 C
1959 26-02-2016 19:10:00 1.8 C 84 % -0.61 C
1960 26-02-2016 19:15:00 1.8 C 84 % -0.61 C
1961 26-02-2016 19:20:00 1.8 C 85 % -0.45 C
1962 26-02-2016 19:25:00 1.8 C 85 % -0.45 C
1963 26-02-2016 19:30:00 1.9 C 86 % -0.19 C
1964 26-02-2016 19:35:00 1.9 C 85 % -0.35 C
1965 26-02-2016 19:40:00 1.9 C 85 % -0.35 C
1966 26-02-2016 19:45:00 1.9 C 85 % -0.35 C
1967 26-02-2016 19:50:00 1.8 C 85 % -0.45 C
1968 26-02-2016 19:55:00 1.7 C 85 % -0.54 C
1969 26-02-2016 20:00:00 1.7 C 85 % -0.54 C
1970 26-02-2016 20:05:00 1.6 C 86 % -0.48 C
1971 26-02-2016 20:10:00 1.6 C 86 % -0.48 C
1972 26-02-2016 20:15:00 1.6 C 87 % -0.32 C
1973 26-02-2016 20:20:00 1.6 C 87 % -0.32 C
1974 26-02-2016 20:25:00 1.7 C 87 % -0.23 C
1975 26-02-2016 20:30:00 1.7 C 87 % -0.23 C
Sensor: Nr:Datum:Temp:Feuchte:Taupunkt:
Aussen-T/F 1976 26-02-2016 20:35:00 1.8 C 87 % -0.13 C
1977 26-02-2016 20:40:00 1.8 C 87 % -0.13 C
1978 26-02-2016 20:45:00 1.8 C 87 % -0.13 C
1979 26-02-2016 20:50:00 1.9 C 87 % -0.03 C
1980 26-02-2016 20:55:00 1.9 C 87 % -0.03 C
1981 26-02-2016 21:00:00 2 C 86 % -0.09 C
1982 26-02-2016 21:05:00 2 C 86 % -0.09 C
1983 26-02-2016 21:10:00 2 C 86 % -0.09 C
1984 26-02-2016 21:15:00 2 C 86 % -0.09 C
1985 26-02-2016 21:20:00 2.1 C 86 % 0.01 C
1986 26-02-2016 21:25:00 2 C 86 % -0.09 C
1987 26-02-2016 21:30:00 2 C 86 % -0.09 C
1988 26-02-2016 21:35:00 2 C 86 % -0.09 C
1989 26-02-2016 21:40:00 2 C 85 % -0.25 C
1990 26-02-2016 21:45:00 2 C 86 % -0.09 C
1991 26-02-2016 21:50:00 1.9 C 86 % -0.19 C
1992 26-02-2016 21:55:00 1.9 C 86 % -0.19 C
1993 26-02-2016 22:00:00 1.9 C 86 % -0.19 C
1994 26-02-2016 22:05:00 1.9 C 86 % -0.19 C
1995 26-02-2016 22:10:00 1.9 C 85 % -0.35 C
1996 26-02-2016 22:15:00 1.9 C 85 % -0.35 C
1997 26-02-2016 22:20:00 1.8 C 84 % -0.61 C
1998 26-02-2016 22:25:00 1.8 C 84 % -0.61 C
1999 26-02-2016 22:30:00 1.7 C 84 % -0.71 C
2000 26-02-2016 22:35:00 1.7 C 84 % -0.71 C
Sensor: Nr:Datum:Temp:Feuchte:Taupunkt:
Aussen-T/F 2001 26-02-2016 22:40:00 1.7 C 85 % -0.54 C
2002 26-02-2016 22:45:00 1.7 C 85 % -0.54 C
2003 26-02-2016 22:50:00 1.7 C 85 % -0.54 C
2004 26-02-2016 22:55:00 1.7 C 85 % -0.54 C
2005 26-02-2016 23:00:00 1.7 C 85 % -0.54 C
2006 26-02-2016 23:05:00 1.7 C 84 % -0.71 C
2007 26-02-2016 23:10:00 1.7 C 84 % -0.71 C
2008 26-02-2016 23:15:00 1.7 C 84 % -0.71 C
2009 26-02-2016 23:20:00 1.7 C 83 % -0.87 C
2010 26-02-2016 23:25:00 1.8 C 84 % -0.61 C
2011 26-02-2016 23:30:00 1.8 C 84 % -0.61 C
2012 26-02-2016 23:35:00 1.8 C 84 % -0.61 C
2013 26-02-2016 23:40:00 1.7 C 85 % -0.54 C
2014 26-02-2016 23:45:00 1.7 C 84 % -0.71 C
2015 26-02-2016 23:50:00 1.7 C 84 % -0.71 C
2016 26-02-2016 23:55:00 1.7 C 84 % -0.71 C
2017 27-02-2016 00:00:00 1.7 C 84 % -0.71 C
2018 27-02-2016 00:05:00 1.7 C 84 % -0.71 C
2019 27-02-2016 00:10:00 1.7 C 83 % -0.87 C
2020 27-02-2016 00:15:00 1.7 C 83 % -0.87 C
2021 27-02-2016 00:20:00 1.8 C 83 % -0.77 C
2022 27-02-2016 00:25:00 1.8 C 83 % -0.77 C
2023 27-02-2016 00:30:00 1.8 C 83 % -0.77 C
2024 27-02-2016 00:35:00 1.8 C 83 % -0.77 C
2025 27-02-2016 00:40:00 1.8 C 84 % -0.61 C
Sensor: Nr:Datum:Temp:Feuchte:Taupunkt:
Aussen-T/F 2026 27-02-2016 00:45:00 1.8 C 84 % -0.61 C
2027 27-02-2016 00:50:00 1.8 C 84 % -0.61 C
2028 27-02-2016 00:55:00 1.8 C 84 % -0.61 C
2029 27-02-2016 01:00:00 1.8 C 85 % -0.45 C
2030 27-02-2016 01:05:00 1.8 C 85 % -0.45 C
2031 27-02-2016 01:10:00 1.8 C 85 % -0.45 C
2032 27-02-2016 01:15:00 1.8 C 86 % -0.29 C
2033 27-02-2016 01:20:00 1.8 C 85 % -0.45 C
2034 27-02-2016 01:25:00 1.7 C 85 % -0.54 C
2035 27-02-2016 01:30:00 1.8 C 85 % -0.45 C
2036 27-02-2016 01:35:00 1.7 C 85 % -0.54 C
2037 27-02-2016 01:40:00 1.7 C 84 % -0.71 C
2038 27-02-2016 01:45:00 1.7 C 84 % -0.71 C
2039 27-02-2016 01:50:00 1.7 C 84 % -0.71 C
2040 27-02-2016 01:55:00 1.7 C 84 % -0.71 C
2041 27-02-2016 02:00:00 1.7 C 84 % -0.71 C
2042 27-02-2016 02:05:00 1.7 C 84 % -0.71 C
2043 27-02-2016 02:10:00 1.7 C 84 % -0.71 C
2044 27-02-2016 02:15:00 1.7 C 84 % -0.71 C
2045 27-02-2016 02:20:00 1.7 C 85 % -0.54 C
2046 27-02-2016 02:25:00 1.7 C 84 % -0.71 C
2047 27-02-2016 02:30:00 1.7 C 85 % -0.54 C
2048 27-02-2016 02:35:00 1.7 C 85 % -0.54 C
2049 27-02-2016 02:40:00 1.6 C 85 % -0.64 C
2050 27-02-2016 02:45:00 1.6 C 85 % -0.64 C
Sensor: Nr:Datum:Temp:Feuchte:Taupunkt:
Aussen-T/F 2051 27-02-2016 02:50:00 1.6 C 85 % -0.64 C
2052 27-02-2016 02:55:00 1.6 C 85 % -0.64 C
2053 27-02-2016 03:00:00 1.6 C 85 % -0.64 C
2054 27-02-2016 03:05:00 1.5 C 85 % -0.74 C
2055 27-02-2016 03:10:00 1.4 C 85 % -0.84 C
2056 27-02-2016 03:15:00 1.4 C 85 % -0.84 C
2057 27-02-2016 03:20:00 1.4 C 85 % -0.84 C
2058 27-02-2016 03:25:00 1.4 C 85 % -0.84 C
2059 27-02-2016 03:30:00 1.3 C 85 % -0.94 C
2060 27-02-2016 03:35:00 1.3 C 85 % -0.94 C
2061 27-02-2016 03:40:00 1.2 C 85 % -1.03 C
2062 27-02-2016 03:45:00 1.1 C 85 % -1.13 C
2063 27-02-2016 03:50:00 1 C 85 % -1.23 C
2064 27-02-2016 03:55:00 0.9 C 85 % -1.33 C
2065 27-02-2016 04:00:00 0.9 C 85 % -1.33 C
2066 27-02-2016 04:05:00 0.8 C 85 % -1.43 C
2067 27-02-2016 04:10:00 0.7 C 85 % -1.53 C
2068 27-02-2016 04:15:00 0.5 C 84 % -1.88 C
2069 27-02-2016 04:20:00 0.4 C 85 % -1.82 C
2070 27-02-2016 04:25:00 0.3 C 85 % -1.92 C
2071 27-02-2016 04:30:00 0.2 C 86 % -1.86 C
2072 27-02-2016 04:35:00 0.1 C 86 % -1.96 C
2073 27-02-2016 04:40:00 -0.1 C 86 % -2.16 C
2074 27-02-2016 04:45:00 -0.2 C 86 % -2.25 C
2075 27-02-2016 04:50:00 -0.2 C 87 % -2.1 C
Sensor: Nr:Datum:Temp:Feuchte:Taupunkt:
Aussen-T/F 2076 27-02-2016 04:55:00 -0.3 C 87 % -2.2 C
2077 27-02-2016 05:00:00 -0.3 C 87 % -2.2 C
2078 27-02-2016 05:05:00 -0.4 C 87 % -2.29 C
2079 27-02-2016 05:10:00 -0.4 C 87 % -2.29 C
2080 27-02-2016 05:15:00 -0.5 C 87 % -2.39 C
2081 27-02-2016 05:20:00 -0.6 C 87 % -2.49 C
2082 27-02-2016 05:25:00 -0.6 C 87 % -2.49 C
2083 27-02-2016 05:30:00 -0.7 C 87 % -2.59 C
2084 27-02-2016 05:35:00 -0.7 C 87 % -2.59 C
2085 27-02-2016 05:40:00 -0.7 C 88 % -2.44 C
2086 27-02-2016 05:45:00 -0.7 C 87 % -2.59 C
2087 27-02-2016 05:50:00 -0.7 C 87 % -2.59 C
2088 27-02-2016 05:55:00 -0.7 C 88 % -2.44 C
2089 27-02-2016 06:00:00 -0.7 C 88 % -2.44 C
2090 27-02-2016 06:05:00 -0.8 C 87 % -2.69 C
2091 27-02-2016 06:10:00 -0.8 C 88 % -2.53 C
2092 27-02-2016 06:15:00 -0.8 C 87 % -2.69 C
2093 27-02-2016 06:20:00 -0.8 C 87 % -2.69 C
2094 27-02-2016 06:25:00 -0.8 C 88 % -2.53 C
2095 27-02-2016 06:30:00 -0.7 C 87 % -2.59 C
2096 27-02-2016 06:35:00 -0.7 C 87 % -2.59 C
2097 27-02-2016 06:40:00 -0.7 C 87 % -2.59 C
2098 27-02-2016 06:45:00 -0.7 C 87 % -2.59 C
2099 27-02-2016 06:50:00 -0.8 C 87 % -2.69 C
2100 27-02-2016 06:55:00 -0.8 C 87 % -2.69 C
Sensor: Nr:Datum:Temp:Feuchte:Taupunkt:
Aussen-T/F 2101 27-02-2016 07:00:00 -0.8 C 87 % -2.69 C
2102 27-02-2016 07:05:00 -0.8 C 87 % -2.69 C
2103 27-02-2016 07:10:00 -0.8 C 88 % -2.53 C
2104 27-02-2016 07:15:00 -0.8 C 87 % -2.69 C
2105 27-02-2016 07:20:00 -0.8 C 87 % -2.69 C
2106 27-02-2016 07:25:00 -0.8 C 88 % -2.53 C
2107 27-02-2016 07:30:00 -0.8 C 87 % -2.69 C
2108 27-02-2016 07:35:00 -0.9 C 87 % -2.79 C
2109 27-02-2016 07:40:00 -0.8 C 87 % -2.69 C
2110 27-02-2016 07:45:00 -0.8 C 87 % -2.69 C
2111 27-02-2016 07:50:00 -0.8 C 87 % -2.69 C
2112 27-02-2016 07:55:00 -0.7 C 87 % -2.59 C
2113 27-02-2016 08:00:00 -0.7 C 87 % -2.59 C
2114 27-02-2016 08:05:00 -0.7 C 87 % -2.59 C
2115 27-02-2016 08:10:00 -0.7 C 87 % -2.59 C
2116 27-02-2016 08:15:00 -0.6 C 88 % -2.34 C
2117 27-02-2016 08:20:00 -0.6 C 88 % -2.34 C
2118 27-02-2016 08:25:00 -0.6 C 87 % -2.49 C
2119 27-02-2016 08:30:00 -0.6 C 88 % -2.34 C
2120 27-02-2016 08:35:00 -0.6 C 88 % -2.34 C
2121 27-02-2016 08:40:00 -0.6 C 88 % -2.34 C
2122 27-02-2016 08:45:00 -0.6 C 88 % -2.34 C
2123 27-02-2016 08:50:00 -0.6 C 88 % -2.34 C
2124 27-02-2016 08:55:00 -0.6 C 88 % -2.34 C
2125 27-02-2016 09:00:00 -0.6 C 88 % -2.34 C
Sensor: Nr:Datum:Temp:Feuchte:Taupunkt:
Aussen-T/F 2126 27-02-2016 09:05:00 -0.5 C 88 % -2.24 C
2127 27-02-2016 09:10:00 -0.5 C 88 % -2.24 C
2128 27-02-2016 09:15:00 -0.4 C 88 % -2.14 C
2129 27-02-2016 09:20:00 -0.4 C 88 % -2.14 C
2130 27-02-2016 09:25:00 -0.3 C 88 % -2.04 C
2131 27-02-2016 09:30:00 -0.3 C 88 % -2.04 C
2132 27-02-2016 09:35:00 -0.2 C 88 % -1.94 C
2133 27-02-2016 09:40:00 -0.2 C 88 % -1.94 C
2134 27-02-2016 09:45:00 -0.1 C 88 % -1.84 C
2135 27-02-2016 09:50:00 -0.1 C 87 % -2 C
2136 27-02-2016 09:55:00 0 C 87 % -1.9 C
2137 27-02-2016 10:00:00 0.1 C 87 % -1.8 C
2138 27-02-2016 10:05:00 0.1 C 87 % -1.8 C
2139 27-02-2016 10:10:00 0.2 C 86 % -1.86 C
2140 27-02-2016 10:15:00 0.3 C 86 % -1.76 C
2141 27-02-2016 10:20:00 0.3 C 86 % -1.76 C
2142 27-02-2016 10:25:00 0.4 C 86 % -1.66 C
2143 27-02-2016 10:30:00 0.6 C 86 % -1.46 C
2144 27-02-2016 10:35:00 0.7 C 86 % -1.37 C
2145 27-02-2016 10:40:00 1 C 82 % -1.72 C
2146 27-02-2016 10:45:00 1.4 C 83 % -1.16 C
2147 27-02-2016 10:50:00 1.7 C 83 % -0.87 C
2148 27-02-2016 10:55:00 1.8 C 82 % -0.94 C
2149 27-02-2016 11:00:00 2.1 C 80 % -0.98 C
2150 27-02-2016 11:05:00 2.4 C 78 % -1.03 C
Sensor: Nr:Datum:Temp:Feuchte:Taupunkt:
Aussen-T/F 2151 27-02-2016 11:10:00 2.8 C 79 % -0.47 C
2152 27-02-2016 11:15:00 3.2 C 77 % -0.43 C
2153 27-02-2016 11:20:00 3.5 C 72 % -1.06 C
2154 27-02-2016 11:25:00 3.6 C 72 % -0.96 C
2155 27-02-2016 11:30:00 3.6 C 74 % -0.59 C
2156 27-02-2016 11:35:00 3.6 C 74 % -0.59 C
2157 27-02-2016 11:40:00 3.6 C 71 % -1.15 C
2158 27-02-2016 11:45:00 3.7 C 71 % -1.06 C
2159 27-02-2016 11:50:00 3.7 C 71 % -1.06 C
2160 27-02-2016 11:55:00 3.8 C 68 % -1.55 C
2161 27-02-2016 12:00:00 3.9 C 69 % -1.26 C
2162 27-02-2016 12:05:00 4.1 C 66 % -1.67 C
2163 27-02-2016 12:10:00 4.3 C 70 % -0.68 C
2164 27-02-2016 12:15:00 4.4 C 66 % -1.38 C
2165 27-02-2016 12:20:00 4.6 C 65 % -1.4 C
2166 27-02-2016 12:25:00 4.7 C 63 % -1.73 C
2167 27-02-2016 12:30:00 4.8 C 62 % -1.85 C
2168 27-02-2016 12:35:00 5.1 C 61 % -1.79 C
2169 27-02-2016 12:40:00 5.2 C 60 % -1.92 C
2170 27-02-2016 12:45:00 5.2 C 61 % -1.69 C
2171 27-02-2016 12:50:00 5.3 C 61 % -1.6 C
2172 27-02-2016 12:55:00 5.3 C 58 % -2.28 C
2173 27-02-2016 13:00:00 5.4 C 58 % -2.18 C
2174 27-02-2016 13:05:00 5.6 C 58 % -2 C
2175 27-02-2016 13:10:00 5.7 C 60 % -1.44 C
Sensor: Nr:Datum:Temp:Feuchte:Taupunkt:
Aussen-T/F 2176 27-02-2016 13:15:00 5.7 C 57 % -2.14 C
2177 27-02-2016 13:20:00 5.8 C 57 % -2.04 C
2178 27-02-2016 13:25:00 5.9 C 57 % -1.95 C
2179 27-02-2016 13:30:00 6.1 C 56 % -2 C
2180 27-02-2016 13:35:00 6.2 C 57 % -1.67 C
2181 27-02-2016 13:40:00 6.2 C 55 % -2.15 C
2182 27-02-2016 13:45:00 6.5 C 55 % -1.87 C
2183 27-02-2016 13:50:00 6.5 C 53 % -2.37 C
2184 27-02-2016 13:55:00 6.6 C 54 % -2.03 C
2185 27-02-2016 14:00:00 6.6 C 53 % -2.28 C
2186 27-02-2016 14:05:00 6.7 C 54 % -1.94 C
2187 27-02-2016 14:10:00 6.7 C 54 % -1.94 C
2188 27-02-2016 14:15:00 6.7 C 55 % -1.69 C
2189 27-02-2016 14:20:00 6.7 C 55 % -1.69 C
2190 27-02-2016 14:25:00 6.8 C 55 % -1.59 C
2191 27-02-2016 14:30:00 6.8 C 54 % -1.84 C
2192 27-02-2016 14:35:00 6.8 C 53 % -2.09 C
2193 27-02-2016 14:40:00 6.9 C 54 % -1.75 C
2194 27-02-2016 14:45:00 6.9 C 54 % -1.75 C
2195 27-02-2016 14:50:00 6.9 C 53 % -2 C
2196 27-02-2016 14:55:00 6.8 C 53 % -2.09 C
2197 27-02-2016 15:00:00 6.8 C 54 % -1.84 C
2198 27-02-2016 15:05:00 6.9 C 55 % -1.5 C
2199 27-02-2016 15:10:00 6.9 C 55 % -1.5 C
2200 27-02-2016 15:15:00 7 C 55 % -1.41 C
Sensor: Nr:Datum:Temp:Feuchte:Taupunkt:
Aussen-T/F 2201 27-02-2016 15:20:00 7.1 C 55 % -1.31 C
2202 27-02-2016 15:25:00 7.1 C 55 % -1.31 C
2203 27-02-2016 15:30:00 7.2 C 56 % -0.98 C
2204 27-02-2016 15:35:00 7.3 C 54 % -1.38 C
2205 27-02-2016 15:40:00 7.3 C 55 % -1.13 C
2206 27-02-2016 15:45:00 7.3 C 56 % -0.88 C
2207 27-02-2016 15:50:00 7.3 C 54 % -1.38 C
2208 27-02-2016 15:55:00 7.3 C 54 % -1.38 C
2209 27-02-2016 16:00:00 7.3 C 56 % -0.88 C
2210 27-02-2016 16:05:00 7.4 C 55 % -1.03 C
2211 27-02-2016 16:10:00 7.4 C 55 % -1.03 C
2212 27-02-2016 16:15:00 7.4 C 55 % -1.03 C
2213 27-02-2016 16:20:00 7.4 C 55 % -1.03 C
2214 27-02-2016 16:25:00 7.4 C 55 % -1.03 C
2215 27-02-2016 16:30:00 7.4 C 55 % -1.03 C
2216 27-02-2016 16:35:00 7.3 C 55 % -1.13 C
2217 27-02-2016 16:40:00 7.3 C 57 % -0.64 C
2218 27-02-2016 16:45:00 7.2 C 57 % -0.73 C
2219 27-02-2016 16:50:00 7.3 C 57 % -0.64 C
2220 27-02-2016 16:55:00 7.2 C 56 % -0.98 C
2221 27-02-2016 17:00:00 7.2 C 60 % -0.03 C
2222 27-02-2016 17:05:00 6.9 C 61 % -0.09 C
2223 27-02-2016 17:10:00 6.8 C 59 % -0.64 C
2224 27-02-2016 17:15:00 6.8 C 61 % -0.18 C
2225 27-02-2016 17:20:00 6.8 C 58 % -0.87 C
Sensor: Nr:Datum:Temp:Feuchte:Taupunkt:
Aussen-T/F 2226 27-02-2016 17:25:00 6.8 C 60 % -0.41 C
2227 27-02-2016 17:30:00 6.6 C 60 % -0.6 C
2228 27-02-2016 17:35:00 6.4 C 64 % 0.1 C
2229 27-02-2016 17:40:00 6 C 66 % 0.14 C
2230 27-02-2016 17:45:00 5.6 C 66 % -0.24 C
2231 27-02-2016 17:50:00 5.3 C 68 % -0.12 C
2232 27-02-2016 17:55:00 4.9 C 68 % -0.5 C
2233 27-02-2016 18:00:00 4.7 C 71 % -0.1 C
2234 27-02-2016 18:05:00 4.4 C 72 % -0.19 C
2235 27-02-2016 18:10:00 4.1 C 73 % -0.29 C
2236 27-02-2016 18:15:00 3.8 C 74 % -0.4 C
2237 27-02-2016 18:20:00 3.6 C 74 % -0.59 C
2238 27-02-2016 18:25:00 3.3 C 76 % -0.52 C
2239 27-02-2016 18:30:00 3.2 C 76 % -0.61 C
2240 27-02-2016 18:35:00 3.1 C 77 % -0.53 C
2241 27-02-2016 18:40:00 2.9 C 78 % -0.55 C
2242 27-02-2016 18:45:00 2.8 C 78 % -0.65 C
2243 27-02-2016 18:50:00 2.8 C 78 % -0.65 C
2244 27-02-2016 18:55:00 2.8 C 78 % -0.65 C
2245 27-02-2016 19:00:00 2.7 C 78 % -0.74 C
2246 27-02-2016 19:05:00 2.7 C 78 % -0.74 C
2247 27-02-2016 19:10:00 2.6 C 79 % -0.67 C
2248 27-02-2016 19:15:00 2.6 C 79 % -0.67 C
2249 27-02-2016 19:20:00 2.5 C 79 % -0.76 C
2250 27-02-2016 19:25:00 2.5 C 79 % -0.76 C
Sensor: Nr:Datum:Temp:Feuchte:Taupunkt:
Aussen-T/F 2251 27-02-2016 19:30:00 2.4 C 79 % -0.86 C
2252 27-02-2016 19:35:00 2.4 C 79 % -0.86 C
2253 27-02-2016 19:40:00 2.3 C 80 % -0.79 C
2254 27-02-2016 19:45:00 2.3 C 79 % -0.96 C
2255 27-02-2016 19:50:00 2.2 C 80 % -0.88 C
2256 27-02-2016 19:55:00 2.2 C 80 % -0.88 C
2257 27-02-2016 20:00:00 2.2 C 80 % -0.88 C
2258 27-02-2016 20:05:00 2.2 C 81 % -0.71 C
2259 27-02-2016 20:10:00 2.1 C 81 % -0.81 C
2260 27-02-2016 20:15:00 1.9 C 81 % -1.01 C
2261 27-02-2016 20:20:00 1.8 C 81 % -1.1 C
2262 27-02-2016 20:25:00 1.7 C 82 % -1.03 C
2263 27-02-2016 20:30:00 1.6 C 82 % -1.13 C
2264 27-02-2016 20:35:00 1.6 C 82 % -1.13 C
2265 27-02-2016 20:40:00 1.6 C 82 % -1.13 C
2266 27-02-2016 20:45:00 1.6 C 82 % -1.13 C
2267 27-02-2016 20:50:00 1.6 C 82 % -1.13 C
2268 27-02-2016 20:55:00 1.6 C 82 % -1.13 C
2269 27-02-2016 21:00:00 1.5 C 82 % -1.23 C
2270 27-02-2016 21:05:00 1.5 C 82 % -1.23 C
2271 27-02-2016 21:10:00 1.4 C 82 % -1.33 C
2272 27-02-2016 21:15:00 1.4 C 82 % -1.33 C
2273 27-02-2016 21:20:00 1.4 C 82 % -1.33 C
2274 27-02-2016 21:25:00 1.3 C 82 % -1.43 C
2275 27-02-2016 21:30:00 1.3 C 82 % -1.43 C
Sensor: Nr:Datum:Temp:Feuchte:Taupunkt:
Aussen-T/F 2276 27-02-2016 21:35:00 1.2 C 82 % -1.52 C
2277 27-02-2016 21:40:00 1.2 C 83 % -1.36 C
2278 27-02-2016 21:45:00 1.1 C 83 % -1.46 C
2279 27-02-2016 21:50:00 1.1 C 83 % -1.46 C
2280 27-02-2016 21:55:00 1.1 C 84 % -1.29 C
2281 27-02-2016 22:00:00 1.1 C 84 % -1.29 C
2282 27-02-2016 22:05:00 0.9 C 84 % -1.49 C
2283 27-02-2016 22:10:00 0.8 C 84 % -1.59 C
2284 27-02-2016 22:15:00 0.9 C 85 % -1.33 C
2285 27-02-2016 22:20:00 0.9 C 85 % -1.33 C
2286 27-02-2016 22:25:00 0.8 C 85 % -1.43 C
2287 27-02-2016 22:30:00 0.8 C 85 % -1.43 C
2288 27-02-2016 22:35:00 0.8 C 86 % -1.27 C
2289 27-02-2016 22:40:00 0.8 C 86 % -1.27 C
2290 27-02-2016 22:45:00 0.8 C 85 % -1.43 C
2291 27-02-2016 22:50:00 0.8 C 86 % -1.27 C
2292 27-02-2016 22:55:00 0.8 C 86 % -1.27 C
2293 27-02-2016 23:00:00 0.7 C 86 % -1.37 C
2294 27-02-2016 23:05:00 0.7 C 86 % -1.37 C
2295 27-02-2016 23:10:00 0.8 C 86 % -1.27 C
2296 27-02-2016 23:15:00 0.9 C 86 % -1.17 C
2297 27-02-2016 23:20:00 0.9 C 86 % -1.17 C
2298 27-02-2016 23:25:00 0.8 C 86 % -1.27 C
2299 27-02-2016 23:30:00 0.8 C 86 % -1.27 C
2300 27-02-2016 23:35:00 0.7 C 86 % -1.37 C
Sensor: Nr:Datum:Temp:Feuchte:Taupunkt:
Aussen-T/F 2301 27-02-2016 23:40:00 0.6 C 86 % -1.46 C
2302 27-02-2016 23:45:00 0.6 C 86 % -1.46 C
2303 27-02-2016 23:50:00 0.5 C 87 % -1.41 C
2304 27-02-2016 23:55:00 0.5 C 87 % -1.41 C
2305 28-02-2016 00:00:00 0.4 C 87 % -1.5 C
2306 28-02-2016 00:05:00 0.4 C 87 % -1.5 C
2307 28-02-2016 00:10:00 0.4 C 87 % -1.5 C
2308 28-02-2016 00:15:00 0.4 C 87 % -1.5 C
2309 28-02-2016 00:20:00 0.3 C 87 % -1.6 C
2310 28-02-2016 00:25:00 0.3 C 87 % -1.6 C
2311 28-02-2016 00:30:00 0.2 C 87 % -1.7 C
2312 28-02-2016 00:35:00 0.2 C 87 % -1.7 C
2313 28-02-2016 00:40:00 0.2 C 87 % -1.7 C
2314 28-02-2016 00:45:00 0.1 C 87 % -1.8 C
2315 28-02-2016 00:50:00 0.1 C 87 % -1.8 C
2316 28-02-2016 00:55:00 0 C 88 % -1.74 C
2317 28-02-2016 01:00:00 -0.1 C 88 % -1.84 C
2318 28-02-2016 01:05:00 -0.1 C 87 % -2 C
2319 28-02-2016 01:10:00 -0.1 C 88 % -1.84 C
2320 28-02-2016 01:15:00 -0.1 C 88 % -1.84 C
2321 28-02-2016 01:20:00 -0.2 C 88 % -1.94 C
2322 28-02-2016 01:25:00 -0.3 C 88 % -2.04 C
2323 28-02-2016 01:30:00 -0.3 C 88 % -2.04 C
2324 28-02-2016 01:35:00 -0.3 C 89 % -1.89 C
2325 28-02-2016 01:40:00 -0.4 C 88 % -2.14 C
Sensor: Nr:Datum:Temp:Feuchte:Taupunkt:
Aussen-T/F 2326 28-02-2016 01:45:00 -0.4 C 89 % -1.99 C
2327 28-02-2016 01:50:00 -0.5 C 88 % -2.24 C
2328 28-02-2016 01:55:00 -0.6 C 89 % -2.18 C
2329 28-02-2016 02:00:00 -0.7 C 89 % -2.28 C
2330 28-02-2016 02:05:00 -0.8 C 89 % -2.38 C
2331 28-02-2016 02:10:00 -0.8 C 89 % -2.38 C
2332 28-02-2016 02:15:00 -0.9 C 89 % -2.48 C
2333 28-02-2016 02:20:00 -0.9 C 89 % -2.48 C
2334 28-02-2016 02:25:00 -1 C 90 % -2.43 C
2335 28-02-2016 02:30:00 -1 C 90 % -2.43 C
2336 28-02-2016 02:35:00 -1 C 90 % -2.43 C
2337 28-02-2016 02:40:00 -1 C 90 % -2.43 C
2338 28-02-2016 02:45:00 -1.1 C 90 % -2.53 C
2339 28-02-2016 02:50:00 -1.1 C 90 % -2.53 C
2340 28-02-2016 02:55:00 -1.2 C 90 % -2.63 C
2341 28-02-2016 03:00:00 -1.2 C 90 % -2.63 C
2342 28-02-2016 03:05:00 -1.3 C 90 % -2.73 C
2343 28-02-2016 03:10:00 -1.2 C 91 % -2.48 C
2344 28-02-2016 03:15:00 -1.2 C 91 % -2.48 C
2345 28-02-2016 03:20:00 -1.2 C 90 % -2.63 C
2346 28-02-2016 03:25:00 -1.1 C 90 % -2.53 C
2347 28-02-2016 03:30:00 -1.1 C 90 % -2.53 C
2348 28-02-2016 03:35:00 -1.1 C 90 % -2.53 C
2349 28-02-2016 03:40:00 -1.1 C 90 % -2.53 C
2350 28-02-2016 03:45:00 -1.1 C 90 % -2.53 C
Sensor: Nr:Datum:Temp:Feuchte:Taupunkt:
Aussen-T/F 2351 28-02-2016 03:50:00 -1.2 C 90 % -2.63 C
2352 28-02-2016 03:55:00 -1.2 C 90 % -2.63 C
2353 28-02-2016 04:00:00 -1.2 C 90 % -2.63 C
2354 28-02-2016 04:05:00 -1.2 C 90 % -2.63 C
2355 28-02-2016 04:10:00 -1.2 C 90 % -2.63 C
2356 28-02-2016 04:15:00 -1.3 C 90 % -2.73 C
2357 28-02-2016 04:20:00 -1.3 C 90 % -2.73 C
2358 28-02-2016 04:25:00 -1.4 C 90 % -2.82 C
2359 28-02-2016 04:30:00 -1.4 C 90 % -2.82 C
2360 28-02-2016 04:35:00 -1.4 C 90 % -2.82 C
2361 28-02-2016 04:40:00 -1.4 C 91 % -2.68 C
2362 28-02-2016 04:45:00 -1.4 C 91 % -2.68 C
2363 28-02-2016 04:50:00 -1.4 C 91 % -2.68 C
2364 28-02-2016 04:55:00 -1.4 C 91 % -2.68 C
2365 28-02-2016 05:00:00 -1.4 C 90 % -2.82 C
2366 28-02-2016 05:05:00 -1.3 C 91 % -2.58 C
2367 28-02-2016 05:10:00 -1.3 C 91 % -2.58 C
2368 28-02-2016 05:15:00 -1.3 C 90 % -2.73 C
2369 28-02-2016 05:20:00 -1.3 C 90 % -2.73 C
2370 28-02-2016 05:25:00 -1.3 C 90 % -2.73 C
2371 28-02-2016 05:30:00 -1.3 C 90 % -2.73 C
2372 28-02-2016 05:35:00 -1.3 C 90 % -2.73 C
2373 28-02-2016 05:40:00 -1.3 C 90 % -2.73 C
2374 28-02-2016 05:45:00 -1.3 C 90 % -2.73 C
2375 28-02-2016 05:50:00 -1.4 C 90 % -2.82 C
Sensor: Nr:Datum:Temp:Feuchte:Taupunkt:
Aussen-T/F 2376 28-02-2016 05:55:00 -1.4 C 89 % -2.97 C
2377 28-02-2016 06:00:00 -1.5 C 90 % -2.92 C
2378 28-02-2016 06:05:00 -1.6 C 89 % -3.17 C
2379 28-02-2016 06:10:00 -1.7 C 90 % -3.12 C
2380 28-02-2016 06:15:00 -1.7 C 90 % -3.12 C
2381 28-02-2016 06:20:00 -1.7 C 91 % -2.97 C
2382 28-02-2016 06:25:00 -1.6 C 91 % -2.87 C
2383 28-02-2016 06:30:00 -1.5 C 91 % -2.77 C
2384 28-02-2016 06:35:00 -1.4 C 90 % -2.82 C
2385 28-02-2016 06:40:00 -1.4 C 90 % -2.82 C
2386 28-02-2016 06:45:00 -1.3 C 90 % -2.73 C
2387 28-02-2016 06:50:00 -1.3 C 90 % -2.73 C
2388 28-02-2016 06:55:00 -1.3 C 90 % -2.73 C
2389 28-02-2016 07:00:00 -1.3 C 89 % -2.88 C
2390 28-02-2016 07:05:00 -1.3 C 89 % -2.88 C
2391 28-02-2016 07:10:00 -1.4 C 89 % -2.97 C
2392 28-02-2016 07:15:00 -1.4 C 89 % -2.97 C
2393 28-02-2016 07:20:00 -1.5 C 89 % -3.07 C
2394 28-02-2016 07:25:00 -1.6 C 89 % -3.17 C
2395 28-02-2016 07:30:00 -1.6 C 90 % -3.02 C
2396 28-02-2016 07:35:00 -1.4 C 90 % -2.82 C
2397 28-02-2016 07:40:00 -1.3 C 91 % -2.58 C
2398 28-02-2016 07:45:00 -1.2 C 90 % -2.63 C
2399 28-02-2016 07:50:00 -1.1 C 90 % -2.53 C
2400 28-02-2016 07:55:00 -1.1 C 90 % -2.53 C
Sensor: Nr:Datum:Temp:Feuchte:Taupunkt:
Aussen-T/F 2401 28-02-2016 08:00:00 -1 C 90 % -2.43 C
2402 28-02-2016 08:05:00 -1 C 90 % -2.43 C
2403 28-02-2016 08:10:00 -1 C 90 % -2.43 C
2404 28-02-2016 08:15:00 -1 C 90 % -2.43 C
2405 28-02-2016 08:20:00 -1.1 C 90 % -2.53 C
2406 28-02-2016 08:25:00 -1 C 90 % -2.43 C
2407 28-02-2016 08:30:00 -0.9 C 90 % -2.33 C
2408 28-02-2016 08:35:00 -0.8 C 90 % -2.23 C
2409 28-02-2016 08:40:00 -0.7 C 90 % -2.13 C
2410 28-02-2016 08:45:00 -0.6 C 90 % -2.03 C
2411 28-02-2016 08:50:00 -0.4 C 90 % -1.84 C
2412 28-02-2016 08:55:00 -0.3 C 89 % -1.89 C
2413 28-02-2016 09:00:00 -0.2 C 89 % -1.79 C
2414 28-02-2016 09:05:00 -0.1 C 88 % -1.84 C
2415 28-02-2016 09:10:00 0 C 88 % -1.74 C
2416 28-02-2016 09:15:00 0.1 C 88 % -1.65 C
2417 28-02-2016 09:20:00 0.2 C 86 % -1.86 C
2418 28-02-2016 09:25:00 0.4 C 86 % -1.66 C
2419 28-02-2016 09:30:00 0.6 C 85 % -1.62 C
2420 28-02-2016 09:35:00 0.7 C 85 % -1.53 C
2421 28-02-2016 09:40:00 0.8 C 84 % -1.59 C
2422 28-02-2016 10:35:00 2.4 C 77 % -1.21 C
2423 28-02-2016 10:55:00 2.6 C 77 % -1.02 C
2424 28-02-2016 11:00:00 2.9 C 76 % -0.9 C
2425 28-02-2016 11:05:00 3.2 C 75 % -0.79 C
Sensor: Nr:Datum:Temp:Feuchte:Taupunkt:
Aussen-T/F 2426 28-02-2016 11:10:00 3.4 C 74 % -0.78 C
2427 28-02-2016 11:15:00 3.6 C 74 % -0.59 C
2428 28-02-2016 11:20:00 3.7 C 71 % -1.06 C
2429 28-02-2016 11:25:00 3.8 C 71 % -0.96 C
2430 28-02-2016 11:30:00 3.9 C 71 % -0.87 C
2431 28-02-2016 11:35:00 4.2 C 70 % -0.77 C
2432 28-02-2016 11:40:00 4.4 C 69 % -0.78 C
2433 28-02-2016 11:45:00 4.6 C 69 % -0.58 C
2434 28-02-2016 11:50:00 4.7 C 68 % -0.69 C
2435 28-02-2016 11:55:00 4.8 C 67 % -0.8 C
2436 28-02-2016 12:00:00 4.8 C 67 % -0.8 C
2437 28-02-2016 12:05:00 4.9 C 67 % -0.7 C
2438 28-02-2016 12:10:00 5 C 69 % -0.2 C
2439 28-02-2016 12:15:00 5.1 C 67 % -0.51 C
2440 28-02-2016 12:20:00 5.3 C 67 % -0.32 C
2441 28-02-2016 12:25:00 5.4 C 66 % -0.43 C
2442 28-02-2016 12:30:00 5.8 C 63 % -0.69 C
2443 28-02-2016 12:35:00 6.1 C 60 % -1.07 C
2444 28-02-2016 12:40:00 6.3 C 59 % -1.11 C
2445 28-02-2016 12:45:00 6.4 C 58 % -1.25 C
2446 28-02-2016 12:50:00 6.5 C 58 % -1.15 C
2447 28-02-2016 12:55:00 6.6 C 57 % -1.3 C
2448 28-02-2016 13:00:00 6.6 C 58 % -1.06 C
2449 28-02-2016 13:05:00 6.6 C 57 % -1.3 C
2450 28-02-2016 13:10:00 6.7 C 58 % -0.97 C
Sensor: Nr:Datum:Temp:Feuchte:Taupunkt:
Aussen-T/F 2451 28-02-2016 13:15:00 6.6 C 58 % -1.06 C
2452 28-02-2016 13:20:00 6.6 C 57 % -1.3 C
2453 28-02-2016 13:25:00 6.7 C 59 % -0.73 C
2454 28-02-2016 13:30:00 6.7 C 58 % -0.97 C
2455 28-02-2016 13:35:00 6.8 C 58 % -0.87 C
2456 28-02-2016 13:40:00 6.8 C 59 % -0.64 C
2457 28-02-2016 13:45:00 6.8 C 58 % -0.87 C
2458 28-02-2016 13:50:00 6.9 C 58 % -0.78 C
2459 28-02-2016 13:55:00 6.9 C 57 % -1.01 C
2460 28-02-2016 14:00:00 6.9 C 58 % -0.78 C
2461 28-02-2016 14:05:00 6.9 C 58 % -0.78 C
2462 28-02-2016 14:10:00 6.9 C 57 % -1.01 C
2463 28-02-2016 14:15:00 7 C 58 % -0.68 C
2464 28-02-2016 14:20:00 7 C 57 % -0.92 C
2465 28-02-2016 14:25:00 7 C 57 % -0.92 C
2466 28-02-2016 14:30:00 7 C 57 % -0.92 C
2467 28-02-2016 14:35:00 7 C 56 % -1.16 C
2468 28-02-2016 14:40:00 6.9 C 57 % -1.01 C
2469 28-02-2016 14:45:00 7 C 57 % -0.92 C
2470 28-02-2016 14:50:00 7.1 C 57 % -0.83 C
2471 28-02-2016 14:55:00 7.1 C 58 % -0.59 C
2472 28-02-2016 15:00:00 6.9 C 57 % -1.01 C
2473 28-02-2016 15:05:00 6.8 C 58 % -0.87 C
2474 28-02-2016 15:10:00 6.8 C 58 % -0.87 C
2475 28-02-2016 15:15:00 6.7 C 58 % -0.97 C
Sensor: Nr:Datum:Temp:Feuchte:Taupunkt:
Aussen-T/F 2476 28-02-2016 15:20:00 6.6 C 58 % -1.06 C
2477 28-02-2016 15:25:00 6.6 C 58 % -1.06 C
2478 28-02-2016 15:30:00 6.6 C 58 % -1.06 C
2479 28-02-2016 15:35:00 6.5 C 58 % -1.15 C
2480 28-02-2016 15:40:00 6.5 C 58 % -1.15 C
2481 28-02-2016 15:45:00 6.4 C 58 % -1.25 C
2482 28-02-2016 15:50:00 6.4 C 59 % -1.01 C
2483 28-02-2016 15:55:00 6.3 C 59 % -1.11 C
2484 28-02-2016 16:00:00 6.3 C 58 % -1.34 C
2485 28-02-2016 16:05:00 6.2 C 59 % -1.2 C
2486 28-02-2016 16:10:00 6.2 C 59 % -1.2 C
2487 28-02-2016 16:15:00 6.2 C 59 % -1.2 C
2488 28-02-2016 16:20:00 6.2 C 59 % -1.2 C
2489 28-02-2016 16:25:00 6.2 C 59 % -1.2 C
2490 28-02-2016 16:30:00 6.2 C 60 % -0.97 C
2491 28-02-2016 16:35:00 6.2 C 59 % -1.2 C
2492 28-02-2016 16:40:00 6.1 C 60 % -1.07 C
2493 28-02-2016 16:45:00 6.1 C 59 % -1.3 C
2494 28-02-2016 16:50:00 6.1 C 59 % -1.3 C
2495 28-02-2016 16:55:00 6 C 58 % -1.62 C
2496 28-02-2016 17:00:00 5.9 C 58 % -1.72 C
2497 28-02-2016 17:05:00 5.9 C 58 % -1.72 C
2498 28-02-2016 17:10:00 5.8 C 59 % -1.58 C
2499 28-02-2016 17:15:00 5.8 C 59 % -1.58 C
2500 28-02-2016 17:20:00 5.7 C 59 % -1.67 C
Sensor: Nr:Datum:Temp:Feuchte:Taupunkt:
Aussen-T/F 2501 28-02-2016 17:25:00 5.7 C 59 % -1.67 C
2502 28-02-2016 17:30:00 5.7 C 59 % -1.67 C
2503 28-02-2016 17:35:00 5.6 C 59 % -1.77 C
2504 28-02-2016 17:40:00 5.6 C 59 % -1.77 C
2505 28-02-2016 17:45:00 5.5 C 60 % -1.63 C
2506 28-02-2016 17:50:00 5.4 C 61 % -1.5 C
2507 28-02-2016 17:55:00 5.3 C 62 % -1.38 C
2508 28-02-2016 18:00:00 5.2 C 62 % -1.47 C
2509 28-02-2016 18:05:00 5.1 C 65 % -0.92 C
2510 28-02-2016 18:10:00 4.9 C 66 % -0.91 C
2511 28-02-2016 18:15:00 4.7 C 67 % -0.89 C
2512 28-02-2016 18:20:00 4.6 C 68 % -0.78 C
2513 28-02-2016 18:25:00 4.3 C 70 % -0.68 C
2514 28-02-2016 18:30:00 3.9 C 72 % -0.68 C
2515 28-02-2016 18:35:00 3.8 C 72 % -0.77 C
2516 28-02-2016 18:40:00 3.8 C 73 % -0.58 C
2517 28-02-2016 18:45:00 3.6 C 74 % -0.59 C
2518 28-02-2016 18:50:00 3.5 C 74 % -0.69 C
2519 28-02-2016 18:55:00 3.4 C 75 % -0.6 C
2520 28-02-2016 19:00:00 3.5 C 72 % -1.06 C
2521 28-02-2016 19:05:00 3.8 C 70 % -1.16 C
2522 28-02-2016 19:10:00 4.1 C 68 % -1.26 C
2523 28-02-2016 19:15:00 4.3 C 69 % -0.87 C
2524 28-02-2016 19:20:00 4.2 C 68 % -1.17 C
2525 28-02-2016 19:25:00 4.1 C 70 % -0.87 C
Sensor: Nr:Datum:Temp:Feuchte:Taupunkt:
Aussen-T/F 2526 28-02-2016 19:30:00 3.9 C 71 % -0.87 C
2527 28-02-2016 19:35:00 3.6 C 73 % -0.78 C
2528 28-02-2016 19:40:00 3.3 C 75 % -0.7 C
2529 28-02-2016 19:45:00 3.1 C 75 % -0.89 C
2530 28-02-2016 19:50:00 2.8 C 76 % -1 C
2531 28-02-2016 19:55:00 2.7 C 78 % -0.74 C
2532 28-02-2016 20:00:00 2.6 C 78 % -0.84 C
2533 28-02-2016 20:05:00 2.4 C 79 % -0.86 C
2534 28-02-2016 20:10:00 2.3 C 79 % -0.96 C
2535 28-02-2016 20:15:00 2.2 C 79 % -1.05 C
2536 28-02-2016 20:20:00 2.2 C 80 % -0.88 C
2537 28-02-2016 20:25:00 2.1 C 80 % -0.98 C
2538 28-02-2016 20:30:00 2.1 C 80 % -0.98 C
2539 28-02-2016 20:35:00 2.1 C 80 % -0.98 C
2540 28-02-2016 20:40:00 2.1 C 80 % -0.98 C
2541 28-02-2016 20:45:00 2.1 C 80 % -0.98 C
2542 28-02-2016 20:50:00 2.1 C 80 % -0.98 C
2543 28-02-2016 20:55:00 2.1 C 79 % -1.15 C
2544 28-02-2016 21:00:00 2 C 80 % -1.08 C
2545 28-02-2016 21:05:00 1.9 C 80 % -1.18 C
2546 28-02-2016 21:10:00 1.9 C 80 % -1.18 C
2547 28-02-2016 21:15:00 1.9 C 79 % -1.35 C
2548 28-02-2016 21:20:00 1.9 C 79 % -1.35 C
2549 28-02-2016 21:25:00 1.9 C 79 % -1.35 C
2550 28-02-2016 21:30:00 1.8 C 79 % -1.44 C
Sensor: Nr:Datum:Temp:Feuchte:Taupunkt:
Aussen-T/F 2551 28-02-2016 21:35:00 1.8 C 80 % -1.27 C
2552 28-02-2016 21:40:00 1.7 C 81 % -1.2 C
2553 28-02-2016 21:45:00 1.6 C 80 % -1.47 C
2554 28-02-2016 21:50:00 1.6 C 81 % -1.3 C
2555 28-02-2016 21:55:00 1.6 C 81 % -1.3 C
2556 28-02-2016 22:00:00 1.6 C 81 % -1.3 C
2557 28-02-2016 22:05:00 1.7 C 81 % -1.2 C
2558 28-02-2016 22:10:00 1.7 C 81 % -1.2 C
2559 28-02-2016 22:15:00 1.7 C 81 % -1.2 C
2560 28-02-2016 22:20:00 1.7 C 81 % -1.2 C
2561 28-02-2016 22:25:00 1.7 C 81 % -1.2 C
2562 28-02-2016 22:30:00 1.7 C 81 % -1.2 C
2563 28-02-2016 22:35:00 1.6 C 81 % -1.3 C
2564 28-02-2016 22:40:00 1.6 C 82 % -1.13 C
2565 28-02-2016 22:45:00 1.4 C 83 % -1.16 C
2566 28-02-2016 22:50:00 1.3 C 83 % -1.26 C
2567 28-02-2016 22:55:00 1.3 C 83 % -1.26 C
2568 28-02-2016 23:00:00 1.3 C 83 % -1.26 C
2569 28-02-2016 23:05:00 1.3 C 83 % -1.26 C
2570 28-02-2016 23:10:00 1.3 C 83 % -1.26 C
2571 28-02-2016 23:15:00 1.4 C 82 % -1.33 C
2572 28-02-2016 23:20:00 1.4 C 82 % -1.33 C
2573 28-02-2016 23:25:00 1.4 C 83 % -1.16 C
2574 28-02-2016 23:30:00 1.4 C 82 % -1.33 C
2575 28-02-2016 23:35:00 1.4 C 82 % -1.33 C
Sensor: Nr:Datum:Temp:Feuchte:Taupunkt:
Aussen-T/F 2576 28-02-2016 23:40:00 1.4 C 82 % -1.33 C
2577 28-02-2016 23:45:00 1.4 C 82 % -1.33 C
2578 28-02-2016 23:50:00 1.4 C 82 % -1.33 C
2579 28-02-2016 23:55:00 1.5 C 82 % -1.23 C
2580 29-02-2016 00:00:00 1.4 C 82 % -1.33 C
2581 29-02-2016 00:05:00 1.3 C 82 % -1.43 C
2582 29-02-2016 00:10:00 1.2 C 82 % -1.52 C
2583 29-02-2016 00:15:00 1.3 C 82 % -1.43 C
2584 29-02-2016 00:20:00 1.5 C 81 % -1.4 C
2585 29-02-2016 00:25:00 1.7 C 79 % -1.54 C
2586 29-02-2016 00:30:00 1.9 C 77 % -1.69 C
2587 29-02-2016 00:35:00 2 C 77 % -1.6 C
2588 29-02-2016 00:40:00 1.9 C 79 % -1.35 C
2589 29-02-2016 00:45:00 1.8 C 79 % -1.44 C
2590 29-02-2016 00:50:00 1.8 C 79 % -1.44 C
2591 29-02-2016 00:55:00 1.7 C 79 % -1.54 C
2592 29-02-2016 01:00:00 1.7 C 80 % -1.37 C
2593 29-02-2016 01:05:00 1.7 C 79 % -1.54 C
2594 29-02-2016 01:10:00 1.7 C 78 % -1.71 C
2595 29-02-2016 01:15:00 1.7 C 79 % -1.54 C
2596 29-02-2016 01:20:00 1.7 C 79 % -1.54 C
2597 29-02-2016 01:25:00 1.8 C 78 % -1.62 C
2598 29-02-2016 01:30:00 1.9 C 78 % -1.52 C
2599 29-02-2016 01:35:00 1.8 C 78 % -1.62 C
2600 29-02-2016 01:40:00 1.8 C 78 % -1.62 C
Sensor: Nr:Datum:Temp:Feuchte:Taupunkt:
Aussen-T/F 2601 29-02-2016 01:45:00 1.8 C 78 % -1.62 C
2602 29-02-2016 01:50:00 1.8 C 78 % -1.62 C
2603 29-02-2016 01:55:00 1.7 C 79 % -1.54 C
2604 29-02-2016 02:00:00 1.7 C 78 % -1.71 C
2605 29-02-2016 02:05:00 1.7 C 79 % -1.54 C
2606 29-02-2016 02:10:00 1.7 C 79 % -1.54 C
2607 29-02-2016 02:15:00 1.6 C 79 % -1.64 C
2608 29-02-2016 02:20:00 1.6 C 79 % -1.64 C
2609 29-02-2016 02:25:00 1.6 C 79 % -1.64 C
2610 29-02-2016 02:30:00 1.6 C 79 % -1.64 C
2611 29-02-2016 02:35:00 1.6 C 79 % -1.64 C
2612 29-02-2016 02:40:00 1.6 C 80 % -1.47 C
2613 29-02-2016 02:45:00 1.5 C 80 % -1.57 C
2614 29-02-2016 02:50:00 1.4 C 81 % -1.49 C
2615 29-02-2016 02:55:00 1.4 C 81 % -1.49 C
2616 29-02-2016 03:00:00 1.3 C 81 % -1.59 C
2617 29-02-2016 03:05:00 1.3 C 81 % -1.59 C
2618 29-02-2016 03:10:00 1.3 C 80 % -1.76 C
2619 29-02-2016 03:15:00 1.3 C 80 % -1.76 C
2620 29-02-2016 03:20:00 1.3 C 81 % -1.59 C
2621 29-02-2016 03:25:00 1.3 C 80 % -1.76 C
2622 29-02-2016 03:30:00 1.4 C 79 % -1.83 C
2623 29-02-2016 03:35:00 1.6 C 79 % -1.64 C
2624 29-02-2016 03:40:00 1.6 C 79 % -1.64 C
2625 29-02-2016 03:45:00 1.5 C 80 % -1.57 C
Sensor: Nr:Datum:Temp:Feuchte:Taupunkt:
Aussen-T/F 2626 29-02-2016 03:50:00 1.4 C 80 % -1.66 C
2627 29-02-2016 03:55:00 1.3 C 80 % -1.76 C
2628 29-02-2016 04:00:00 1.3 C 81 % -1.59 C
2629 29-02-2016 04:05:00 1.2 C 81 % -1.69 C
2630 29-02-2016 04:10:00 1.2 C 82 % -1.52 C
2631 29-02-2016 04:15:00 1.1 C 82 % -1.62 C
2632 29-02-2016 04:20:00 1.1 C 82 % -1.62 C
2633 29-02-2016 04:25:00 0.9 C 82 % -1.82 C
2634 29-02-2016 04:30:00 0.9 C 83 % -1.65 C
2635 29-02-2016 04:35:00 0.9 C 83 % -1.65 C
2636 29-02-2016 04:40:00 0.8 C 82 % -1.91 C
2637 29-02-2016 04:45:00 0.8 C 83 % -1.75 C
2638 29-02-2016 04:50:00 0.7 C 84 % -1.69 C
2639 29-02-2016 04:55:00 0.7 C 84 % -1.69 C
2640 29-02-2016 05:00:00 0.6 C 84 % -1.78 C
2641 29-02-2016 05:05:00 0.6 C 84 % -1.78 C
2642 29-02-2016 05:10:00 0.4 C 85 % -1.82 C
2643 29-02-2016 05:15:00 0.4 C 85 % -1.82 C
2644 29-02-2016 05:20:00 0.3 C 85 % -1.92 C
2645 29-02-2016 05:25:00 0.3 C 85 % -1.92 C
2646 29-02-2016 05:30:00 0.2 C 85 % -2.02 C
2647 29-02-2016 05:35:00 0.2 C 85 % -2.02 C
2648 29-02-2016 05:40:00 0.2 C 86 % -1.86 C
2649 29-02-2016 05:45:00 0.3 C 86 % -1.76 C
2650 29-02-2016 05:50:00 0.3 C 86 % -1.76 C
Sensor: Nr:Datum:Temp:Feuchte:Taupunkt:
Aussen-T/F 2651 29-02-2016 05:55:00 0.3 C 86 % -1.76 C
2652 29-02-2016 06:00:00 0.3 C 86 % -1.76 C
2653 29-02-2016 06:05:00 0.3 C 86 % -1.76 C
2654 29-02-2016 06:10:00 0.3 C 86 % -1.76 C
2655 29-02-2016 06:15:00 0.3 C 86 % -1.76 C
2656 29-02-2016 06:20:00 0.3 C 85 % -1.92 C
2657 29-02-2016 06:25:00 0.2 C 86 % -1.86 C
2658 29-02-2016 06:30:00 0.2 C 86 % -1.86 C
2659 29-02-2016 06:35:00 0.1 C 86 % -1.96 C
2660 29-02-2016 06:40:00 0.1 C 86 % -1.96 C
2661 29-02-2016 06:45:00 0.1 C 87 % -1.8 C
2662 29-02-2016 06:50:00 0.1 C 87 % -1.8 C
2663 29-02-2016 06:55:00 0 C 87 % -1.9 C
2664 29-02-2016 07:00:00 0.1 C 87 % -1.8 C
2665 29-02-2016 07:05:00 0.2 C 86 % -1.86 C
2666 29-02-2016 07:10:00 0.2 C 86 % -1.86 C
2667 29-02-2016 07:15:00 0.2 C 86 % -1.86 C
2668 29-02-2016 07:20:00 0.2 C 86 % -1.86 C
2669 29-02-2016 07:25:00 0.3 C 86 % -1.76 C
2670 29-02-2016 07:30:00 0.3 C 86 % -1.76 C
2671 29-02-2016 07:35:00 0.3 C 86 % -1.76 C
2672 29-02-2016 07:40:00 0.4 C 86 % -1.66 C
2673 29-02-2016 07:45:00 0.4 C 85 % -1.82 C
2674 29-02-2016 07:50:00 0.5 C 85 % -1.72 C
2675 29-02-2016 07:55:00 0.6 C 85 % -1.62 C
Sensor: Nr:Datum:Temp:Feuchte:Taupunkt:
Aussen-T/F 2676 29-02-2016 08:00:00 0.5 C 85 % -1.72 C
2677 29-02-2016 08:05:00 0.4 C 85 % -1.82 C
2678 29-02-2016 08:10:00 0.4 C 85 % -1.82 C
2679 29-02-2016 08:15:00 0.4 C 85 % -1.82 C
2680 29-02-2016 08:20:00 0.4 C 84 % -1.98 C
2681 29-02-2016 08:25:00 0.3 C 84 % -2.08 C
2682 29-02-2016 08:30:00 0.2 C 84 % -2.18 C
2683 29-02-2016 08:35:00 0.1 C 85 % -2.11 C
2684 29-02-2016 08:40:00 0 C 86 % -2.05 C
2685 29-02-2016 08:45:00 -0.1 C 86 % -2.16 C
2686 29-02-2016 08:50:00 -0.1 C 86 % -2.16 C
2687 29-02-2016 08:55:00 -0.1 C 86 % -2.16 C
2688 29-02-2016 09:00:00 -0.2 C 86 % -2.25 C
2689 29-02-2016 09:05:00 -0.2 C 87 % -2.1 C
2690 29-02-2016 09:10:00 -0.2 C 87 % -2.1 C
2691 29-02-2016 09:15:00 -0.3 C 87 % -2.2 C
2692 29-02-2016 09:20:00 -0.3 C 87 % -2.2 C
2693 29-02-2016 09:25:00 -0.3 C 87 % -2.2 C
2694 29-02-2016 09:30:00 -0.3 C 87 % -2.2 C
2695 29-02-2016 09:35:00 -0.2 C 87 % -2.1 C
2696 29-02-2016 09:40:00 -0.1 C 87 % -2 C
2697 29-02-2016 09:45:00 0.1 C 86 % -1.96 C
2698 29-02-2016 09:50:00 0.1 C 87 % -1.8 C
2699 29-02-2016 09:55:00 0.2 C 86 % -1.86 C
2700 29-02-2016 10:00:00 0.3 C 86 % -1.76 C
Sensor: Nr:Datum:Temp:Feuchte:Taupunkt:
Aussen-T/F 2701 29-02-2016 10:05:00 0.4 C 86 % -1.66 C
2702 29-02-2016 10:10:00 0.7 C 85 % -1.53 C
2703 29-02-2016 10:15:00 0.8 C 85 % -1.43 C
2704 29-02-2016 10:20:00 1.1 C 84 % -1.29 C
2705 29-02-2016 10:25:00 1.3 C 83 % -1.26 C
2706 29-02-2016 10:30:00 1.6 C 83 % -0.97 C
2707 29-02-2016 10:35:00 1.9 C 82 % -0.84 C
2708 29-02-2016 10:40:00 2.3 C 79 % -0.96 C
2709 29-02-2016 10:45:00 2.8 C 76 % -1 C
2710 29-02-2016 10:50:00 3.2 C 74 % -0.98 C
2711 29-02-2016 10:55:00 3.4 C 73 % -0.97 C
2712 29-02-2016 11:00:00 3.7 C 73 % -0.68 C
2713 29-02-2016 11:05:00 3.9 C 71 % -0.87 C
2714 29-02-2016 11:10:00 4.1 C 71 % -0.67 C
2715 29-02-2016 11:15:00 4.3 C 70 % -0.68 C
2716 29-02-2016 11:20:00 4.5 C 70 % -0.48 C
2717 29-02-2016 11:25:00 4.7 C 69 % -0.49 C
2718 29-02-2016 11:30:00 4.8 C 67 % -0.8 C
2719 29-02-2016 11:35:00 4.9 C 67 % -0.7 C
2720 29-02-2016 11:40:00 4.9 C 67 % -0.7 C
2721 29-02-2016 11:45:00 5.2 C 66 % -0.62 C
2722 29-02-2016 11:50:00 5.3 C 66 % -0.52 C
2723 29-02-2016 11:55:00 5.6 C 66 % -0.24 C
2724 29-02-2016 12:00:00 5.8 C 65 % -0.26 C
2725 29-02-2016 12:05:00 6.1 C 61 % -0.84 C
Sensor: Nr:Datum:Temp:Feuchte:Taupunkt:
Aussen-T/F 2726 29-02-2016 12:10:00 6.3 C 59 % -1.11 C
2727 29-02-2016 12:15:00 6.4 C 59 % -1.01 C
2728 29-02-2016 12:20:00 6.4 C 58 % -1.25 C
2729 29-02-2016 12:25:00 6.6 C 59 % -0.83 C
2730 29-02-2016 12:30:00 6.6 C 57 % -1.3 C
2731 29-02-2016 12:35:00 6.7 C 57 % -1.2 C
2732 29-02-2016 12:40:00 6.7 C 57 % -1.2 C
2733 29-02-2016 12:45:00 6.8 C 57 % -1.11 C
2734 29-02-2016 12:50:00 7 C 56 % -1.16 C
2735 29-02-2016 12:55:00 7.1 C 56 % -1.07 C
2736 29-02-2016 13:00:00 7.3 C 56 % -0.88 C
2737 29-02-2016 13:05:00 7.3 C 56 % -0.88 C
2738 29-02-2016 13:10:00 7.3 C 55 % -1.13 C
2739 29-02-2016 13:15:00 7.3 C 54 % -1.38 C
2740 29-02-2016 13:20:00 7.4 C 55 % -1.03 C
2741 29-02-2016 13:25:00 7.4 C 55 % -1.03 C
2742 29-02-2016 13:30:00 7.4 C 55 % -1.03 C
2743 29-02-2016 13:35:00 7.5 C 55 % -0.94 C
2744 29-02-2016 13:40:00 7.4 C 55 % -1.03 C
2745 29-02-2016 13:45:00 7.4 C 55 % -1.03 C
2746 29-02-2016 13:50:00 7.5 C 56 % -0.7 C
2747 29-02-2016 13:55:00 7.6 C 55 % -0.85 C
2748 29-02-2016 14:00:00 7.7 C 54 % -1 C
2749 29-02-2016 14:05:00 7.6 C 55 % -0.85 C
2750 29-02-2016 14:10:00 7.7 C 55 % -0.75 C
Sensor: Nr:Datum:Temp:Feuchte:Taupunkt:
Aussen-T/F 2751 29-02-2016 14:15:00 7.6 C 54 % -1.1 C
2752 29-02-2016 14:20:00 7.6 C 54 % -1.1 C
2753 29-02-2016 14:25:00 7.6 C 54 % -1.1 C
2754 29-02-2016 14:30:00 7.6 C 53 % -1.35 C
2755 29-02-2016 14:35:00 7.6 C 54 % -1.1 C
2756 29-02-2016 14:40:00 7.7 C 53 % -1.26 C
2757 29-02-2016 14:45:00 7.7 C 54 % -1 C
2758 29-02-2016 14:50:00 7.8 C 54 % -0.91 C
2759 29-02-2016 14:55:00 7.7 C 53 % -1.26 C
2760 29-02-2016 15:00:00 7.7 C 53 % -1.26 C
2761 29-02-2016 15:05:00 7.8 C 54 % -0.91 C
2762 29-02-2016 15:10:00 7.8 C 53 % -1.17 C
2763 29-02-2016 15:15:00 7.8 C 53 % -1.17 C
2764 29-02-2016 15:20:00 7.8 C 54 % -0.91 C
2765 29-02-2016 15:25:00 7.8 C 53 % -1.17 C
2766 29-02-2016 15:30:00 7.7 C 54 % -1 C
2767 29-02-2016 15:35:00 7.7 C 54 % -1 C
2768 29-02-2016 15:40:00 7.7 C 54 % -1 C
2769 29-02-2016 15:45:00 7.7 C 54 % -1 C
2770 29-02-2016 15:50:00 7.8 C 55 % -0.66 C
2771 29-02-2016 15:55:00 7.7 C 56 % -0.51 C
2772 29-02-2016 16:00:00 7.7 C 56 % -0.51 C
2773 29-02-2016 16:05:00 7.7 C 55 % -0.75 C
2774 29-02-2016 16:10:00 7.7 C 54 % -1 C
2775 29-02-2016 16:15:00 7.6 C 55 % -0.85 C
Sensor: Nr:Datum:Temp:Feuchte:Taupunkt:
Aussen-T/F 2776 29-02-2016 16:20:00 7.6 C 55 % -0.85 C
2777 29-02-2016 16:25:00 7.6 C 56 % -0.6 C
2778 29-02-2016 16:30:00 7.6 C 56 % -0.6 C
2779 29-02-2016 16:35:00 7.6 C 56 % -0.6 C
2780 29-02-2016 16:40:00 7.6 C 56 % -0.6 C
2781 29-02-2016 16:45:00 7.5 C 55 % -0.94 C
2782 29-02-2016 16:50:00 7.4 C 55 % -1.03 C
2783 29-02-2016 16:55:00 7.4 C 55 % -1.03 C
2784 29-02-2016 17:00:00 7.3 C 55 % -1.13 C
2785 29-02-2016 17:05:00 7.2 C 55 % -1.22 C
2786 29-02-2016 17:10:00 7.1 C 54 % -1.56 C
2787 29-02-2016 17:15:00 7 C 54 % -1.66 C
2788 29-02-2016 17:20:00 7 C 55 % -1.41 C
2789 29-02-2016 17:25:00 6.9 C 54 % -1.75 C
2790 29-02-2016 17:30:00 6.9 C 55 % -1.5 C
2791 29-02-2016 17:35:00 6.9 C 55 % -1.5 C
2792 29-02-2016 17:40:00 6.8 C 55 % -1.59 C
2793 29-02-2016 17:45:00 6.8 C 55 % -1.59 C
2794 29-02-2016 17:50:00 6.8 C 55 % -1.59 C
2795 29-02-2016 17:55:00 6.7 C 55 % -1.69 C
2796 29-02-2016 18:00:00 6.7 C 54 % -1.94 C
2797 29-02-2016 18:05:00 6.6 C 55 % -1.78 C
2798 29-02-2016 18:10:00 6.6 C 56 % -1.54 C
2799 29-02-2016 18:15:00 6.4 C 56 % -1.72 C
2800 29-02-2016 18:20:00 6.3 C 55 % -2.06 C
Sensor: Nr:Datum:Temp:Feuchte:Taupunkt:
Aussen-T/F 2801 29-02-2016 18:25:00 6.1 C 55 % -2.25 C
2802 29-02-2016 18:30:00 6 C 54 % -2.59 C
2803 29-02-2016 18:35:00 5.9 C 54 % -2.68 C
2804 29-02-2016 18:40:00 5.8 C 54 % -2.77 C
2805 29-02-2016 18:45:00 5.7 C 55 % -2.62 C
2806 29-02-2016 18:50:00 5.5 C 55 % -2.81 C
2807 29-02-2016 18:55:00 5.4 C 55 % -2.9 C
2808 29-02-2016 19:00:00 5.3 C 56 % -2.75 C
2809 29-02-2016 19:05:00 5.3 C 57 % -2.51 C
2810 29-02-2016 19:10:00 5.2 C 58 % -2.37 C
2811 29-02-2016 19:15:00 5.1 C 59 % -2.24 C
2812 29-02-2016 19:20:00 4.9 C 59 % -2.42 C
2813 29-02-2016 19:25:00 4.9 C 59 % -2.42 C
2814 29-02-2016 19:30:00 4.8 C 59 % -2.52 C
2815 29-02-2016 19:35:00 4.7 C 60 % -2.39 C
2816 29-02-2016 19:40:00 4.7 C 60 % -2.39 C
2817 29-02-2016 19:45:00 4.6 C 60 % -2.48 C
2818 29-02-2016 19:50:00 4.6 C 61 % -2.26 C
2819 29-02-2016 19:55:00 4.4 C 61 % -2.45 C
2820 29-02-2016 20:00:00 4.4 C 61 % -2.45 C
2821 29-02-2016 20:05:00 4.3 C 61 % -2.54 C
2822 29-02-2016 20:10:00 4.3 C 62 % -2.32 C
2823 29-02-2016 20:15:00 4.2 C 62 % -2.42 C
2824 29-02-2016 20:20:00 4.2 C 62 % -2.42 C
2825 29-02-2016 20:25:00 4.1 C 63 % -2.3 C
Sensor: Nr:Datum:Temp:Feuchte:Taupunkt:
Aussen-T/F 2826 29-02-2016 20:30:00 4.1 C 63 % -2.3 C
2827 29-02-2016 20:35:00 4 C 63 % -2.39 C
2828 29-02-2016 20:40:00 3.9 C 63 % -2.49 C
2829 29-02-2016 20:45:00 3.9 C 64 % -2.27 C
2830 29-02-2016 20:50:00 3.8 C 64 % -2.37 C
2831 29-02-2016 20:55:00 3.8 C 64 % -2.37 C
2832 29-02-2016 21:00:00 3.8 C 64 % -2.37 C
2833 29-02-2016 21:05:00 3.7 C 65 % -2.25 C
2834 29-02-2016 21:10:00 3.7 C 65 % -2.25 C
2835 29-02-2016 21:15:00 3.6 C 65 % -2.35 C
2836 29-02-2016 21:20:00 3.6 C 65 % -2.35 C
2837 29-02-2016 21:25:00 3.5 C 66 % -2.24 C
2838 29-02-2016 21:30:00 3.4 C 66 % -2.33 C
2839 29-02-2016 21:35:00 3.3 C 66 % -2.43 C
2840 29-02-2016 21:40:00 3.3 C 66 % -2.43 C
2841 29-02-2016 21:45:00 3.1 C 67 % -2.42 C
2842 29-02-2016 21:50:00 3 C 66 % -2.72 C
2843 29-02-2016 21:55:00 2.9 C 67 % -2.61 C
2844 29-02-2016 22:00:00 2.8 C 67 % -2.7 C
2845 29-02-2016 22:05:00 2.7 C 68 % -2.6 C
2846 29-02-2016 22:10:00 2.7 C 68 % -2.6 C
2847 29-02-2016 22:15:00 2.7 C 68 % -2.6 C
2848 29-02-2016 22:20:00 2.7 C 68 % -2.6 C
2849 29-02-2016 22:25:00 2.6 C 69 % -2.5 C
2850 29-02-2016 22:30:00 2.6 C 68 % -2.7 C
Sensor: Nr:Datum:Temp:Feuchte:Taupunkt:
Aussen-T/F 2851 29-02-2016 22:35:00 2.4 C 70 % -2.5 C
2852 29-02-2016 22:40:00 2.3 C 70 % -2.59 C
2853 29-02-2016 22:45:00 2.2 C 71 % -2.5 C
2854 29-02-2016 22:50:00 1.9 C 72 % -2.6 C
2855 29-02-2016 22:55:00 1.7 C 71 % -2.98 C
2856 29-02-2016 23:00:00 1.5 C 73 % -2.8 C
2857 29-02-2016 23:05:00 1.2 C 75 % -2.73 C
2858 29-02-2016 23:10:00 1 C 76 % -2.74 C
2859 29-02-2016 23:15:00 0.8 C 77 % -2.76 C
2860 29-02-2016 23:20:00 0.6 C 77 % -2.96 C
2861 29-02-2016 23:25:00 0.5 C 77 % -3.05 C
2862 29-02-2016 23:30:00 0.3 C 77 % -3.25 C
2863 29-02-2016 23:35:00 0.2 C 78 % -3.17 C
2864 29-02-2016 23:40:00 0.1 C 78 % -3.27 C
2865 29-02-2016 23:45:00 0.1 C 78 % -3.27 C
2866 29-02-2016 23:50:00 0 C 78 % -3.37 C
2867 29-02-2016 23:55:00 -0.1 C 78 % -3.47 C
2868 01-03-2016 00:00:00 -0.2 C 79 % -3.39 C
2869 01-03-2016 00:05:00 -0.2 C 79 % -3.39 C
2870 01-03-2016 00:10:00 -0.3 C 80 % -3.32 C
2871 01-03-2016 00:15:00 -0.3 C 80 % -3.32 C
2872 01-03-2016 00:20:00 -0.4 C 80 % -3.42 C
2873 01-03-2016 00:25:00 -0.4 C 80 % -3.42 C
2874 01-03-2016 00:30:00 -0.5 C 80 % -3.52 C
2875 01-03-2016 00:35:00 -0.6 C 80 % -3.62 C
Sensor: Nr:Datum:Temp:Feuchte:Taupunkt:
Aussen-T/F 2876 01-03-2016 00:40:00 -0.6 C 80 % -3.62 C
2877 01-03-2016 00:45:00 -0.6 C 80 % -3.62 C
2878 01-03-2016 00:50:00 -0.7 C 81 % -3.55 C
2879 01-03-2016 00:55:00 -0.7 C 81 % -3.55 C
2880 01-03-2016 01:00:00 -0.7 C 81 % -3.55 C
2881 01-03-2016 01:05:00 -0.8 C 81 % -3.64 C
2882 01-03-2016 01:10:00 -0.8 C 82 % -3.48 C
2883 01-03-2016 01:15:00 -0.9 C 82 % -3.58 C
2884 01-03-2016 01:20:00 -0.9 C 83 % -3.42 C
2885 01-03-2016 01:25:00 -0.9 C 83 % -3.42 C
2886 01-03-2016 01:30:00 -1 C 83 % -3.51 C
2887 01-03-2016 01:35:00 -1 C 84 % -3.35 C
2888 01-03-2016 01:40:00 -1 C 84 % -3.35 C
2889 01-03-2016 01:45:00 -1.1 C 84 % -3.45 C
2890 01-03-2016 01:50:00 -1.1 C 84 % -3.45 C
2891 01-03-2016 01:55:00 -1.1 C 85 % -3.29 C
2892 01-03-2016 02:00:00 -1.1 C 85 % -3.29 C
2893 01-03-2016 02:05:00 -1.1 C 85 % -3.29 C
2894 01-03-2016 02:10:00 -1.1 C 85 % -3.29 C
2895 01-03-2016 02:15:00 -1.2 C 85 % -3.39 C
2896 01-03-2016 02:20:00 -1.2 C 85 % -3.39 C
2897 01-03-2016 02:25:00 -1.3 C 85 % -3.49 C
2898 01-03-2016 02:30:00 -1.4 C 85 % -3.59 C
2899 01-03-2016 02:35:00 -1.5 C 85 % -3.69 C
2900 01-03-2016 02:40:00 -1.6 C 85 % -3.79 C
Sensor: Nr:Datum:Temp:Feuchte:Taupunkt:
Aussen-T/F 2901 01-03-2016 02:45:00 -1.6 C 85 % -3.79 C
2902 01-03-2016 02:50:00 -1.7 C 86 % -3.73 C
2903 01-03-2016 02:55:00 -1.8 C 86 % -3.83 C
2904 01-03-2016 03:00:00 -1.9 C 86 % -3.92 C
2905 01-03-2016 03:05:00 -1.9 C 86 % -3.92 C
2906 01-03-2016 03:10:00 -2.1 C 87 % -3.97 C
2907 01-03-2016 03:15:00 -2.1 C 87 % -3.97 C
2908 01-03-2016 03:20:00 -2.1 C 88 % -3.82 C
2909 01-03-2016 03:25:00 -2.1 C 88 % -3.82 C
2910 01-03-2016 03:30:00 -2.2 C 88 % -3.91 C
2911 01-03-2016 03:35:00 -2.2 C 88 % -3.91 C
2912 01-03-2016 03:40:00 -2.3 C 88 % -4.01 C
2913 01-03-2016 03:45:00 -2.3 C 88 % -4.01 C
2914 01-03-2016 03:50:00 -2.4 C 88 % -4.11 C
2915 01-03-2016 03:55:00 -2.4 C 89 % -3.96 C
2916 01-03-2016 04:00:00 -2.5 C 89 % -4.06 C
2917 01-03-2016 04:05:00 -2.5 C 89 % -4.06 C
2918 01-03-2016 04:10:00 -2.5 C 89 % -4.06 C
2919 01-03-2016 04:15:00 -2.6 C 89 % -4.16 C
2920 01-03-2016 04:20:00 -2.6 C 89 % -4.16 C
2921 01-03-2016 04:25:00 -2.7 C 89 % -4.26 C
2922 01-03-2016 04:30:00 -2.7 C 90 % -4.11 C
2923 01-03-2016 04:35:00 -2.7 C 90 % -4.11 C
2924 01-03-2016 04:40:00 -2.6 C 90 % -4.01 C
2925 01-03-2016 04:45:00 -2.6 C 90 % -4.01 C
Sensor: Nr:Datum:Temp:Feuchte:Taupunkt:
Aussen-T/F 2926 01-03-2016 04:50:00 -2.7 C 90 % -4.11 C
2927 01-03-2016 04:55:00 -2.7 C 90 % -4.11 C
2928 01-03-2016 05:00:00 -2.8 C 90 % -4.21 C
2929 01-03-2016 05:05:00 -2.9 C 90 % -4.31 C
2930 01-03-2016 05:10:00 -2.9 C 90 % -4.31 C
2931 01-03-2016 05:15:00 -2.9 C 91 % -4.16 C
2932 01-03-2016 05:20:00 -2.9 C 91 % -4.16 C
2933 01-03-2016 05:25:00 -3 C 91 % -4.26 C
2934 01-03-2016 05:30:00 -3.1 C 91 % -4.36 C
2935 01-03-2016 05:35:00 -3.2 C 91 % -4.46 C
2936 01-03-2016 05:40:00 -3.2 C 91 % -4.46 C
2937 01-03-2016 05:45:00 -3.2 C 91 % -4.46 C
2938 01-03-2016 05:50:00 -3.3 C 91 % -4.56 C
2939 01-03-2016 05:55:00 -3.3 C 91 % -4.56 C
2940 01-03-2016 06:00:00 -3.3 C 91 % -4.56 C
2941 01-03-2016 06:05:00 -3.3 C 92 % -4.41 C
2942 01-03-2016 06:10:00 -3.4 C 92 % -4.51 C
2943 01-03-2016 06:15:00 -3.4 C 92 % -4.51 C
2944 01-03-2016 06:20:00 -3.4 C 92 % -4.51 C
2945 01-03-2016 06:25:00 -3.4 C 92 % -4.51 C
2946 01-03-2016 06:30:00 -3.4 C 92 % -4.51 C
2947 01-03-2016 06:35:00 -3.4 C 92 % -4.51 C
2948 01-03-2016 06:40:00 -3.5 C 92 % -4.61 C
2949 01-03-2016 06:45:00 -3.5 C 92 % -4.61 C
2950 01-03-2016 06:50:00 -3.5 C 92 % -4.61 C
Sensor: Nr:Datum:Temp:Feuchte:Taupunkt:
Aussen-T/F 2951 01-03-2016 06:55:00 -3.5 C 92 % -4.61 C
2952 01-03-2016 07:00:00 -3.5 C 92 % -4.61 C
2953 01-03-2016 07:05:00 -3.5 C 92 % -4.61 C
2954 01-03-2016 07:10:00 -3.5 C 92 % -4.61 C
2955 01-03-2016 07:15:00 -3.6 C 92 % -4.71 C
2956 01-03-2016 07:20:00 -3.6 C 92 % -4.71 C
2957 01-03-2016 07:25:00 -3.6 C 93 % -4.56 C
2958 01-03-2016 07:30:00 -3.6 C 93 % -4.56 C
2959 01-03-2016 07:35:00 -3.5 C 93 % -4.47 C
2960 01-03-2016 07:40:00 -3.5 C 93 % -4.47 C
2961 01-03-2016 07:45:00 -3.5 C 93 % -4.47 C
2962 01-03-2016 07:50:00 -3.4 C 93 % -4.37 C
2963 01-03-2016 07:55:00 -3.4 C 93 % -4.37 C
2964 01-03-2016 08:00:00 -3.4 C 93 % -4.37 C
2965 01-03-2016 08:05:00 -3.3 C 93 % -4.27 C
2966 01-03-2016 08:10:00 -3.3 C 93 % -4.27 C
2967 01-03-2016 08:15:00 -3.2 C 93 % -4.17 C
2968 01-03-2016 08:20:00 -3.1 C 93 % -4.07 C
2969 01-03-2016 08:25:00 -3 C 93 % -3.97 C
2970 01-03-2016 08:30:00 -2.9 C 93 % -3.87 C
2971 01-03-2016 08:35:00 -2.9 C 93 % -3.87 C
2972 01-03-2016 08:40:00 -2.9 C 93 % -3.87 C
2973 01-03-2016 08:45:00 -2.9 C 93 % -3.87 C
2974 01-03-2016 08:50:00 -2.9 C 93 % -3.87 C
2975 01-03-2016 08:55:00 -2.9 C 93 % -3.87 C
Sensor: Nr:Datum:Temp:Feuchte:Taupunkt:
Aussen-T/F 2976 01-03-2016 09:00:00 -2.9 C 93 % -3.87 C
2977 01-03-2016 09:05:00 -2.8 C 93 % -3.77 C
2978 01-03-2016 09:10:00 -2.8 C 93 % -3.77 C
2979 01-03-2016 09:15:00 -2.8 C 93 % -3.77 C
2980 01-03-2016 09:20:00 -2.7 C 93 % -3.67 C
2981 01-03-2016 09:25:00 -2.6 C 93 % -3.57 C
2982 01-03-2016 09:30:00 -2.5 C 93 % -3.47 C
2983 01-03-2016 09:35:00 -2.4 C 93 % -3.37 C
2984 01-03-2016 09:40:00 -2.3 C 93 % -3.28 C
2985 01-03-2016 09:45:00 -2.2 C 93 % -3.18 C
2986 01-03-2016 09:50:00 -2.1 C 93 % -3.08 C
2987 01-03-2016 09:55:00 -1.9 C 93 % -2.88 C
2988 01-03-2016 10:00:00 -1.8 C 93 % -2.78 C
2989 01-03-2016 10:05:00 -1.7 C 93 % -2.68 C
2990 01-03-2016 10:10:00 -1.6 C 92 % -2.73 C
2991 01-03-2016 10:15:00 -1.4 C 92 % -2.53 C
2992 01-03-2016 10:20:00 -1.2 C 92 % -2.33 C
2993 01-03-2016 10:25:00 -1.1 C 92 % -2.23 C
2994 01-03-2016 10:30:00 -0.8 C 91 % -2.08 C
2995 01-03-2016 10:35:00 -0.7 C 90 % -2.13 C
2996 01-03-2016 10:40:00 -0.4 C 90 % -1.84 C
2997 01-03-2016 10:45:00 -0.2 C 89 % -1.79 C
2998 01-03-2016 10:50:00 0.1 C 88 % -1.65 C
2999 01-03-2016 10:55:00 0.3 C 86 % -1.76 C
3000 01-03-2016 11:00:00 0.7 C 85 % -1.53 C
Sensor: Nr:Datum:Temp:Feuchte:Taupunkt:
Aussen-T/F 3001 01-03-2016 11:05:00 1.1 C 84 % -1.29 C
3002 01-03-2016 11:10:00 1.4 C 83 % -1.16 C
3003 01-03-2016 11:15:00 1.7 C 81 % -1.2 C
3004 01-03-2016 11:20:00 2 C 80 % -1.08 C
3005 01-03-2016 11:25:00 2.2 C 78 % -1.23 C
3006 01-03-2016 11:30:00 2.4 C 75 % -1.57 C
3007 01-03-2016 11:35:00 2.6 C 72 % -1.93 C
3008 01-03-2016 11:40:00 2.7 C 73 % -1.64 C
3009 01-03-2016 11:45:00 2.9 C 71 % -1.83 C
3010 01-03-2016 11:50:00 3.1 C 70 % -1.83 C
3011 01-03-2016 11:55:00 3.2 C 68 % -2.12 C
3012 01-03-2016 12:00:00 3.3 C 68 % -2.03 C
3013 01-03-2016 12:05:00 3.5 C 68 % -1.84 C
3014 01-03-2016 12:10:00 3.7 C 68 % -1.64 C
3015 01-03-2016 12:15:00 4 C 67 % -1.56 C
3016 01-03-2016 12:20:00 4.2 C 65 % -1.78 C
3017 01-03-2016 12:25:00 4.3 C 65 % -1.68 C
3018 01-03-2016 12:30:00 4.4 C 63 % -2.01 C
3019 01-03-2016 12:35:00 4.6 C 63 % -1.82 C
3020 01-03-2016 12:40:00 4.6 C 61 % -2.26 C
3021 01-03-2016 12:45:00 4.7 C 61 % -2.16 C
3022 01-03-2016 12:50:00 4.7 C 60 % -2.39 C
3023 01-03-2016 12:55:00 4.8 C 60 % -2.29 C
3024 01-03-2016 13:00:00 5 C 57 % -2.79 C
3025 01-03-2016 13:05:00 5.1 C 59 % -2.24 C
Sensor: Nr:Datum:Temp:Feuchte:Taupunkt:
Aussen-T/F 3026 01-03-2016 13:10:00 5.2 C 58 % -2.37 C
3027 01-03-2016 13:15:00 5.4 C 57 % -2.42 C
3028 01-03-2016 13:20:00 5.6 C 56 % -2.47 C
3029 01-03-2016 13:25:00 5.7 C 55 % -2.62 C
3030 01-03-2016 13:30:00 5.8 C 55 % -2.53 C
3031 01-03-2016 13:35:00 5.9 C 54 % -2.68 C
3032 01-03-2016 13:40:00 6 C 54 % -2.59 C
3033 01-03-2016 13:45:00 6.2 C 54 % -2.4 C
3034 01-03-2016 13:50:00 6.2 C 53 % -2.65 C
3035 01-03-2016 13:55:00 6.3 C 54 % -2.31 C
3036 01-03-2016 14:00:00 6.4 C 53 % -2.47 C
3037 01-03-2016 14:05:00 6.4 C 53 % -2.47 C
3038 01-03-2016 14:10:00 6.4 C 53 % -2.47 C
3039 01-03-2016 14:15:00 6.4 C 52 % -2.72 C
3040 01-03-2016 14:20:00 6.5 C 52 % -2.63 C
3041 01-03-2016 14:25:00 6.6 C 51 % -2.8 C
3042 01-03-2016 14:30:00 6.6 C 52 % -2.54 C
3043 01-03-2016 14:35:00 6.6 C 51 % -2.8 C
3044 01-03-2016 14:40:00 6.6 C 51 % -2.8 C
3045 01-03-2016 14:45:00 6.5 C 52 % -2.63 C
3046 01-03-2016 14:50:00 6.5 C 52 % -2.63 C
3047 01-03-2016 14:55:00 6.6 C 52 % -2.54 C
3048 01-03-2016 15:00:00 6.5 C 52 % -2.63 C
3049 01-03-2016 15:05:00 6.5 C 51 % -2.89 C
3050 01-03-2016 15:10:00 6.5 C 52 % -2.63 C
Sensor: Nr:Datum:Temp:Feuchte:Taupunkt:
Aussen-T/F 3051 01-03-2016 15:15:00 6.4 C 52 % -2.72 C
3052 01-03-2016 15:20:00 6.4 C 52 % -2.72 C
3053 01-03-2016 15:25:00 6.4 C 51 % -2.98 C
3054 01-03-2016 15:30:00 6.4 C 51 % -2.98 C
3055 01-03-2016 15:35:00 6.3 C 51 % -3.08 C
3056 01-03-2016 15:40:00 6.3 C 52 % -2.81 C
3057 01-03-2016 15:45:00 6.3 C 52 % -2.81 C
3058 01-03-2016 15:50:00 6.2 C 53 % -2.65 C
3059 01-03-2016 15:55:00 6.2 C 53 % -2.65 C
3060 01-03-2016 16:00:00 6.2 C 53 % -2.65 C
3061 01-03-2016 16:05:00 6.1 C 54 % -2.49 C
3062 01-03-2016 16:10:00 6.1 C 53 % -2.74 C
3063 01-03-2016 16:15:00 6.1 C 54 % -2.49 C
3064 01-03-2016 16:20:00 6 C 55 % -2.34 C
3065 01-03-2016 16:25:00 5.9 C 57 % -1.95 C
3066 01-03-2016 16:30:00 5.7 C 58 % -1.9 C
3067 01-03-2016 16:35:00 5.6 C 59 % -1.77 C
3068 01-03-2016 16:40:00 5.6 C 59 % -1.77 C
3069 01-03-2016 16:45:00 5.5 C 62 % -1.19 C
3070 01-03-2016 16:50:00 5.3 C 64 % -0.94 C
3071 01-03-2016 16:55:00 5.1 C 66 % -0.71 C
3072 01-03-2016 17:00:00 4.9 C 69 % -0.3 C
3073 01-03-2016 17:05:00 4.7 C 71 % -0.1 C
3074 01-03-2016 17:10:00 4.4 C 73 % 0 C
3075 01-03-2016 17:15:00 4.3 C 76 % 0.45 C
Sensor: Nr:Datum:Temp:Feuchte:Taupunkt:
Aussen-T/F 3076 01-03-2016 17:20:00 4.1 C 79 % 0.79 C
3077 01-03-2016 17:25:00 3.8 C 79 % 0.5 C
3078 01-03-2016 17:30:00 3.7 C 80 % 0.58 C
3079 01-03-2016 17:35:00 3.5 C 81 % 0.55 C
3080 01-03-2016 17:40:00 3.4 C 82 % 0.63 C
3081 01-03-2016 17:45:00 3.3 C 84 % 0.86 C
3082 01-03-2016 17:50:00 3.1 C 85 % 0.83 C
3083 01-03-2016 17:55:00 2.9 C 86 % 0.8 C
3084 01-03-2016 18:00:00 2.8 C 87 % 0.86 C
3085 01-03-2016 18:05:00 2.7 C 88 % 0.92 C
3086 01-03-2016 18:10:00 2.6 C 88 % 0.82 C
3087 01-03-2016 18:15:00 2.4 C 89 % 0.78 C
3088 01-03-2016 18:20:00 2.4 C 90 % 0.93 C
3089 01-03-2016 18:25:00 2.3 C 90 % 0.83 C
3090 01-03-2016 18:30:00 2.3 C 91 % 0.99 C
3091 01-03-2016 18:35:00 2.3 C 91 % 0.99 C
3092 01-03-2016 18:40:00 2.3 C 91 % 0.99 C
3093 01-03-2016 18:45:00 2.3 C 91 % 0.99 C
3094 01-03-2016 18:50:00 2.4 C 91 % 1.08 C
3095 01-03-2016 18:55:00 2.4 C 90 % 0.93 C
3096 01-03-2016 19:00:00 2.4 C 90 % 0.93 C
3097 01-03-2016 19:05:00 2.6 C 89 % 0.97 C
3098 01-03-2016 19:10:00 2.6 C 88 % 0.82 C
3099 01-03-2016 19:15:00 2.7 C 88 % 0.92 C
3100 01-03-2016 19:20:00 2.7 C 88 % 0.92 C
Sensor: Nr:Datum:Temp:Feuchte:Taupunkt:
Aussen-T/F 3101 01-03-2016 19:25:00 2.6 C 89 % 0.97 C
3102 01-03-2016 19:30:00 2.6 C 89 % 0.97 C
3103 01-03-2016 19:35:00 2.5 C 90 % 1.03 C
3104 01-03-2016 19:40:00 2.4 C 90 % 0.93 C
3105 01-03-2016 19:45:00 2.4 C 91 % 1.08 C
3106 01-03-2016 19:50:00 2.4 C 91 % 1.08 C
3107 01-03-2016 19:55:00 2.4 C 91 % 1.08 C
3108 01-03-2016 20:00:00 2.4 C 91 % 1.08 C
3109 01-03-2016 20:05:00 2.4 C 92 % 1.24 C
3110 01-03-2016 20:10:00 2.4 C 92 % 1.24 C
3111 01-03-2016 20:15:00 2.4 C 92 % 1.24 C
3112 01-03-2016 20:20:00 2.4 C 92 % 1.24 C
3113 01-03-2016 20:25:00 2.4 C 92 % 1.24 C
3114 01-03-2016 20:30:00 2.4 C 92 % 1.24 C
3115 01-03-2016 20:35:00 2.3 C 92 % 1.14 C
3116 01-03-2016 20:40:00 2.3 C 92 % 1.14 C
3117 01-03-2016 20:45:00 2.3 C 92 % 1.14 C
3118 01-03-2016 20:50:00 2.4 C 93 % 1.39 C
3119 01-03-2016 20:55:00 2.6 C 92 % 1.43 C
3120 01-03-2016 21:00:00 2.6 C 92 % 1.43 C
3121 01-03-2016 21:05:00 2.6 C 92 % 1.43 C
3122 01-03-2016 21:10:00 2.6 C 92 % 1.43 C
3123 01-03-2016 21:15:00 2.6 C 93 % 1.59 C
3124 01-03-2016 21:20:00 2.6 C 93 % 1.59 C
3125 01-03-2016 21:25:00 2.7 C 93 % 1.68 C
Sensor: Nr:Datum:Temp:Feuchte:Taupunkt:
Aussen-T/F 3126 01-03-2016 21:30:00 2.7 C 93 % 1.68 C
3127 01-03-2016 21:35:00 2.8 C 93 % 1.78 C
3128 01-03-2016 21:40:00 2.9 C 93 % 1.88 C
3129 01-03-2016 21:45:00 2.9 C 93 % 1.88 C
3130 01-03-2016 21:50:00 3 C 93 % 1.98 C
3131 01-03-2016 21:55:00 3.1 C 93 % 2.08 C
3132 01-03-2016 22:00:00 3.2 C 92 % 2.03 C
3133 01-03-2016 22:05:00 3.2 C 92 % 2.03 C
3134 01-03-2016 22:10:00 3.3 C 92 % 2.13 C
3135 01-03-2016 22:15:00 3.4 C 92 % 2.23 C
3136 01-03-2016 22:20:00 3.4 C 92 % 2.23 C
3137 01-03-2016 22:25:00 3.6 C 92 % 2.42 C
3138 01-03-2016 22:30:00 3.6 C 92 % 2.42 C
3139 01-03-2016 22:35:00 3.7 C 92 % 2.52 C
3140 01-03-2016 22:40:00 3.8 C 92 % 2.62 C
3141 01-03-2016 22:45:00 3.8 C 92 % 2.62 C
3142 01-03-2016 22:50:00 3.8 C 92 % 2.62 C
3143 01-03-2016 22:55:00 3.9 C 92 % 2.72 C
3144 01-03-2016 23:00:00 3.9 C 92 % 2.72 C
3145 01-03-2016 23:05:00 4 C 92 % 2.82 C
3146 01-03-2016 23:10:00 4 C 92 % 2.82 C
3147 01-03-2016 23:15:00 4.1 C 92 % 2.92 C
3148 01-03-2016 23:20:00 4.1 C 92 % 2.92 C
3149 01-03-2016 23:25:00 4.2 C 92 % 3.02 C
3150 01-03-2016 23:30:00 4.2 C 92 % 3.02 C
Sensor: Nr:Datum:Temp:Feuchte:Taupunkt:
Aussen-T/F 3151 01-03-2016 23:35:00 4.3 C 92 % 3.12 C
3152 01-03-2016 23:40:00 4.4 C 92 % 3.22 C
3153 01-03-2016 23:45:00 4.4 C 92 % 3.22 C
3154 01-03-2016 23:50:00 4.6 C 91 % 3.26 C
3155 01-03-2016 23:55:00 4.7 C 91 % 3.36 C
3156 02-03-2016 00:00:00 4.8 C 91 % 3.46 C
3157 02-03-2016 00:05:00 4.9 C 91 % 3.56 C
3158 02-03-2016 00:10:00 4.9 C 91 % 3.56 C
3159 02-03-2016 00:15:00 4.9 C 91 % 3.56 C
3160 02-03-2016 00:20:00 4.9 C 91 % 3.56 C
3161 02-03-2016 00:25:00 5 C 91 % 3.66 C
3162 02-03-2016 00:30:00 5 C 91 % 3.66 C
3163 02-03-2016 00:35:00 5.1 C 91 % 3.76 C
3164 02-03-2016 00:40:00 5.1 C 91 % 3.76 C
3165 02-03-2016 00:45:00 5.1 C 91 % 3.76 C
3166 02-03-2016 00:50:00 5.1 C 91 % 3.76 C
3167 02-03-2016 00:55:00 5.1 C 91 % 3.76 C
3168 02-03-2016 01:00:00 5 C 91 % 3.66 C
3169 02-03-2016 01:05:00 4.9 C 91 % 3.56 C
3170 02-03-2016 01:10:00 5 C 91 % 3.66 C
3171 02-03-2016 01:15:00 5 C 92 % 3.81 C
3172 02-03-2016 01:20:00 5 C 92 % 3.81 C
3173 02-03-2016 01:25:00 5 C 92 % 3.81 C
3174 02-03-2016 01:30:00 5 C 92 % 3.81 C
3175 02-03-2016 01:35:00 5.1 C 92 % 3.91 C
Sensor: Nr:Datum:Temp:Feuchte:Taupunkt:
Aussen-T/F 3176 02-03-2016 01:40:00 5.1 C 92 % 3.91 C
3177 02-03-2016 01:45:00 5.1 C 92 % 3.91 C
3178 02-03-2016 01:50:00 5.1 C 92 % 3.91 C
3179 02-03-2016 01:55:00 5.1 C 92 % 3.91 C
3180 02-03-2016 02:00:00 5.1 C 92 % 3.91 C
3181 02-03-2016 02:05:00 5.1 C 92 % 3.91 C
3182 02-03-2016 02:10:00 5.2 C 92 % 4.01 C
3183 02-03-2016 02:15:00 5.2 C 92 % 4.01 C
3184 02-03-2016 02:20:00 5.2 C 93 % 4.16 C
3185 02-03-2016 02:25:00 5.3 C 92 % 4.11 C
3186 02-03-2016 02:30:00 5.3 C 92 % 4.11 C
3187 02-03-2016 02:35:00 5.3 C 93 % 4.26 C
3188 02-03-2016 02:40:00 5.4 C 93 % 4.36 C
3189 02-03-2016 02:45:00 5.5 C 92 % 4.31 C
3190 02-03-2016 02:50:00 5.6 C 92 % 4.41 C
3191 02-03-2016 02:55:00 5.6 C 92 % 4.41 C
3192 02-03-2016 03:00:00 5.7 C 92 % 4.5 C
3193 02-03-2016 03:05:00 5.7 C 92 % 4.5 C
3194 02-03-2016 03:10:00 5.8 C 92 % 4.6 C
3195 02-03-2016 03:15:00 5.8 C 92 % 4.6 C
3196 02-03-2016 03:20:00 5.8 C 92 % 4.6 C
3197 02-03-2016 03:25:00 5.9 C 92 % 4.7 C
3198 02-03-2016 03:30:00 5.9 C 92 % 4.7 C
3199 02-03-2016 03:35:00 5.9 C 92 % 4.7 C
3200 02-03-2016 03:40:00 5.9 C 92 % 4.7 C
Sensor: Nr:Datum:Temp:Feuchte:Taupunkt:
Aussen-T/F 3201 02-03-2016 03:45:00 5.9 C 92 % 4.7 C
3202 02-03-2016 03:50:00 5.9 C 92 % 4.7 C
3203 02-03-2016 03:55:00 5.9 C 92 % 4.7 C
3204 02-03-2016 04:00:00 5.9 C 92 % 4.7 C
3205 02-03-2016 04:05:00 5.9 C 92 % 4.7 C
3206 02-03-2016 04:10:00 5.8 C 92 % 4.6 C
3207 02-03-2016 04:15:00 5.8 C 93 % 4.76 C
3208 02-03-2016 04:20:00 5.8 C 93 % 4.76 C
3209 02-03-2016 04:25:00 5.9 C 93 % 4.86 C
3210 02-03-2016 04:30:00 5.9 C 93 % 4.86 C
3211 02-03-2016 04:35:00 5.8 C 93 % 4.76 C
3212 02-03-2016 04:40:00 5.8 C 93 % 4.76 C
3213 02-03-2016 04:45:00 5.8 C 93 % 4.76 C
3214 02-03-2016 04:50:00 5.8 C 93 % 4.76 C
3215 02-03-2016 04:55:00 5.9 C 94 % 5.01 C
3216 02-03-2016 05:00:00 5.9 C 94 % 5.01 C
3217 02-03-2016 05:05:00 5.9 C 94 % 5.01 C
3218 02-03-2016 05:10:00 5.9 C 94 % 5.01 C
3219 02-03-2016 05:15:00 5.9 C 94 % 5.01 C
3220 02-03-2016 05:20:00 6 C 94 % 5.11 C
3221 02-03-2016 05:25:00 6.2 C 95 % 5.46 C
3222 02-03-2016 05:30:00 6.4 C 95 % 5.66 C
3223 02-03-2016 05:35:00 6.6 C 94 % 5.71 C
3224 02-03-2016 05:40:00 6.8 C 93 % 5.75 C
3225 02-03-2016 05:45:00 7 C 92 % 5.79 C
Sensor: Nr:Datum:Temp:Feuchte:Taupunkt:
Aussen-T/F 3226 02-03-2016 05:50:00 7.3 C 91 % 5.93 C
3227 02-03-2016 05:55:00 7.5 C 89 % 5.81 C
3228 02-03-2016 06:00:00 7.7 C 87 % 5.68 C
3229 02-03-2016 06:05:00 7.8 C 87 % 5.78 C
3230 02-03-2016 06:10:00 7.9 C 86 % 5.71 C
3231 02-03-2016 06:15:00 7.9 C 86 % 5.71 C
3232 02-03-2016 06:20:00 7.9 C 86 % 5.71 C
3233 02-03-2016 06:25:00 8 C 86 % 5.81 C
3234 02-03-2016 06:30:00 8 C 86 % 5.81 C
3235 02-03-2016 06:35:00 8 C 86 % 5.81 C
3236 02-03-2016 06:40:00 7.9 C 86 % 5.71 C
3237 02-03-2016 06:45:00 7.9 C 86 % 5.71 C
3238 02-03-2016 06:50:00 7.9 C 87 % 5.87 C
3239 02-03-2016 06:55:00 7.9 C 87 % 5.87 C
3240 02-03-2016 07:00:00 7.8 C 87 % 5.78 C
3241 02-03-2016 07:05:00 7.8 C 88 % 5.94 C
3242 02-03-2016 07:10:00 7.7 C 88 % 5.84 C
3243 02-03-2016 07:15:00 7.6 C 89 % 5.91 C
3244 02-03-2016 07:20:00 7.5 C 89 % 5.81 C
3245 02-03-2016 07:25:00 7.5 C 89 % 5.81 C
3246 02-03-2016 07:30:00 7.5 C 90 % 5.97 C
3247 02-03-2016 07:35:00 7.4 C 90 % 5.87 C
3248 02-03-2016 07:40:00 7.3 C 91 % 5.93 C
3249 02-03-2016 07:45:00 7.2 C 92 % 5.99 C
3250 02-03-2016 07:50:00 7.1 C 92 % 5.89 C
Sensor: Nr:Datum:Temp:Feuchte:Taupunkt:
Aussen-T/F 3251 02-03-2016 07:55:00 7.1 C 93 % 6.05 C
3252 02-03-2016 08:00:00 7.1 C 93 % 6.05 C
3253 02-03-2016 08:05:00 7.1 C 93 % 6.05 C
3254 02-03-2016 08:10:00 7.1 C 93 % 6.05 C
3255 02-03-2016 08:15:00 7.1 C 94 % 6.2 C
3256 02-03-2016 08:20:00 7.1 C 94 % 6.2 C
3257 02-03-2016 08:25:00 7.2 C 94 % 6.3 C
3258 02-03-2016 08:30:00 7.2 C 94 % 6.3 C
3259 02-03-2016 08:35:00 7.2 C 94 % 6.3 C
3260 02-03-2016 08:40:00 7.2 C 94 % 6.3 C
3261 02-03-2016 08:45:00 7.1 C 94 % 6.2 C
3262 02-03-2016 08:50:00 7.1 C 94 % 6.2 C
3263 02-03-2016 08:55:00 7.1 C 94 % 6.2 C
3264 02-03-2016 09:00:00 7.1 C 94 % 6.2 C
3265 02-03-2016 09:05:00 7.2 C 94 % 6.3 C
3266 02-03-2016 09:10:00 7.2 C 94 % 6.3 C
3267 02-03-2016 09:15:00 7.3 C 93 % 6.25 C
3268 02-03-2016 09:20:00 7.5 C 93 % 6.44 C
3269 02-03-2016 09:25:00 7.6 C 92 % 6.39 C
3270 02-03-2016 09:30:00 7.7 C 91 % 6.33 C
3271 02-03-2016 09:35:00 7.8 C 91 % 6.43 C
3272 02-03-2016 09:40:00 7.8 C 91 % 6.43 C
3273 02-03-2016 09:45:00 7.8 C 90 % 6.27 C
3274 02-03-2016 09:50:00 7.8 C 90 % 6.27 C
3275 02-03-2016 09:55:00 7.8 C 90 % 6.27 C
Sensor: Nr:Datum:Temp:Feuchte:Taupunkt:
Aussen-T/F 3276 02-03-2016 10:00:00 7.8 C 90 % 6.27 C
3277 02-03-2016 10:05:00 7.8 C 90 % 6.27 C
3278 02-03-2016 10:10:00 7.8 C 89 % 6.1 C
3279 02-03-2016 10:15:00 7.9 C 90 % 6.36 C
3280 02-03-2016 10:20:00 8 C 89 % 6.3 C
3281 02-03-2016 10:25:00 8.1 C 89 % 6.4 C
3282 02-03-2016 10:30:00 8.1 C 89 % 6.4 C
3283 02-03-2016 10:35:00 8 C 89 % 6.3 C
3284 02-03-2016 10:40:00 8 C 90 % 6.46 C
3285 02-03-2016 10:45:00 7.9 C 90 % 6.36 C
3286 02-03-2016 10:50:00 7.8 C 90 % 6.27 C
3287 02-03-2016 10:55:00 7.7 C 90 % 6.17 C
3288 02-03-2016 11:00:00 7.7 C 89 % 6 C
3289 02-03-2016 11:05:00 7.6 C 88 % 5.74 C
3290 02-03-2016 11:10:00 7.7 C 87 % 5.68 C
3291 02-03-2016 11:15:00 7.7 C 86 % 5.51 C
3292 02-03-2016 11:20:00 7.8 C 83 % 5.1 C
3293 02-03-2016 11:25:00 7.9 C 83 % 5.2 C
3294 02-03-2016 11:30:00 8.1 C 82 % 5.22 C
3295 02-03-2016 11:35:00 8.2 C 82 % 5.32 C
3296 02-03-2016 11:40:00 8.2 C 81 % 5.14 C
3297 02-03-2016 11:45:00 8.3 C 80 % 5.06 C
3298 02-03-2016 11:50:00 8.4 C 80 % 5.16 C
3299 02-03-2016 11:55:00 8.4 C 79 % 4.98 C
3300 02-03-2016 12:00:00 8.2 C 81 % 5.14 C
Sensor: Nr:Datum:Temp:Feuchte:Taupunkt:
Aussen-T/F 3301 02-03-2016 12:05:00 7.7 C 83 % 5 C
3302 02-03-2016 12:10:00 7.3 C 85 % 4.95 C
3303 02-03-2016 12:15:00 7.2 C 86 % 5.02 C
3304 02-03-2016 12:20:00 7.2 C 85 % 4.85 C
3305 02-03-2016 12:25:00 7.3 C 86 % 5.12 C
3306 02-03-2016 12:30:00 7.4 C 85 % 5.05 C
3307 02-03-2016 12:35:00 7.4 C 82 % 4.53 C
3308 02-03-2016 12:40:00 7.3 C 81 % 4.26 C
3309 02-03-2016 12:45:00 7.3 C 78 % 3.73 C
3310 02-03-2016 12:50:00 7.4 C 79 % 4 C
3311 02-03-2016 12:55:00 7.4 C 79 % 4 C
3312 02-03-2016 13:00:00 7.6 C 77 % 3.83 C
3313 02-03-2016 13:05:00 7.6 C 77 % 3.83 C
3314 02-03-2016 13:10:00 7.6 C 75 % 3.46 C
3315 02-03-2016 13:15:00 7.6 C 75 % 3.46 C
3316 02-03-2016 13:20:00 7.6 C 73 % 3.08 C
3317 02-03-2016 13:25:00 7.6 C 73 % 3.08 C
3318 02-03-2016 13:30:00 7.6 C 73 % 3.08 C
3319 02-03-2016 13:35:00 7.6 C 73 % 3.08 C
3320 02-03-2016 13:40:00 7.6 C 73 % 3.08 C
3321 02-03-2016 13:45:00 7.6 C 72 % 2.88 C
3322 02-03-2016 13:50:00 7.6 C 71 % 2.69 C
3323 02-03-2016 13:55:00 7.6 C 72 % 2.88 C
3324 02-03-2016 14:00:00 7.6 C 69 % 2.29 C
3325 02-03-2016 14:05:00 7.5 C 70 % 2.39 C
Sensor: Nr:Datum:Temp:Feuchte:Taupunkt:
Aussen-T/F 3326 02-03-2016 14:10:00 7.5 C 71 % 2.59 C
3327 02-03-2016 14:15:00 7.5 C 70 % 2.39 C
3328 02-03-2016 14:20:00 7.5 C 70 % 2.39 C
3329 02-03-2016 14:25:00 7.6 C 71 % 2.69 C
3330 02-03-2016 14:30:00 7.6 C 70 % 2.49 C
3331 02-03-2016 14:35:00 7.7 C 69 % 2.38 C
3332 02-03-2016 14:40:00 7.7 C 69 % 2.38 C
3333 02-03-2016 14:45:00 7.8 C 70 % 2.68 C
3334 02-03-2016 14:50:00 7.9 C 70 % 2.78 C
3335 02-03-2016 14:55:00 7.8 C 69 % 2.48 C
3336 02-03-2016 15:00:00 7.8 C 68 % 2.27 C
3337 02-03-2016 15:05:00 7.7 C 70 % 2.58 C
3338 02-03-2016 15:10:00 7.8 C 70 % 2.68 C
3339 02-03-2016 15:15:00 7.8 C 70 % 2.68 C
3340 02-03-2016 15:20:00 7.8 C 70 % 2.68 C
3341 02-03-2016 15:25:00 7.8 C 70 % 2.68 C
3342 02-03-2016 15:30:00 7.9 C 70 % 2.78 C
3343 02-03-2016 15:35:00 8 C 70 % 2.87 C
3344 02-03-2016 15:40:00 8.1 C 70 % 2.97 C
3345 02-03-2016 15:45:00 8.1 C 70 % 2.97 C
3346 02-03-2016 15:50:00 8.1 C 70 % 2.97 C
3347 02-03-2016 15:55:00 8.1 C 70 % 2.97 C
3348 02-03-2016 16:00:00 8.1 C 69 % 2.77 C
3349 02-03-2016 16:05:00 8.1 C 70 % 2.97 C
3350 02-03-2016 16:10:00 8.2 C 70 % 3.06 C
Sensor: Nr:Datum:Temp:Feuchte:Taupunkt:
Aussen-T/F 3351 02-03-2016 16:15:00 8.2 C 71 % 3.26 C
3352 02-03-2016 16:20:00 8.2 C 69 % 2.86 C
3353 02-03-2016 16:25:00 8.3 C 70 % 3.16 C
3354 02-03-2016 16:30:00 8.6 C 69 % 3.24 C
3355 02-03-2016 16:35:00 8.8 C 68 % 3.23 C
3356 02-03-2016 16:40:00 8.8 C 66 % 2.81 C
3357 02-03-2016 16:45:00 9 C 65 % 2.78 C
3358 02-03-2016 16:50:00 9.1 C 65 % 2.88 C
3359 02-03-2016 16:55:00 8.9 C 65 % 2.69 C
3360 02-03-2016 17:00:00 8.7 C 65 % 2.5 C
3361 02-03-2016 17:05:00 8.5 C 67 % 2.73 C
3362 02-03-2016 17:10:00 8.3 C 70 % 3.16 C
3363 02-03-2016 17:15:00 8.1 C 68 % 2.56 C
3364 02-03-2016 17:20:00 7.9 C 70 % 2.78 C
3365 02-03-2016 17:25:00 7.9 C 69 % 2.57 C
3366 02-03-2016 17:30:00 7.8 C 70 % 2.68 C
3367 02-03-2016 17:35:00 7.7 C 69 % 2.38 C
3368 02-03-2016 17:40:00 7.6 C 71 % 2.69 C
3369 02-03-2016 17:45:00 7.4 C 72 % 2.69 C
3370 02-03-2016 17:50:00 7.2 C 73 % 2.69 C
3371 02-03-2016 17:55:00 7.1 C 73 % 2.6 C
3372 02-03-2016 18:00:00 6.9 C 74 % 2.6 C
3373 02-03-2016 18:05:00 6.7 C 75 % 2.59 C
3374 02-03-2016 18:10:00 6.4 C 75 % 2.3 C
3375 02-03-2016 18:15:00 6.3 C 75 % 2.2 C
Sensor: Nr:Datum:Temp:Feuchte:Taupunkt:
Aussen-T/F 3376 02-03-2016 18:20:00 6.2 C 75 % 2.11 C
3377 02-03-2016 18:25:00 6 C 76 % 2.1 C
3378 02-03-2016 18:30:00 5.8 C 77 % 2.09 C
3379 02-03-2016 18:35:00 5.6 C 78 % 2.07 C
3380 02-03-2016 18:40:00 5.4 C 79 % 2.06 C
3381 02-03-2016 18:45:00 5.2 C 80 % 2.04 C
3382 02-03-2016 18:50:00 5 C 81 % 2.02 C
3383 02-03-2016 18:55:00 4.8 C 81 % 1.82 C
3384 02-03-2016 19:00:00 4.7 C 82 % 1.9 C
3385 02-03-2016 19:05:00 4.5 C 82 % 1.7 C
3386 02-03-2016 19:10:00 4.4 C 82 % 1.6 C
3387 02-03-2016 19:15:00 4.3 C 82 % 1.51 C
3388 02-03-2016 19:20:00 4.2 C 83 % 1.58 C
3389 02-03-2016 19:25:00 4.3 C 83 % 1.67 C
3390 02-03-2016 19:30:00 4.4 C 82 % 1.6 C
3391 02-03-2016 19:35:00 4.6 C 82 % 1.8 C
3392 02-03-2016 19:40:00 4.7 C 81 % 1.73 C
3393 02-03-2016 19:45:00 4.6 C 81 % 1.63 C
3394 02-03-2016 19:50:00 4.5 C 82 % 1.7 C
3395 02-03-2016 19:55:00 4.6 C 81 % 1.63 C
3396 02-03-2016 20:00:00 4.7 C 81 % 1.73 C
3397 02-03-2016 20:05:00 4.8 C 80 % 1.65 C
3398 02-03-2016 20:10:00 4.8 C 80 % 1.65 C
3399 02-03-2016 20:15:00 4.9 C 80 % 1.75 C
3400 02-03-2016 20:20:00 5 C 79 % 1.67 C
Sensor: Nr:Datum:Temp:Feuchte:Taupunkt:
Aussen-T/F 3401 02-03-2016 20:25:00 5.1 C 80 % 1.94 C
3402 02-03-2016 20:30:00 5.1 C 80 % 1.94 C
3403 02-03-2016 20:35:00 5.2 C 80 % 2.04 C
3404 02-03-2016 20:40:00 5.3 C 79 % 1.96 C
3405 02-03-2016 20:45:00 5.4 C 79 % 2.06 C
3406 02-03-2016 20:50:00 5.4 C 79 % 2.06 C
3407 02-03-2016 20:55:00 5.5 C 78 % 1.98 C
3408 02-03-2016 21:00:00 5.6 C 78 % 2.07 C
3409 02-03-2016 21:05:00 5.6 C 78 % 2.07 C
3410 02-03-2016 21:10:00 5.6 C 79 % 2.25 C
3411 02-03-2016 21:15:00 5.6 C 79 % 2.25 C
3412 02-03-2016 21:20:00 5.6 C 79 % 2.25 C
3413 02-03-2016 21:25:00 5.5 C 79 % 2.16 C
3414 02-03-2016 21:30:00 5.4 C 79 % 2.06 C
3415 02-03-2016 21:35:00 5.4 C 78 % 1.88 C
3416 02-03-2016 21:40:00 5.3 C 78 % 1.78 C
3417 02-03-2016 21:45:00 5.2 C 79 % 1.86 C
3418 02-03-2016 21:50:00 5.1 C 79 % 1.77 C
3419 02-03-2016 21:55:00 5.1 C 80 % 1.94 C
3420 02-03-2016 22:00:00 5 C 79 % 1.67 C
3421 02-03-2016 22:05:00 5.1 C 81 % 2.12 C
3422 02-03-2016 22:10:00 5 C 81 % 2.02 C
3423 02-03-2016 22:15:00 4.9 C 81 % 1.92 C
3424 02-03-2016 22:20:00 4.8 C 81 % 1.82 C
3425 02-03-2016 22:25:00 4.7 C 81 % 1.73 C
Sensor: Nr:Datum:Temp:Feuchte:Taupunkt:
Aussen-T/F 3426 02-03-2016 22:30:00 4.7 C 80 % 1.55 C
3427 02-03-2016 22:35:00 4.7 C 80 % 1.55 C
3428 02-03-2016 22:40:00 4.6 C 81 % 1.63 C
3429 02-03-2016 22:45:00 4.6 C 81 % 1.63 C
3430 02-03-2016 22:50:00 4.6 C 81 % 1.63 C
3431 02-03-2016 22:55:00 4.6 C 82 % 1.8 C
3432 02-03-2016 23:00:00 4.5 C 82 % 1.7 C
3433 02-03-2016 23:05:00 4.4 C 83 % 1.77 C
3434 02-03-2016 23:10:00 4.4 C 83 % 1.77 C
3435 02-03-2016 23:15:00 4.3 C 83 % 1.67 C
3436 02-03-2016 23:20:00 4.3 C 83 % 1.67 C
3437 02-03-2016 23:25:00 4.3 C 83 % 1.67 C
3438 02-03-2016 23:30:00 4.3 C 83 % 1.67 C
3439 02-03-2016 23:35:00 4.2 C 83 % 1.58 C
3440 02-03-2016 23:40:00 4.2 C 83 % 1.58 C
3441 02-03-2016 23:45:00 4.2 C 83 % 1.58 C
3442 02-03-2016 23:50:00 4.2 C 83 % 1.58 C
3443 02-03-2016 23:55:00 4.1 C 82 % 1.31 C
3444 03-03-2016 00:00:00 4.1 C 82 % 1.31 C
3445 03-03-2016 00:05:00 4.1 C 81 % 1.14 C
3446 03-03-2016 00:10:00 4.1 C 81 % 1.14 C
3447 03-03-2016 00:15:00 4.1 C 81 % 1.14 C
3448 03-03-2016 00:20:00 4.1 C 81 % 1.14 C
3449 03-03-2016 00:25:00 4.1 C 81 % 1.14 C
3450 03-03-2016 00:30:00 4.1 C 81 % 1.14 C
Sensor: Nr:Datum:Temp:Feuchte:Taupunkt:
Aussen-T/F 3451 03-03-2016 00:35:00 4.1 C 81 % 1.14 C
3452 03-03-2016 00:40:00 4.1 C 81 % 1.14 C
3453 03-03-2016 00:45:00 4.1 C 81 % 1.14 C
3454 03-03-2016 00:50:00 4.1 C 82 % 1.31 C
3455 03-03-2016 00:55:00 4.1 C 81 % 1.14 C
3456 03-03-2016 01:00:00 4 C 82 % 1.21 C
3457 03-03-2016 01:05:00 3.9 C 82 % 1.12 C
3458 03-03-2016 01:10:00 3.9 C 82 % 1.12 C
3459 03-03-2016 01:15:00 3.9 C 82 % 1.12 C
3460 03-03-2016 01:20:00 3.8 C 82 % 1.02 C
3461 03-03-2016 01:25:00 3.8 C 82 % 1.02 C
3462 03-03-2016 01:30:00 3.7 C 82 % 0.92 C
3463 03-03-2016 01:35:00 3.6 C 83 % 0.99 C
3464 03-03-2016 01:40:00 3.6 C 83 % 0.99 C
3465 03-03-2016 01:45:00 3.6 C 83 % 0.99 C
3466 03-03-2016 01:50:00 3.5 C 84 % 1.06 C
3467 03-03-2016 01:55:00 3.4 C 84 % 0.96 C
3468 03-03-2016 02:00:00 3.3 C 84 % 0.86 C
3469 03-03-2016 02:05:00 3.3 C 84 % 0.86 C
3470 03-03-2016 02:10:00 3.2 C 84 % 0.76 C
3471 03-03-2016 02:15:00 3.2 C 85 % 0.93 C
3472 03-03-2016 02:20:00 3.2 C 85 % 0.93 C
3473 03-03-2016 02:25:00 3.3 C 85 % 1.03 C
3474 03-03-2016 02:30:00 3.3 C 85 % 1.03 C
3475 03-03-2016 02:35:00 3.4 C 85 % 1.12 C
Sensor: Nr:Datum:Temp:Feuchte:Taupunkt:
Aussen-T/F 3476 03-03-2016 02:40:00 3.5 C 84 % 1.06 C
3477 03-03-2016 02:45:00 3.6 C 84 % 1.16 C
3478 03-03-2016 02:50:00 3.6 C 84 % 1.16 C
3479 03-03-2016 02:55:00 3.6 C 84 % 1.16 C
3480 03-03-2016 03:00:00 3.6 C 84 % 1.16 C
3481 03-03-2016 03:05:00 3.5 C 84 % 1.06 C
3482 03-03-2016 03:10:00 3.4 C 84 % 0.96 C
3483 03-03-2016 03:15:00 3.4 C 84 % 0.96 C
3484 03-03-2016 03:20:00 3.4 C 85 % 1.12 C
3485 03-03-2016 03:25:00 3.4 C 85 % 1.12 C
3486 03-03-2016 03:30:00 3.4 C 85 % 1.12 C
3487 03-03-2016 03:35:00 3.4 C 84 % 0.96 C
3488 03-03-2016 03:40:00 3.4 C 84 % 0.96 C
3489 03-03-2016 03:45:00 3.4 C 84 % 0.96 C
3490 03-03-2016 03:50:00 3.4 C 84 % 0.96 C
3491 03-03-2016 03:55:00 3.4 C 85 % 1.12 C
3492 03-03-2016 04:00:00 3.4 C 85 % 1.12 C
3493 03-03-2016 04:05:00 3.4 C 85 % 1.12 C
3494 03-03-2016 04:10:00 3.3 C 85 % 1.03 C
3495 03-03-2016 04:15:00 3.3 C 85 % 1.03 C
3496 03-03-2016 04:20:00 3.3 C 85 % 1.03 C
3497 03-03-2016 04:25:00 3.4 C 84 % 0.96 C
3498 03-03-2016 04:30:00 3.4 C 84 % 0.96 C
3499 03-03-2016 04:35:00 3.5 C 84 % 1.06 C
3500 03-03-2016 04:40:00 3.4 C 84 % 0.96 C
Sensor: Nr:Datum:Temp:Feuchte:Taupunkt:
Aussen-T/F 3501 03-03-2016 04:45:00 3.5 C 84 % 1.06 C
3502 03-03-2016 04:50:00 3.5 C 83 % 0.89 C
3503 03-03-2016 04:55:00 3.6 C 83 % 0.99 C
3504 03-03-2016 05:00:00 3.6 C 83 % 0.99 C
3505 03-03-2016 05:05:00 3.6 C 83 % 0.99 C
3506 03-03-2016 05:10:00 3.6 C 83 % 0.99 C
3507 03-03-2016 05:15:00 3.6 C 83 % 0.99 C
3508 03-03-2016 05:20:00 3.6 C 82 % 0.82 C
3509 03-03-2016 05:25:00 3.7 C 82 % 0.92 C
3510 03-03-2016 05:30:00 3.7 C 82 % 0.92 C
3511 03-03-2016 05:35:00 3.6 C 82 % 0.82 C
3512 03-03-2016 05:40:00 3.6 C 81 % 0.65 C
3513 03-03-2016 05:45:00 3.6 C 81 % 0.65 C
3514 03-03-2016 05:50:00 3.6 C 81 % 0.65 C
3515 03-03-2016 05:55:00 3.5 C 82 % 0.72 C
3516 03-03-2016 06:00:00 3.4 C 82 % 0.63 C
3517 03-03-2016 06:05:00 3.3 C 82 % 0.53 C
3518 03-03-2016 06:10:00 3.1 C 83 % 0.5 C
3519 03-03-2016 06:15:00 2.8 C 84 % 0.37 C
3520 03-03-2016 06:20:00 2.8 C 84 % 0.37 C
3521 03-03-2016 06:25:00 2.6 C 85 % 0.34 C
3522 03-03-2016 06:30:00 2.5 C 86 % 0.4 C
3523 03-03-2016 06:35:00 2.4 C 87 % 0.46 C
3524 03-03-2016 06:40:00 2.4 C 87 % 0.46 C
3525 03-03-2016 06:45:00 2.4 C 87 % 0.46 C
Sensor: Nr:Datum:Temp:Feuchte:Taupunkt:
Aussen-T/F 3526 03-03-2016 06:50:00 2.4 C 87 % 0.46 C
3527 03-03-2016 06:55:00 2.4 C 87 % 0.46 C
3528 03-03-2016 07:00:00 2.4 C 88 % 0.62 C
3529 03-03-2016 07:05:00 2.4 C 88 % 0.62 C
3530 03-03-2016 07:10:00 2.4 C 88 % 0.62 C
3531 03-03-2016 07:15:00 2.5 C 89 % 0.88 C
3532 03-03-2016 07:20:00 2.5 C 89 % 0.88 C
3533 03-03-2016 07:25:00 2.4 C 89 % 0.78 C
3534 03-03-2016 07:30:00 2.5 C 89 % 0.88 C
3535 03-03-2016 07:35:00 2.5 C 89 % 0.88 C
3536 03-03-2016 07:40:00 2.5 C 90 % 1.03 C
3537 03-03-2016 07:45:00 2.6 C 90 % 1.13 C
3538 03-03-2016 07:50:00 2.7 C 90 % 1.23 C
3539 03-03-2016 07:55:00 2.7 C 90 % 1.23 C
3540 03-03-2016 08:00:00 2.7 C 91 % 1.38 C
3541 03-03-2016 08:05:00 2.8 C 91 % 1.48 C
3542 03-03-2016 08:10:00 2.8 C 91 % 1.48 C
3543 03-03-2016 08:15:00 2.9 C 91 % 1.58 C
3544 03-03-2016 08:20:00 2.9 C 91 % 1.58 C
3545 03-03-2016 08:25:00 3.1 C 91 % 1.78 C
3546 03-03-2016 08:30:00 3.1 C 91 % 1.78 C
3547 03-03-2016 08:35:00 3.2 C 91 % 1.88 C
3548 03-03-2016 08:40:00 3.2 C 91 % 1.88 C
3549 03-03-2016 08:45:00 3.3 C 91 % 1.98 C
3550 03-03-2016 08:50:00 3.3 C 90 % 1.82 C
Sensor: Nr:Datum:Temp:Feuchte:Taupunkt:
Aussen-T/F 3551 03-03-2016 08:55:00 3.3 C 91 % 1.98 C
3552 03-03-2016 09:00:00 3.4 C 90 % 1.92 C
3553 03-03-2016 09:05:00 3.4 C 90 % 1.92 C
3554 03-03-2016 09:10:00 3.6 C 90 % 2.12 C
3555 03-03-2016 09:15:00 3.7 C 90 % 2.22 C
3556 03-03-2016 09:20:00 3.8 C 90 % 2.31 C
3557 03-03-2016 09:25:00 3.9 C 90 % 2.41 C
3558 03-03-2016 09:30:00 4.1 C 89 % 2.45 C
3559 03-03-2016 09:35:00 4.2 C 88 % 2.39 C
3560 03-03-2016 09:40:00 4.4 C 88 % 2.59 C
3561 03-03-2016 09:45:00 4.6 C 87 % 2.63 C
3562 03-03-2016 09:50:00 4.7 C 86 % 2.56 C
3563 03-03-2016 09:55:00 4.8 C 86 % 2.66 C
3564 03-03-2016 10:00:00 5.1 C 86 % 2.96 C
3565 03-03-2016 10:05:00 5.2 C 85 % 2.89 C
3566 03-03-2016 10:10:00 5.3 C 84 % 2.82 C
3567 03-03-2016 10:15:00 5.3 C 83 % 2.65 C
3568 03-03-2016 10:20:00 5.4 C 83 % 2.75 C
3569 03-03-2016 10:25:00 5.4 C 82 % 2.58 C
3570 03-03-2016 10:30:00 5.5 C 83 % 2.85 C
3571 03-03-2016 10:35:00 5.6 C 82 % 2.78 C
3572 03-03-2016 10:40:00 5.7 C 82 % 2.87 C
3573 03-03-2016 10:45:00 5.7 C 81 % 2.7 C
3574 03-03-2016 10:50:00 5.9 C 81 % 2.9 C
3575 03-03-2016 10:55:00 5.9 C 80 % 2.72 C
Sensor: Nr:Datum:Temp:Feuchte:Taupunkt:
Aussen-T/F 3576 03-03-2016 11:00:00 5.9 C 80 % 2.72 C
3577 03-03-2016 11:05:00 5.9 C 79 % 2.54 C
3578 03-03-2016 11:10:00 6 C 80 % 2.82 C
3579 03-03-2016 11:15:00 5.9 C 79 % 2.54 C
3580 03-03-2016 11:20:00 5.8 C 80 % 2.62 C
3581 03-03-2016 11:25:00 5.7 C 80 % 2.53 C
3582 03-03-2016 11:30:00 5.7 C 80 % 2.53 C
3583 03-03-2016 11:35:00 5.5 C 81 % 2.51 C
3584 03-03-2016 11:40:00 5.4 C 81 % 2.41 C
3585 03-03-2016 11:45:00 5.3 C 82 % 2.48 C
3586 03-03-2016 11:50:00 5.3 C 82 % 2.48 C
3587 03-03-2016 11:55:00 5.4 C 82 % 2.58 C
3588 03-03-2016 12:00:00 5.6 C 82 % 2.78 C
3589 03-03-2016 12:05:00 5.7 C 82 % 2.87 C
3590 03-03-2016 12:10:00 5.8 C 81 % 2.8 C
3591 03-03-2016 12:15:00 5.9 C 80 % 2.72 C
3592 03-03-2016 12:20:00 6 C 80 % 2.82 C
3593 03-03-2016 12:25:00 6.2 C 80 % 3.01 C
3594 03-03-2016 12:30:00 6.2 C 80 % 3.01 C
3595 03-03-2016 12:35:00 6.2 C 79 % 2.84 C
3596 03-03-2016 12:40:00 6.1 C 79 % 2.74 C
3597 03-03-2016 12:45:00 6.1 C 80 % 2.92 C
3598 03-03-2016 12:50:00 6 C 80 % 2.82 C
3599 03-03-2016 12:55:00 6 C 81 % 2.99 C
3600 03-03-2016 13:00:00 6 C 80 % 2.82 C
Sensor: Nr:Datum:Temp:Feuchte:Taupunkt:
Aussen-T/F 3601 03-03-2016 13:05:00 5.9 C 80 % 2.72 C
3602 03-03-2016 13:10:00 5.9 C 80 % 2.72 C
3603 03-03-2016 13:15:00 5.8 C 80 % 2.62 C
3604 03-03-2016 13:20:00 5.8 C 81 % 2.8 C
3605 03-03-2016 13:25:00 5.9 C 81 % 2.9 C
3606 03-03-2016 13:30:00 5.9 C 81 % 2.9 C
3607 03-03-2016 13:35:00 5.8 C 81 % 2.8 C
3608 03-03-2016 13:40:00 5.8 C 81 % 2.8 C
3609 03-03-2016 13:45:00 5.8 C 81 % 2.8 C
3610 03-03-2016 13:50:00 5.8 C 82 % 2.97 C
3611 03-03-2016 13:55:00 5.9 C 82 % 3.07 C
3612 03-03-2016 14:00:00 6.1 C 82 % 3.26 C
3613 03-03-2016 14:05:00 6.2 C 82 % 3.36 C
3614 03-03-2016 14:10:00 6.1 C 81 % 3.09 C
3615 03-03-2016 14:15:00 6.1 C 82 % 3.26 C
3616 03-03-2016 14:20:00 6.1 C 82 % 3.26 C
3617 03-03-2016 14:25:00 6.1 C 81 % 3.09 C
3618 03-03-2016 14:30:00 6 C 81 % 2.99 C
3619 03-03-2016 14:35:00 5.9 C 81 % 2.9 C
3620 03-03-2016 14:40:00 5.8 C 81 % 2.8 C
3621 03-03-2016 14:45:00 5.4 C 82 % 2.58 C
3622 03-03-2016 14:50:00 4.9 C 84 % 2.43 C
3623 03-03-2016 14:55:00 4.7 C 86 % 2.56 C
3624 03-03-2016 15:00:00 4.4 C 87 % 2.43 C
3625 03-03-2016 15:05:00 4.3 C 89 % 2.65 C
Sensor: Nr:Datum:Temp:Feuchte:Taupunkt:
Aussen-T/F 3626 03-03-2016 15:10:00 4.1 C 89 % 2.45 C
3627 03-03-2016 15:15:00 4.1 C 90 % 2.61 C
3628 03-03-2016 15:20:00 4 C 90 % 2.51 C
3629 03-03-2016 15:25:00 4 C 91 % 2.67 C
3630 03-03-2016 15:30:00 4 C 91 % 2.67 C
3631 03-03-2016 15:35:00 4.1 C 92 % 2.92 C
3632 03-03-2016 15:40:00 4.1 C 92 % 2.92 C
3633 03-03-2016 15:45:00 4.1 C 92 % 2.92 C
3634 03-03-2016 15:50:00 4.2 C 93 % 3.17 C
3635 03-03-2016 15:55:00 4.2 C 92 % 3.02 C
3636 03-03-2016 16:00:00 4.3 C 93 % 3.27 C
3637 03-03-2016 16:05:00 4.3 C 92 % 3.12 C
3638 03-03-2016 16:10:00 4.3 C 92 % 3.12 C
3639 03-03-2016 16:15:00 4.4 C 92 % 3.22 C
3640 03-03-2016 16:20:00 4.5 C 92 % 3.32 C
3641 03-03-2016 16:25:00 4.6 C 92 % 3.42 C
3642 03-03-2016 16:30:00 4.7 C 92 % 3.51 C
3643 03-03-2016 16:35:00 4.8 C 92 % 3.61 C
3644 03-03-2016 16:40:00 4.9 C 91 % 3.56 C
3645 03-03-2016 16:45:00 4.9 C 91 % 3.56 C
3646 03-03-2016 16:50:00 5 C 91 % 3.66 C
3647 03-03-2016 16:55:00 5.1 C 91 % 3.76 C
3648 03-03-2016 17:00:00 5.1 C 90 % 3.6 C
3649 03-03-2016 17:05:00 5.1 C 89 % 3.44 C
3650 03-03-2016 17:10:00 5 C 89 % 3.34 C
Sensor: Nr:Datum:Temp:Feuchte:Taupunkt:
Aussen-T/F 3651 03-03-2016 17:15:00 5 C 90 % 3.5 C
3652 03-03-2016 17:20:00 5 C 90 % 3.5 C
3653 03-03-2016 17:25:00 5 C 90 % 3.5 C
3654 03-03-2016 17:30:00 5.2 C 90 % 3.7 C
3655 03-03-2016 17:35:00 5.3 C 88 % 3.48 C
3656 03-03-2016 17:40:00 5.3 C 88 % 3.48 C
3657 03-03-2016 17:45:00 5.4 C 87 % 3.41 C
3658 03-03-2016 17:50:00 5.6 C 88 % 3.77 C
3659 03-03-2016 17:55:00 5.7 C 88 % 3.87 C
3660 03-03-2016 18:00:00 5.5 C 87 % 3.51 C
3661 03-03-2016 18:05:00 5.3 C 86 % 3.15 C
3662 03-03-2016 18:10:00 5.2 C 87 % 3.22 C
3663 03-03-2016 18:15:00 4.9 C 87 % 2.92 C
3664 03-03-2016 18:20:00 4.6 C 87 % 2.63 C
3665 03-03-2016 18:25:00 4.3 C 88 % 2.49 C
3666 03-03-2016 18:30:00 4.2 C 89 % 2.55 C
3667 03-03-2016 18:35:00 4.2 C 89 % 2.55 C
3668 03-03-2016 18:40:00 4 C 89 % 2.36 C
3669 03-03-2016 18:45:00 3.8 C 89 % 2.16 C
3670 03-03-2016 18:50:00 3.5 C 90 % 2.02 C
3671 03-03-2016 18:55:00 3.3 C 90 % 1.82 C
3672 03-03-2016 19:00:00 3.2 C 91 % 1.88 C
3673 03-03-2016 19:05:00 3.1 C 92 % 1.93 C
3674 03-03-2016 19:10:00 3.1 C 92 % 1.93 C
3675 03-03-2016 19:15:00 3 C 92 % 1.83 C
Sensor: Nr:Datum:Temp:Feuchte:Taupunkt:
Aussen-T/F 3676 03-03-2016 19:20:00 2.9 C 92 % 1.73 C
3677 03-03-2016 19:25:00 2.8 C 92 % 1.63 C
3678 03-03-2016 19:30:00 2.6 C 92 % 1.43 C
3679 03-03-2016 19:35:00 2.5 C 92 % 1.34 C
3680 03-03-2016 19:40:00 2.4 C 93 % 1.39 C
3681 03-03-2016 19:45:00 2.4 C 93 % 1.39 C
3682 03-03-2016 19:50:00 2.3 C 93 % 1.29 C
3683 03-03-2016 19:55:00 2.3 C 93 % 1.29 C
3684 03-03-2016 20:00:00 2.2 C 93 % 1.19 C
3685 03-03-2016 20:05:00 2.1 C 93 % 1.09 C
3686 03-03-2016 20:10:00 2 C 93 % 0.99 C
3687 03-03-2016 20:15:00 1.8 C 93 % 0.79 C
3688 03-03-2016 20:20:00 1.7 C 93 % 0.69 C
3689 03-03-2016 20:25:00 1.6 C 93 % 0.59 C
3690 03-03-2016 20:30:00 1.4 C 93 % 0.4 C
3691 03-03-2016 20:35:00 1.4 C 94 % 0.54 C
3692 03-03-2016 20:40:00 1.4 C 94 % 0.54 C
3693 03-03-2016 20:45:00 1.4 C 94 % 0.54 C
3694 03-03-2016 20:50:00 1.3 C 94 % 0.44 C
3695 03-03-2016 20:55:00 1.2 C 94 % 0.34 C
3696 03-03-2016 21:00:00 1.2 C 94 % 0.34 C
3697 03-03-2016 21:05:00 1.2 C 94 % 0.34 C
3698 03-03-2016 21:10:00 1.1 C 94 % 0.24 C
3699 03-03-2016 21:15:00 0.9 C 94 % 0.05 C
3700 03-03-2016 21:20:00 0.9 C 94 % 0.05 C
Sensor: Nr:Datum:Temp:Feuchte:Taupunkt:
Aussen-T/F 3701 03-03-2016 21:25:00 0.8 C 94 % -0.05 C
3702 03-03-2016 21:30:00 0.8 C 95 % 0.09 C
3703 03-03-2016 21:35:00 0.8 C 94 % -0.05 C
3704 03-03-2016 21:40:00 0.8 C 94 % -0.05 C
3705 03-03-2016 21:45:00 0.8 C 95 % 0.09 C
3706 03-03-2016 21:50:00 0.8 C 95 % 0.09 C
3707 03-03-2016 21:55:00 0.7 C 95 % -0.01 C
3708 03-03-2016 22:00:00 0.7 C 95 % -0.01 C
3709 03-03-2016 22:05:00 0.7 C 95 % -0.01 C
3710 03-03-2016 22:10:00 0.6 C 95 % -0.11 C
3711 03-03-2016 22:15:00 0.6 C 95 % -0.11 C
3712 03-03-2016 22:20:00 0.6 C 95 % -0.11 C
3713 03-03-2016 22:25:00 0.5 C 95 % -0.21 C
3714 03-03-2016 22:30:00 0.4 C 95 % -0.31 C
3715 03-03-2016 22:35:00 0.4 C 95 % -0.31 C
3716 03-03-2016 22:40:00 0.3 C 95 % -0.4 C
3717 03-03-2016 22:45:00 0.2 C 95 % -0.5 C
3718 03-03-2016 22:50:00 0.2 C 95 % -0.5 C
3719 03-03-2016 22:55:00 0.1 C 95 % -0.6 C
3720 03-03-2016 23:00:00 0.2 C 95 % -0.5 C
3721 03-03-2016 23:05:00 0.3 C 95 % -0.4 C
3722 03-03-2016 23:10:00 0.3 C 95 % -0.4 C
3723 03-03-2016 23:15:00 0.2 C 95 % -0.5 C
3724 03-03-2016 23:20:00 0.1 C 95 % -0.6 C
3725 03-03-2016 23:25:00 0 C 95 % -0.7 C
Sensor: Nr:Datum:Temp:Feuchte:Taupunkt:
Aussen-T/F 3726 03-03-2016 23:30:00 -0.1 C 95 % -0.8 C
3727 03-03-2016 23:35:00 -0.2 C 95 % -0.9 C
3728 03-03-2016 23:40:00 -0.2 C 95 % -0.9 C
3729 03-03-2016 23:45:00 -0.3 C 95 % -1 C
3730 03-03-2016 23:50:00 -0.3 C 95 % -1 C
3731 03-03-2016 23:55:00 -0.2 C 95 % -0.9 C
3732 04-03-2016 00:00:00 -0.2 C 95 % -0.9 C
3733 04-03-2016 00:05:00 -0.3 C 95 % -1 C
3734 04-03-2016 00:10:00 -0.2 C 95 % -0.9 C
3735 04-03-2016 00:15:00 -0.3 C 95 % -1 C
3736 04-03-2016 00:20:00 -0.3 C 95 % -1 C
3737 04-03-2016 00:25:00 -0.4 C 95 % -1.1 C
3738 04-03-2016 00:30:00 -0.3 C 95 % -1 C
3739 04-03-2016 00:35:00 -0.3 C 95 % -1 C
3740 04-03-2016 00:40:00 -0.3 C 96 % -0.86 C
3741 04-03-2016 00:45:00 -0.4 C 96 % -0.96 C
3742 04-03-2016 00:50:00 -0.4 C 95 % -1.1 C
3743 04-03-2016 00:55:00 -0.5 C 95 % -1.2 C
3744 04-03-2016 01:00:00 -0.6 C 95 % -1.3 C
3745 04-03-2016 01:05:00 -0.6 C 95 % -1.3 C
3746 04-03-2016 01:10:00 -0.6 C 95 % -1.3 C
3747 04-03-2016 01:15:00 -0.6 C 96 % -1.16 C
3748 04-03-2016 01:20:00 -0.6 C 96 % -1.16 C
3749 04-03-2016 01:25:00 -0.6 C 96 % -1.16 C
3750 04-03-2016 01:30:00 -0.5 C 96 % -1.06 C
Sensor: Nr:Datum:Temp:Feuchte:Taupunkt:
Aussen-T/F 3751 04-03-2016 01:35:00 -0.6 C 96 % -1.16 C
3752 04-03-2016 01:40:00 -0.5 C 96 % -1.06 C
3753 04-03-2016 01:45:00 -0.4 C 96 % -0.96 C
3754 04-03-2016 01:50:00 -0.4 C 96 % -0.96 C
3755 04-03-2016 01:55:00 -0.4 C 96 % -0.96 C
3756 04-03-2016 02:00:00 -0.3 C 96 % -0.86 C
3757 04-03-2016 02:05:00 -0.2 C 96 % -0.76 C
3758 04-03-2016 02:10:00 -0.2 C 96 % -0.76 C
3759 04-03-2016 02:15:00 -0.3 C 96 % -0.86 C
3760 04-03-2016 02:20:00 -0.4 C 96 % -0.96 C
3761 04-03-2016 02:25:00 -0.6 C 96 % -1.16 C
3762 04-03-2016 02:30:00 -0.7 C 96 % -1.26 C
3763 04-03-2016 02:35:00 -0.8 C 95 % -1.5 C
3764 04-03-2016 02:40:00 -0.8 C 95 % -1.5 C
3765 04-03-2016 02:45:00 -0.9 C 96 % -1.46 C
3766 04-03-2016 02:50:00 -1.1 C 96 % -1.66 C
3767 04-03-2016 02:55:00 -1.1 C 95 % -1.8 C
3768 04-03-2016 03:00:00 -1.2 C 95 % -1.9 C
3769 04-03-2016 03:05:00 -1.2 C 96 % -1.75 C
3770 04-03-2016 03:10:00 -1.2 C 96 % -1.75 C
3771 04-03-2016 03:15:00 -1.3 C 96 % -1.85 C
3772 04-03-2016 03:20:00 -1.3 C 96 % -1.85 C
3773 04-03-2016 03:25:00 -1.3 C 96 % -1.85 C
3774 04-03-2016 03:30:00 -1.3 C 96 % -1.85 C
3775 04-03-2016 03:35:00 -1.4 C 95 % -2.1 C
Sensor: Nr:Datum:Temp:Feuchte:Taupunkt:
Aussen-T/F 3776 04-03-2016 03:40:00 -1.4 C 96 % -1.95 C
3777 04-03-2016 03:45:00 -1.4 C 96 % -1.95 C
3778 04-03-2016 03:50:00 -1.4 C 96 % -1.95 C
3779 04-03-2016 03:55:00 -1.5 C 96 % -2.05 C
3780 04-03-2016 04:00:00 -1.5 C 96 % -2.05 C
3781 04-03-2016 04:05:00 -1.6 C 96 % -2.15 C
3782 04-03-2016 04:10:00 -1.5 C 96 % -2.05 C
3783 04-03-2016 04:15:00 -1.4 C 96 % -1.95 C
3784 04-03-2016 04:20:00 -1.4 C 96 % -1.95 C
3785 04-03-2016 04:25:00 -1.4 C 96 % -1.95 C
3786 04-03-2016 04:30:00 -1.4 C 96 % -1.95 C
3787 04-03-2016 04:35:00 -1.5 C 96 % -2.05 C
3788 04-03-2016 04:40:00 -1.5 C 96 % -2.05 C
3789 04-03-2016 04:45:00 -1.6 C 96 % -2.15 C
3790 04-03-2016 04:50:00 -1.5 C 96 % -2.05 C
3791 04-03-2016 04:55:00 -1.4 C 96 % -1.95 C
3792 04-03-2016 05:00:00 -1.4 C 96 % -1.95 C
3793 04-03-2016 05:05:00 -1.3 C 96 % -1.85 C
3794 04-03-2016 05:10:00 -1.1 C 96 % -1.66 C
3795 04-03-2016 05:15:00 -0.9 C 96 % -1.46 C
3796 04-03-2016 05:20:00 -0.8 C 96 % -1.36 C
3797 04-03-2016 05:25:00 -0.8 C 96 % -1.36 C
3798 04-03-2016 05:30:00 -0.8 C 96 % -1.36 C
3799 04-03-2016 05:35:00 -0.8 C 96 % -1.36 C
3800 04-03-2016 05:40:00 -0.8 C 96 % -1.36 C
Sensor: Nr:Datum:Temp:Feuchte:Taupunkt:
Aussen-T/F 3801 04-03-2016 05:45:00 -0.8 C 96 % -1.36 C
3802 04-03-2016 05:50:00 -0.8 C 96 % -1.36 C
3803 04-03-2016 05:55:00 -0.8 C 96 % -1.36 C
3804 04-03-2016 06:00:00 -0.8 C 96 % -1.36 C
3805 04-03-2016 06:05:00 -0.9 C 96 % -1.46 C
3806 04-03-2016 06:10:00 -0.9 C 96 % -1.46 C
3807 04-03-2016 06:15:00 -0.9 C 96 % -1.46 C
3808 04-03-2016 06:20:00 -0.8 C 96 % -1.36 C
3809 04-03-2016 06:25:00 -0.8 C 96 % -1.36 C
3810 04-03-2016 06:30:00 -0.8 C 96 % -1.36 C
3811 04-03-2016 06:35:00 -0.8 C 96 % -1.36 C
3812 04-03-2016 06:40:00 -0.8 C 96 % -1.36 C
3813 04-03-2016 06:45:00 -0.8 C 96 % -1.36 C
3814 04-03-2016 06:50:00 -0.8 C 96 % -1.36 C
3815 04-03-2016 06:55:00 -0.7 C 96 % -1.26 C
3816 04-03-2016 07:00:00 -0.8 C 96 % -1.36 C
3817 04-03-2016 07:05:00 -0.7 C 96 % -1.26 C
3818 04-03-2016 07:10:00 -0.7 C 96 % -1.26 C
3819 04-03-2016 07:15:00 -0.7 C 96 % -1.26 C
3820 04-03-2016 07:20:00 -0.6 C 96 % -1.16 C
3821 04-03-2016 07:25:00 -0.6 C 96 % -1.16 C
3822 04-03-2016 07:30:00 -0.4 C 96 % -0.96 C
3823 04-03-2016 07:35:00 -0.2 C 96 % -0.76 C
3824 04-03-2016 07:40:00 -0.1 C 96 % -0.66 C
3825 04-03-2016 07:45:00 0.2 C 97 % -0.22 C
Sensor: Nr:Datum:Temp:Feuchte:Taupunkt:
Aussen-T/F 3826 04-03-2016 07:50:00 0.3 C 97 % -0.12 C
3827 04-03-2016 07:55:00 0.4 C 97 % -0.02 C
3828 04-03-2016 08:00:00 0.5 C 96 % -0.06 C
3829 04-03-2016 08:05:00 0.6 C 97 % 0.18 C
3830 04-03-2016 08:10:00 0.6 C 96 % 0.04 C
3831 04-03-2016 08:15:00 0.7 C 96 % 0.14 C
3832 04-03-2016 08:20:00 0.7 C 96 % 0.14 C
3833 04-03-2016 08:25:00 0.8 C 96 % 0.24 C
3834 04-03-2016 08:30:00 0.8 C 96 % 0.24 C
3835 04-03-2016 08:35:00 0.9 C 96 % 0.34 C
3836 04-03-2016 08:40:00 0.9 C 96 % 0.34 C
3837 04-03-2016 08:45:00 1 C 96 % 0.44 C
3838 04-03-2016 08:50:00 1.1 C 95 % 0.39 C
3839 04-03-2016 08:55:00 1.2 C 95 % 0.49 C
3840 04-03-2016 09:00:00 1.3 C 95 % 0.59 C
3841 04-03-2016 09:05:00 1.3 C 95 % 0.59 C
3842 04-03-2016 09:10:00 1.4 C 94 % 0.54 C
3843 04-03-2016 09:15:00 1.5 C 94 % 0.64 C
3844 04-03-2016 09:20:00 1.6 C 94 % 0.74 C
3845 04-03-2016 09:25:00 1.7 C 93 % 0.69 C
3846 04-03-2016 09:30:00 1.7 C 92 % 0.54 C
3847 04-03-2016 09:35:00 1.8 C 92 % 0.64 C
3848 04-03-2016 09:40:00 1.9 C 91 % 0.59 C
3849 04-03-2016 09:45:00 2 C 91 % 0.69 C
3850 04-03-2016 09:50:00 2.1 C 91 % 0.79 C
Sensor: Nr:Datum:Temp:Feuchte:Taupunkt:
Aussen-T/F 3851 04-03-2016 09:55:00 2.1 C 90 % 0.64 C
3852 04-03-2016 10:00:00 2.2 C 90 % 0.73 C
3853 04-03-2016 10:05:00 2.3 C 90 % 0.83 C
3854 04-03-2016 10:10:00 2.3 C 90 % 0.83 C
3855 04-03-2016 10:15:00 2.3 C 89 % 0.68 C
3856 04-03-2016 10:20:00 2.3 C 89 % 0.68 C
3857 04-03-2016 10:25:00 2.4 C 89 % 0.78 C
3858 04-03-2016 10:30:00 2.5 C 89 % 0.88 C
3859 04-03-2016 10:35:00 2.6 C 89 % 0.97 C
3860 04-03-2016 10:40:00 2.6 C 88 % 0.82 C
3861 04-03-2016 10:45:00 2.7 C 88 % 0.92 C
3862 04-03-2016 10:50:00 2.7 C 88 % 0.92 C
3863 04-03-2016 10:55:00 2.8 C 88 % 1.02 C
3864 04-03-2016 11:00:00 2.8 C 88 % 1.02 C
3865 04-03-2016 11:05:00 2.8 C 87 % 0.86 C
3866 04-03-2016 11:10:00 2.9 C 87 % 0.96 C
3867 04-03-2016 11:15:00 3 C 87 % 1.05 C
3868 04-03-2016 11:20:00 3.1 C 88 % 1.31 C
3869 04-03-2016 11:25:00 3.2 C 88 % 1.41 C
3870 04-03-2016 11:30:00 3.3 C 87 % 1.35 C
3871 04-03-2016 11:35:00 3.4 C 87 % 1.45 C
3872 04-03-2016 11:40:00 3.6 C 87 % 1.64 C
3873 04-03-2016 11:45:00 3.6 C 85 % 1.32 C
3874 04-03-2016 11:50:00 3.7 C 85 % 1.42 C
3875 04-03-2016 11:55:00 3.7 C 84 % 1.25 C
Sensor: Nr:Datum:Temp:Feuchte:Taupunkt:
Aussen-T/F 3876 04-03-2016 12:00:00 3.7 C 84 % 1.25 C
3877 04-03-2016 12:05:00 3.8 C 84 % 1.35 C
3878 04-03-2016 12:10:00 3.8 C 84 % 1.35 C
3879 04-03-2016 12:15:00 3.8 C 84 % 1.35 C
3880 04-03-2016 12:20:00 3.8 C 85 % 1.52 C
3881 04-03-2016 12:25:00 3.8 C 85 % 1.52 C
3882 04-03-2016 12:30:00 3.9 C 86 % 1.78 C
3883 04-03-2016 12:35:00 3.9 C 85 % 1.61 C
3884 04-03-2016 12:40:00 4 C 85 % 1.71 C
3885 04-03-2016 12:45:00 4.1 C 85 % 1.81 C
3886 04-03-2016 12:50:00 4.1 C 84 % 1.65 C
3887 04-03-2016 12:55:00 4.1 C 85 % 1.81 C
3888 04-03-2016 13:00:00 4.2 C 85 % 1.91 C
3889 04-03-2016 13:05:00 4.2 C 84 % 1.74 C
3890 04-03-2016 13:10:00 4.2 C 84 % 1.74 C
3891 04-03-2016 13:15:00 4.2 C 83 % 1.58 C
3892 04-03-2016 13:20:00 4.2 C 84 % 1.74 C
3893 04-03-2016 13:25:00 4.2 C 84 % 1.74 C
3894 04-03-2016 13:30:00 4.2 C 83 % 1.58 C
3895 04-03-2016 13:35:00 4.2 C 84 % 1.74 C
3896 04-03-2016 13:40:00 4.2 C 84 %